<?xml version='1.0' encoding='UTF-8'?><gpx version="1.1" creator="JPX - https://github.com/jenetics/jpx" xmlns="http://www.topografix.com/GPX/1/1"><trk><trkseg><trkpt lat="41.8888152" lon="13.6052637"><ele>915.0000000000001</ele><time>2026-04-08T05:49:31.073Z</time></trkpt><trkpt lat="41.8888081" lon="13.6053579"><ele>916.0</ele><time>2026-04-08T05:49:38.111Z</time></trkpt><trkpt lat="41.8887939" lon="13.6054428"><ele>917.0000000000001</ele><time>2026-04-08T05:49:45.077Z</time></trkpt><trkpt lat="41.8888111" lon="13.6055316"><ele>918.0000000000001</ele><time>2026-04-08T05:49:53.097Z</time></trkpt><trkpt lat="41.8888339" lon="13.605633"><ele>919.0</ele><time>2026-04-08T05:50:10.074Z</time></trkpt><trkpt lat="41.888861" lon="13.605722"><ele>920.0000000000001</ele><time>2026-04-08T05:50:16.074Z</time></trkpt><trkpt lat="41.8888657" lon="13.6058102"><ele>921.0000000000001</ele><time>2026-04-08T05:50:22.076Z</time></trkpt><trkpt lat="41.8888538" lon="13.6058942"><ele>921.0000000000001</ele><time>2026-04-08T05:50:28.097Z</time></trkpt><trkpt lat="41.888841" lon="13.6059783"><ele>921.0</ele><time>2026-04-08T05:50:34.14Z</time></trkpt><trkpt lat="41.8888353" lon="13.6060717"><ele>921.0000000000001</ele><time>2026-04-08T05:50:41.139Z</time></trkpt><trkpt lat="41.8888236" lon="13.6061583"><ele>921.0000000000001</ele><time>2026-04-08T05:50:48.112Z</time></trkpt><trkpt lat="41.8888117" lon="13.6062529"><ele>921.0</ele><time>2026-04-08T05:50:55.073Z</time></trkpt><trkpt lat="41.8888033" lon="13.6063424"><ele>921.0000000000001</ele><time>2026-04-08T05:51:02.091Z</time></trkpt><trkpt lat="41.8887989" lon="13.6064315"><ele>921.0000000000001</ele><time>2026-04-08T05:51:09.073Z</time></trkpt><trkpt lat="41.8887992" lon="13.6065242"><ele>922.0000000000001</ele><time>2026-04-08T05:51:16.077Z</time></trkpt><trkpt lat="41.8887828" lon="13.6066074"><ele>923.0</ele><time>2026-04-08T05:51:23.112Z</time></trkpt><trkpt lat="41.8887747" lon="13.606697"><ele>924.0000000000001</ele><time>2026-04-08T05:51:30.078Z</time></trkpt><trkpt lat="41.8887601" lon="13.6067856"><ele>925.0000000000001</ele><time>2026-04-08T05:51:37.06Z</time></trkpt><trkpt lat="41.8887437" lon="13.6068713"><ele>926.0</ele><time>2026-04-08T05:51:44.075Z</time></trkpt><trkpt lat="41.8887264" lon="13.6069581"><ele>927.0000000000001</ele><time>2026-04-08T05:51:51.073Z</time></trkpt><trkpt lat="41.8887118" lon="13.6070433"><ele>928.0000000000001</ele><time>2026-04-08T05:51:58.11Z</time></trkpt><trkpt lat="41.8887128" lon="13.6071326"><ele>929.2857142857144</ele><time>2026-04-08T05:52:05.078Z</time></trkpt><trkpt lat="41.8886926" lon="13.6072235"><ele>930.5714285714287</ele><time>2026-04-08T05:52:12.09Z</time></trkpt><trkpt lat="41.8886782" lon="13.6073193"><ele>931.8571428571429</ele><time>2026-04-08T05:52:22.103Z</time></trkpt><trkpt lat="41.8886677" lon="13.6074061"><ele>933.1428571428572</ele><time>2026-04-08T05:52:31.005Z</time></trkpt><trkpt lat="41.8886539" lon="13.6074992"><ele>934.4285714285716</ele><time>2026-04-08T05:52:39.076Z</time></trkpt><trkpt lat="41.8886411" lon="13.607589"><ele>935.7142857142857</ele><time>2026-04-08T05:52:47.088Z</time></trkpt><trkpt lat="41.888633" lon="13.6076778"><ele>937.0</ele><time>2026-04-08T05:52:55.073Z</time></trkpt><trkpt lat="41.8886214" lon="13.6077693"><ele>937.7142857142857</ele><time>2026-04-08T05:53:02.075Z</time></trkpt><trkpt lat="41.888602" lon="13.6078549"><ele>938.4285714285716</ele><time>2026-04-08T05:53:09.076Z</time></trkpt><trkpt lat="41.8885876" lon="13.6079404"><ele>939.1428571428572</ele><time>2026-04-08T05:53:16.057Z</time></trkpt><trkpt lat="41.8885779" lon="13.6080296"><ele>939.8571428571429</ele><time>2026-04-08T05:53:23.092Z</time></trkpt><trkpt lat="41.8885792" lon="13.6081175"><ele>940.5714285714287</ele><time>2026-04-08T05:53:30.076Z</time></trkpt><trkpt lat="41.8885719" lon="13.6082069"><ele>941.2857142857144</ele><time>2026-04-08T05:53:37.077Z</time></trkpt><trkpt lat="41.8885693" lon="13.6083034"><ele>942.0000000000001</ele><time>2026-04-08T05:53:45.072Z</time></trkpt><trkpt lat="41.8885657" lon="13.6083999"><ele>942.0000000000001</ele><time>2026-04-08T05:53:52.121Z</time></trkpt><trkpt lat="41.8885612" lon="13.6084884"><ele>942.0</ele><time>2026-04-08T05:53:58.091Z</time></trkpt><trkpt lat="41.888553" lon="13.6085743"><ele>942.0000000000001</ele><time>2026-04-08T05:54:04.146Z</time></trkpt><trkpt lat="41.8885407" lon="13.6086586"><ele>942.0000000000001</ele><time>2026-04-08T05:54:10.078Z</time></trkpt><trkpt lat="41.888531" lon="13.6087493"><ele>942.0</ele><time>2026-04-08T05:54:17.098Z</time></trkpt><trkpt lat="41.8885024" lon="13.6088389"><ele>942.0000000000001</ele><time>2026-04-08T05:54:24.085Z</time></trkpt><trkpt lat="41.8884985" lon="13.6089296"><ele>942.0000000000001</ele><time>2026-04-08T05:54:31.078Z</time></trkpt><trkpt lat="41.8884879" lon="13.6090169"><ele>941.2857142857144</ele><time>2026-04-08T05:54:39.077Z</time></trkpt><trkpt lat="41.8884955" lon="13.6091125"><ele>940.5714285714287</ele><time>2026-04-08T05:54:46.075Z</time></trkpt><trkpt lat="41.8884634" lon="13.6091925"><ele>939.8571428571429</ele><time>2026-04-08T05:54:54.108Z</time></trkpt><trkpt lat="41.8884212" lon="13.6092563"><ele>939.1428571428572</ele><time>2026-04-08T05:55:00.075Z</time></trkpt><trkpt lat="41.888378" lon="13.6093182"><ele>938.4285714285716</ele><time>2026-04-08T05:55:07.081Z</time></trkpt><trkpt lat="41.8883226" lon="13.6093631"><ele>937.7142857142857</ele><time>2026-04-08T05:55:17.075Z</time></trkpt><trkpt lat="41.8883979" lon="13.6093692"><ele>937.0</ele><time>2026-04-08T05:56:36.116Z</time></trkpt><trkpt lat="41.8884627" lon="13.6093884"><ele>937.0</ele><time>2026-04-08T05:56:41.073Z</time></trkpt><trkpt lat="41.8885336" lon="13.6093868"><ele>937.0</ele><time>2026-04-08T05:56:47.079Z</time></trkpt><trkpt lat="41.8885996" lon="13.6093775"><ele>937.0</ele><time>2026-04-08T05:56:53.115Z</time></trkpt><trkpt lat="41.8886574" lon="13.6094204"><ele>937.0</ele><time>2026-04-08T05:57:43.073Z</time></trkpt><trkpt lat="41.8887104" lon="13.6094901"><ele>937.0</ele><time>2026-04-08T05:57:49.088Z</time></trkpt><trkpt lat="41.8887732" lon="13.6095365"><ele>937.0</ele><time>2026-04-08T05:57:55.075Z</time></trkpt><trkpt lat="41.8888379" lon="13.6095549"><ele>937.0</ele><time>2026-04-08T05:58:01.077Z</time></trkpt><trkpt lat="41.8889039" lon="13.6095636"><ele>936.1428571428571</ele><time>2026-04-08T05:58:07.143Z</time></trkpt><trkpt lat="41.8889668" lon="13.6095727"><ele>935.2857142857143</ele><time>2026-04-08T05:58:13.095Z</time></trkpt><trkpt lat="41.8890304" lon="13.6095882"><ele>934.4285714285714</ele><time>2026-04-08T05:58:19.065Z</time></trkpt><trkpt lat="41.8890937" lon="13.6096002"><ele>933.5714285714286</ele><time>2026-04-08T05:58:25.074Z</time></trkpt><trkpt lat="41.8891572" lon="13.609603"><ele>932.7142857142858</ele><time>2026-04-08T05:58:31.044Z</time></trkpt><trkpt lat="41.8892276" lon="13.609573"><ele>931.8571428571429</ele><time>2026-04-08T05:58:38.065Z</time></trkpt><trkpt lat="41.8892842" lon="13.6095359"><ele>931.0</ele><time>2026-04-08T05:58:44Z</time></trkpt><trkpt lat="41.8893408" lon="13.6094918"><ele>931.0</ele><time>2026-04-08T05:58:50.078Z</time></trkpt><trkpt lat="41.8893871" lon="13.6094282"><ele>931.0</ele><time>2026-04-08T05:58:55.987Z</time></trkpt><trkpt lat="41.889452" lon="13.6093936"><ele>931.0</ele><time>2026-04-08T05:59:03.085Z</time></trkpt><trkpt lat="41.8895194" lon="13.6093853"><ele>931.0</ele><time>2026-04-08T05:59:09.643Z</time></trkpt><trkpt lat="41.8895899" lon="13.6093947"><ele>931.0</ele><time>2026-04-08T05:59:16.082Z</time></trkpt><trkpt lat="41.8896453" lon="13.6093507"><ele>931.0</ele><time>2026-04-08T06:00:15.114Z</time></trkpt><trkpt lat="41.8897171" lon="13.609348"><ele>931.0</ele><time>2026-04-08T06:00:20.038Z</time></trkpt><trkpt lat="41.8897909" lon="13.6093556"><ele>931.0</ele><time>2026-04-08T06:00:27.047Z</time></trkpt><trkpt lat="41.8898588" lon="13.6093306"><ele>931.0</ele><time>2026-04-08T06:00:34.121Z</time></trkpt><trkpt lat="41.8899256" lon="13.609328"><ele>931.0</ele><time>2026-04-08T06:00:41.019Z</time></trkpt><trkpt lat="41.8899964" lon="13.6093342"><ele>931.0</ele><time>2026-04-08T06:00:48.076Z</time></trkpt><trkpt lat="41.8900707" lon="13.6093288"><ele>931.0</ele><time>2026-04-08T06:00:55.119Z</time></trkpt><trkpt lat="41.8901429" lon="13.6093369"><ele>931.0</ele><time>2026-04-08T06:01:02.054Z</time></trkpt><trkpt lat="41.8902146" lon="13.6093283"><ele>931.0</ele><time>2026-04-08T06:01:09.076Z</time></trkpt><trkpt lat="41.8902859" lon="13.6093053"><ele>929.4285714285714</ele><time>2026-04-08T06:01:16.063Z</time></trkpt><trkpt lat="41.8903561" lon="13.6092834"><ele>927.8571428571429</ele><time>2026-04-08T06:01:23.087Z</time></trkpt><trkpt lat="41.8904243" lon="13.609281"><ele>926.2857142857142</ele><time>2026-04-08T06:01:30.069Z</time></trkpt><trkpt lat="41.8905003" lon="13.6092707"><ele>924.7142857142857</ele><time>2026-04-08T06:01:39.078Z</time></trkpt><trkpt lat="41.8905676" lon="13.609319"><ele>923.1428571428571</ele><time>2026-04-08T06:01:51.116Z</time></trkpt><trkpt lat="41.8906372" lon="13.6093265"><ele>921.5714285714284</ele><time>2026-04-08T06:01:56.994Z</time></trkpt><trkpt lat="41.8907054" lon="13.6093259"><ele>919.9999999999999</ele><time>2026-04-08T06:02:03.075Z</time></trkpt><trkpt lat="41.8907767" lon="13.6093231"><ele>919.9999999999999</ele><time>2026-04-08T06:02:09.079Z</time></trkpt><trkpt lat="41.8908428" lon="13.6093118"><ele>920.0</ele><time>2026-04-08T06:02:15.113Z</time></trkpt><trkpt lat="41.8909099" lon="13.6092899"><ele>919.9999999999999</ele><time>2026-04-08T06:02:22.074Z</time></trkpt><trkpt lat="41.890974" lon="13.6092493"><ele>919.9999999999999</ele><time>2026-04-08T06:02:28.086Z</time></trkpt><trkpt lat="41.8910308" lon="13.6091954"><ele>920.0</ele><time>2026-04-08T06:02:34.097Z</time></trkpt><trkpt lat="41.8910919" lon="13.6091672"><ele>919.9999999999999</ele><time>2026-04-08T06:02:40.139Z</time></trkpt><trkpt lat="41.8911459" lon="13.6091216"><ele>919.9999999999999</ele><time>2026-04-08T06:02:46.002Z</time></trkpt><trkpt lat="41.8912072" lon="13.6090733"><ele>917.7142857142856</ele><time>2026-04-08T06:02:52.016Z</time></trkpt><trkpt lat="41.8912537" lon="13.609015"><ele>915.4285714285713</ele><time>2026-04-08T06:02:57.077Z</time></trkpt><trkpt lat="41.89128" lon="13.6089336"><ele>913.1428571428571</ele><time>2026-04-08T06:03:35.096Z</time></trkpt><trkpt lat="41.8913408" lon="13.6088969"><ele>910.8571428571428</ele><time>2026-04-08T06:03:41.073Z</time></trkpt><trkpt lat="41.8914048" lon="13.6088585"><ele>908.5714285714284</ele><time>2026-04-08T06:03:48.074Z</time></trkpt><trkpt lat="41.8914596" lon="13.6088095"><ele>906.2857142857143</ele><time>2026-04-08T06:03:54.1Z</time></trkpt><trkpt lat="41.8915106" lon="13.6087476"><ele>904.0</ele><time>2026-04-08T06:04:00.988Z</time></trkpt><trkpt lat="41.891559" lon="13.6086925"><ele>906.0</ele><time>2026-04-08T06:04:07.08Z</time></trkpt><trkpt lat="41.8916121" lon="13.6086362"><ele>908.0</ele><time>2026-04-08T06:04:13.078Z</time></trkpt><trkpt lat="41.8916531" lon="13.608558"><ele>910.0</ele><time>2026-04-08T06:04:19.078Z</time></trkpt><trkpt lat="41.8916893" lon="13.6084703"><ele>912.0</ele><time>2026-04-08T06:04:25.083Z</time></trkpt><trkpt lat="41.8917283" lon="13.6083894"><ele>914.0</ele><time>2026-04-08T06:04:31.076Z</time></trkpt><trkpt lat="41.8917733" lon="13.6083126"><ele>916.0</ele><time>2026-04-08T06:04:37.014Z</time></trkpt><trkpt lat="41.8918059" lon="13.6082263"><ele>918.0</ele><time>2026-04-08T06:04:43.084Z</time></trkpt><trkpt lat="41.8918445" lon="13.608146"><ele>917.0</ele><time>2026-04-08T06:04:49.118Z</time></trkpt><trkpt lat="41.8918888" lon="13.6080757"><ele>916.0</ele><time>2026-04-08T06:04:55.078Z</time></trkpt><trkpt lat="41.8919395" lon="13.608012"><ele>915.0</ele><time>2026-04-08T06:05:01.085Z</time></trkpt><trkpt lat="41.8919939" lon="13.6079629"><ele>914.0</ele><time>2026-04-08T06:05:07.076Z</time></trkpt><trkpt lat="41.8920505" lon="13.6079128"><ele>913.0</ele><time>2026-04-08T06:05:13.959Z</time></trkpt><trkpt lat="41.8921021" lon="13.6078593"><ele>912.0</ele><time>2026-04-08T06:05:20.093Z</time></trkpt><trkpt lat="41.8921429" lon="13.6077941"><ele>911.0</ele><time>2026-04-08T06:05:26.075Z</time></trkpt><trkpt lat="41.8922028" lon="13.6077547"><ele>911.0</ele><time>2026-04-08T06:05:32.116Z</time></trkpt><trkpt lat="41.8922587" lon="13.6077041"><ele>911.0</ele><time>2026-04-08T06:05:38.095Z</time></trkpt><trkpt lat="41.89231" lon="13.6076404"><ele>911.0</ele><time>2026-04-08T06:05:44.078Z</time></trkpt><trkpt lat="41.8923619" lon="13.6075802"><ele>911.0</ele><time>2026-04-08T06:05:50.078Z</time></trkpt><trkpt lat="41.8924273" lon="13.6075343"><ele>911.0</ele><time>2026-04-08T06:05:56.095Z</time></trkpt><trkpt lat="41.8924818" lon="13.6074751"><ele>911.0</ele><time>2026-04-08T06:06:02.074Z</time></trkpt><trkpt lat="41.8925412" lon="13.6074349"><ele>911.0</ele><time>2026-04-08T06:06:08.001Z</time></trkpt><trkpt lat="41.8926062" lon="13.6074094"><ele>907.4285714285714</ele><time>2026-04-08T06:06:14.096Z</time></trkpt><trkpt lat="41.8926722" lon="13.6073837"><ele>903.8571428571428</ele><time>2026-04-08T06:06:20.078Z</time></trkpt><trkpt lat="41.8927382" lon="13.6073813"><ele>900.2857142857142</ele><time>2026-04-08T06:06:26.078Z</time></trkpt><trkpt lat="41.8927999" lon="13.6073381"><ele>896.7142857142858</ele><time>2026-04-08T06:06:32.098Z</time></trkpt><trkpt lat="41.8928558" lon="13.607283"><ele>893.1428571428571</ele><time>2026-04-08T06:06:38.077Z</time></trkpt><trkpt lat="41.8929126" lon="13.6072218"><ele>889.5714285714286</ele><time>2026-04-08T06:06:44.039Z</time></trkpt><trkpt lat="41.8929655" lon="13.6071706"><ele>886.0</ele><time>2026-04-08T06:06:50.099Z</time></trkpt><trkpt lat="41.8930164" lon="13.6071197"><ele>886.0</ele><time>2026-04-08T06:06:56.077Z</time></trkpt><trkpt lat="41.8930485" lon="13.6070376"><ele>886.0</ele><time>2026-04-08T06:07:02.079Z</time></trkpt><trkpt lat="41.8930967" lon="13.6069711"><ele>886.0</ele><time>2026-04-08T06:07:08.099Z</time></trkpt><trkpt lat="41.8931399" lon="13.6069021"><ele>886.0</ele><time>2026-04-08T06:07:14.079Z</time></trkpt><trkpt lat="41.8931778" lon="13.6068322"><ele>886.0</ele><time>2026-04-08T06:07:20.077Z</time></trkpt><trkpt lat="41.8932206" lon="13.606761"><ele>886.0</ele><time>2026-04-08T06:07:26.016Z</time></trkpt><trkpt lat="41.893271" lon="13.6067096"><ele>886.0</ele><time>2026-04-08T06:07:30.985Z</time></trkpt><trkpt lat="41.8933224" lon="13.60664"><ele>885.4285714285714</ele><time>2026-04-08T06:07:36.98Z</time></trkpt><trkpt lat="41.8933675" lon="13.6065806"><ele>884.8571428571429</ele><time>2026-04-08T06:07:42.09Z</time></trkpt><trkpt lat="41.893419" lon="13.6065185"><ele>884.2857142857142</ele><time>2026-04-08T06:07:49.079Z</time></trkpt><trkpt lat="41.8934781" lon="13.6064585"><ele>883.7142857142858</ele><time>2026-04-08T06:07:56.024Z</time></trkpt><trkpt lat="41.8935419" lon="13.6064061"><ele>883.1428571428571</ele><time>2026-04-08T06:08:03.108Z</time></trkpt><trkpt lat="41.8935868" lon="13.6063334"><ele>882.5714285714286</ele><time>2026-04-08T06:08:15.075Z</time></trkpt><trkpt lat="41.8936407" lon="13.6062815"><ele>882.0</ele><time>2026-04-08T06:08:20.103Z</time></trkpt><trkpt lat="41.8936931" lon="13.6062279"><ele>882.0</ele><time>2026-04-08T06:08:26.075Z</time></trkpt><trkpt lat="41.8937389" lon="13.606169"><ele>882.0</ele><time>2026-04-08T06:08:31.125Z</time></trkpt><trkpt lat="41.8937868" lon="13.6061012"><ele>882.0</ele><time>2026-04-08T06:08:37.147Z</time></trkpt><trkpt lat="41.8938277" lon="13.6060336"><ele>882.0</ele><time>2026-04-08T06:08:43.075Z</time></trkpt><trkpt lat="41.8938706" lon="13.6059623"><ele>882.0</ele><time>2026-04-08T06:08:49.084Z</time></trkpt><trkpt lat="41.8939107" lon="13.6058865"><ele>882.0</ele><time>2026-04-08T06:08:55.099Z</time></trkpt><trkpt lat="41.8939549" lon="13.6058178"><ele>882.0</ele><time>2026-04-08T06:09:01.079Z</time></trkpt><trkpt lat="41.8939975" lon="13.6057485"><ele>880.4285714285714</ele><time>2026-04-08T06:09:07.044Z</time></trkpt><trkpt lat="41.8940454" lon="13.6056807"><ele>878.8571428571429</ele><time>2026-04-08T06:09:13.157Z</time></trkpt><trkpt lat="41.8940877" lon="13.6056154"><ele>877.2857142857142</ele><time>2026-04-08T06:09:19.077Z</time></trkpt><trkpt lat="41.8941318" lon="13.6055514"><ele>875.7142857142858</ele><time>2026-04-08T06:09:25.074Z</time></trkpt><trkpt lat="41.8941799" lon="13.605484"><ele>874.1428571428571</ele><time>2026-04-08T06:09:31.101Z</time></trkpt><trkpt lat="41.8942389" lon="13.6054303"><ele>872.5714285714286</ele><time>2026-04-08T06:09:37.075Z</time></trkpt><trkpt lat="41.8942858" lon="13.6053625"><ele>871.0</ele><time>2026-04-08T06:09:43.076Z</time></trkpt><trkpt lat="41.8943254" lon="13.6052837"><ele>874.2857142857142</ele><time>2026-04-08T06:09:50.108Z</time></trkpt><trkpt lat="41.894351" lon="13.6052037"><ele>877.5714285714286</ele><time>2026-04-08T06:10:23.001Z</time></trkpt><trkpt lat="41.8943804" lon="13.6051282"><ele>880.8571428571429</ele><time>2026-04-08T06:10:28.076Z</time></trkpt><trkpt lat="41.8944146" lon="13.6050468"><ele>884.1428571428571</ele><time>2026-04-08T06:10:34.081Z</time></trkpt><trkpt lat="41.8944605" lon="13.604973"><ele>887.4285714285714</ele><time>2026-04-08T06:10:40.123Z</time></trkpt><trkpt lat="41.8945174" lon="13.6049179"><ele>890.7142857142857</ele><time>2026-04-08T06:10:46.08Z</time></trkpt><trkpt lat="41.8945636" lon="13.6048515"><ele>894.0</ele><time>2026-04-08T06:10:52.079Z</time></trkpt><trkpt lat="41.8946168" lon="13.6047881"><ele>893.9999999999999</ele><time>2026-04-08T06:10:58.112Z</time></trkpt><trkpt lat="41.894661" lon="13.6047274"><ele>894.0</ele><time>2026-04-08T06:11:05.078Z</time></trkpt><trkpt lat="41.8947169" lon="13.6046551"><ele>894.0</ele><time>2026-04-08T06:11:12.055Z</time></trkpt><trkpt lat="41.8947841" lon="13.6046107"><ele>894.0</ele><time>2026-04-08T06:11:18.077Z</time></trkpt><trkpt lat="41.8948272" lon="13.6045363"><ele>894.0</ele><time>2026-04-08T06:11:24.075Z</time></trkpt><trkpt lat="41.8948505" lon="13.6044564"><ele>893.9999999999999</ele><time>2026-04-08T06:11:30.091Z</time></trkpt><trkpt lat="41.8948949" lon="13.6043955"><ele>894.0</ele><time>2026-04-08T06:11:36.124Z</time></trkpt><trkpt lat="41.8949462" lon="13.6043356"><ele>894.8571428571428</ele><time>2026-04-08T06:11:42.079Z</time></trkpt><trkpt lat="41.8949952" lon="13.6042793"><ele>895.7142857142858</ele><time>2026-04-08T06:11:47.084Z</time></trkpt><trkpt lat="41.8950471" lon="13.6042279"><ele>896.5714285714287</ele><time>2026-04-08T06:11:53.077Z</time></trkpt><trkpt lat="41.8951033" lon="13.6041741"><ele>897.4285714285714</ele><time>2026-04-08T06:11:59.076Z</time></trkpt><trkpt lat="41.8951603" lon="13.604125"><ele>898.2857142857143</ele><time>2026-04-08T06:12:05.123Z</time></trkpt><trkpt lat="41.8952121" lon="13.6040693"><ele>899.1428571428572</ele><time>2026-04-08T06:12:11.12Z</time></trkpt><trkpt lat="41.8952648" lon="13.6040228"><ele>900.0000000000001</ele><time>2026-04-08T06:12:17.081Z</time></trkpt><trkpt lat="41.895314" lon="13.603958"><ele>900.0000000000001</ele><time>2026-04-08T06:12:23.023Z</time></trkpt><trkpt lat="41.8953656" lon="13.6039012"><ele>900.0</ele><time>2026-04-08T06:12:29.018Z</time></trkpt><trkpt lat="41.8954262" lon="13.6038598"><ele>900.0000000000001</ele><time>2026-04-08T06:12:35.061Z</time></trkpt><trkpt lat="41.8954884" lon="13.603842"><ele>900.0000000000001</ele><time>2026-04-08T06:12:41.074Z</time></trkpt><trkpt lat="41.8955594" lon="13.6038521"><ele>900.0</ele><time>2026-04-08T06:12:48.08Z</time></trkpt><trkpt lat="41.8956239" lon="13.6038555"><ele>900.0000000000001</ele><time>2026-04-08T06:12:56.079Z</time></trkpt><trkpt lat="41.8956882" lon="13.6038004"><ele>900.0000000000001</ele><time>2026-04-08T06:14:00.097Z</time></trkpt><trkpt lat="41.895743" lon="13.6037532"><ele>900.0000000000001</ele><time>2026-04-08T06:14:06.076Z</time></trkpt><trkpt lat="41.8958139" lon="13.603724"><ele>900.0</ele><time>2026-04-08T06:14:23.081Z</time></trkpt><trkpt lat="41.8958868" lon="13.6036963"><ele>900.0000000000001</ele><time>2026-04-08T06:14:29.08Z</time></trkpt><trkpt lat="41.895951" lon="13.6036683"><ele>900.0000000000001</ele><time>2026-04-08T06:14:35.128Z</time></trkpt><trkpt lat="41.8960049" lon="13.6036101"><ele>900.0</ele><time>2026-04-08T06:14:41.078Z</time></trkpt><trkpt lat="41.8960675" lon="13.6035689"><ele>900.0000000000001</ele><time>2026-04-08T06:14:47.119Z</time></trkpt><trkpt lat="41.8961319" lon="13.6035366"><ele>900.0000000000001</ele><time>2026-04-08T06:14:53.098Z</time></trkpt><trkpt lat="41.8962005" lon="13.6035009"><ele>901.2857142857144</ele><time>2026-04-08T06:14:59.079Z</time></trkpt><trkpt lat="41.8962636" lon="13.6034744"><ele>902.5714285714287</ele><time>2026-04-08T06:15:04.157Z</time></trkpt><trkpt lat="41.8963229" lon="13.6034313"><ele>903.8571428571429</ele><time>2026-04-08T06:15:10.021Z</time></trkpt><trkpt lat="41.8963699" lon="13.6033718"><ele>905.1428571428572</ele><time>2026-04-08T06:15:15.122Z</time></trkpt><trkpt lat="41.8964242" lon="13.6033258"><ele>906.4285714285716</ele><time>2026-04-08T06:15:21.082Z</time></trkpt><trkpt lat="41.8964891" lon="13.6032935"><ele>907.7142857142857</ele><time>2026-04-08T06:15:27.091Z</time></trkpt><trkpt lat="41.896541" lon="13.6032415"><ele>909.0</ele><time>2026-04-08T06:15:33.078Z</time></trkpt><trkpt lat="41.8965891" lon="13.6031795"><ele>909.0</ele><time>2026-04-08T06:15:39.079Z</time></trkpt><trkpt lat="41.8966494" lon="13.6031307"><ele>909.0</ele><time>2026-04-08T06:15:45.093Z</time></trkpt><trkpt lat="41.8967108" lon="13.6031023"><ele>909.0</ele><time>2026-04-08T06:15:50.121Z</time></trkpt><trkpt lat="41.8967782" lon="13.6030852"><ele>909.0</ele><time>2026-04-08T06:15:56.079Z</time></trkpt><trkpt lat="41.8968441" lon="13.6030528"><ele>909.0</ele><time>2026-04-08T06:16:02.087Z</time></trkpt><trkpt lat="41.8969061" lon="13.603024"><ele>909.0</ele><time>2026-04-08T06:16:08.099Z</time></trkpt><trkpt lat="41.8969745" lon="13.6029932"><ele>909.0</ele><time>2026-04-08T06:16:15.079Z</time></trkpt><trkpt lat="41.8970407" lon="13.6029556"><ele>910.7142857142857</ele><time>2026-04-08T06:16:22.016Z</time></trkpt><trkpt lat="41.8971075" lon="13.6029363"><ele>912.4285714285716</ele><time>2026-04-08T06:16:28.034Z</time></trkpt><trkpt lat="41.8971747" lon="13.6029066"><ele>914.1428571428572</ele><time>2026-04-08T06:16:35.073Z</time></trkpt><trkpt lat="41.8972371" lon="13.6028719"><ele>915.8571428571429</ele><time>2026-04-08T06:16:41.024Z</time></trkpt><trkpt lat="41.8973009" lon="13.6028354"><ele>917.5714285714287</ele><time>2026-04-08T06:16:47.078Z</time></trkpt><trkpt lat="41.8973651" lon="13.6028089"><ele>919.2857142857144</ele><time>2026-04-08T06:16:53.077Z</time></trkpt><trkpt lat="41.8974287" lon="13.6027682"><ele>921.0000000000001</ele><time>2026-04-08T06:16:59.024Z</time></trkpt><trkpt lat="41.8974867" lon="13.602735"><ele>921.0000000000001</ele><time>2026-04-08T06:17:05.08Z</time></trkpt><trkpt lat="41.8975449" lon="13.602687"><ele>921.0</ele><time>2026-04-08T06:17:11.077Z</time></trkpt><trkpt lat="41.8975991" lon="13.6026372"><ele>921.0000000000001</ele><time>2026-04-08T06:17:17.039Z</time></trkpt><trkpt lat="41.8976574" lon="13.6025844"><ele>921.0000000000001</ele><time>2026-04-08T06:17:23.078Z</time></trkpt><trkpt lat="41.8977206" lon="13.6025377"><ele>921.0</ele><time>2026-04-08T06:17:29.08Z</time></trkpt><trkpt lat="41.8977802" lon="13.6025004"><ele>921.0000000000001</ele><time>2026-04-08T06:17:35.111Z</time></trkpt><trkpt lat="41.897837" lon="13.602457"><ele>921.0000000000001</ele><time>2026-04-08T06:17:41.082Z</time></trkpt><trkpt lat="41.8978952" lon="13.6024237"><ele>916.5714285714287</ele><time>2026-04-08T06:17:47.085Z</time></trkpt><trkpt lat="41.8979672" lon="13.6023989"><ele>912.1428571428571</ele><time>2026-04-08T06:17:58.078Z</time></trkpt><trkpt lat="41.898023" lon="13.6023553"><ele>907.7142857142858</ele><time>2026-04-08T06:18:03.081Z</time></trkpt><trkpt lat="41.8980805" lon="13.6023105"><ele>903.2857142857143</ele><time>2026-04-08T06:18:08.999Z</time></trkpt><trkpt lat="41.8981341" lon="13.6022635"><ele>898.8571428571429</ele><time>2026-04-08T06:18:15.08Z</time></trkpt><trkpt lat="41.8981915" lon="13.6022171"><ele>894.4285714285714</ele><time>2026-04-08T06:18:21.078Z</time></trkpt><trkpt lat="41.8982468" lon="13.6021575"><ele>890.0</ele><time>2026-04-08T06:18:27.102Z</time></trkpt><trkpt lat="41.8983036" lon="13.6021039"><ele>890.0</ele><time>2026-04-08T06:18:33.078Z</time></trkpt><trkpt lat="41.8983666" lon="13.6020598"><ele>890.0</ele><time>2026-04-08T06:18:39.082Z</time></trkpt><trkpt lat="41.8984313" lon="13.6020339"><ele>890.0</ele><time>2026-04-08T06:18:45.105Z</time></trkpt><trkpt lat="41.8984891" lon="13.6019967"><ele>890.0</ele><time>2026-04-08T06:18:51.139Z</time></trkpt><trkpt lat="41.8985442" lon="13.6019493"><ele>890.0</ele><time>2026-04-08T06:18:57.08Z</time></trkpt><trkpt lat="41.8986021" lon="13.6018983"><ele>890.0</ele><time>2026-04-08T06:19:03.107Z</time></trkpt><trkpt lat="41.898661" lon="13.6018493"><ele>890.0</ele><time>2026-04-08T06:19:09.08Z</time></trkpt><trkpt lat="41.8987221" lon="13.6018057"><ele>892.0</ele><time>2026-04-08T06:19:15.078Z</time></trkpt><trkpt lat="41.8987846" lon="13.6017673"><ele>894.0</ele><time>2026-04-08T06:19:21.109Z</time></trkpt><trkpt lat="41.8988422" lon="13.6017119"><ele>896.0</ele><time>2026-04-08T06:19:27.077Z</time></trkpt><trkpt lat="41.8989088" lon="13.6016668"><ele>898.0</ele><time>2026-04-08T06:19:33.081Z</time></trkpt><trkpt lat="41.8989721" lon="13.6016429"><ele>900.0</ele><time>2026-04-08T06:19:38.021Z</time></trkpt><trkpt lat="41.8990313" lon="13.6016043"><ele>902.0</ele><time>2026-04-08T06:19:44.078Z</time></trkpt><trkpt lat="41.8991" lon="13.6015623"><ele>904.0</ele><time>2026-04-08T06:19:50.137Z</time></trkpt><trkpt lat="41.8991624" lon="13.6015177"><ele>904.0</ele><time>2026-04-08T06:19:56.083Z</time></trkpt><trkpt lat="41.8992213" lon="13.6014706"><ele>904.0</ele><time>2026-04-08T06:20:02.079Z</time></trkpt><trkpt lat="41.8992888" lon="13.6014323"><ele>904.0</ele><time>2026-04-08T06:20:08.08Z</time></trkpt><trkpt lat="41.8993506" lon="13.6013829"><ele>904.0</ele><time>2026-04-08T06:20:56.078Z</time></trkpt><trkpt lat="41.8994206" lon="13.6013284"><ele>904.0</ele><time>2026-04-08T06:21:02.11Z</time></trkpt><trkpt lat="41.899481" lon="13.6012904"><ele>904.0</ele><time>2026-04-08T06:21:08.109Z</time></trkpt><trkpt lat="41.8995445" lon="13.6012606"><ele>904.0</ele><time>2026-04-08T06:21:14.078Z</time></trkpt><trkpt lat="41.8996027" lon="13.6012048"><ele>905.5714285714287</ele><time>2026-04-08T06:21:20.08Z</time></trkpt><trkpt lat="41.8996572" lon="13.6011474"><ele>907.1428571428571</ele><time>2026-04-08T06:21:26.11Z</time></trkpt><trkpt lat="41.8997223" lon="13.6011054"><ele>908.7142857142858</ele><time>2026-04-08T06:21:32.081Z</time></trkpt><trkpt lat="41.8997839" lon="13.6010654"><ele>910.2857142857143</ele><time>2026-04-08T06:21:38.083Z</time></trkpt><trkpt lat="41.8998418" lon="13.601021"><ele>911.8571428571429</ele><time>2026-04-08T06:21:44.112Z</time></trkpt><trkpt lat="41.8999003" lon="13.6009678"><ele>913.4285714285714</ele><time>2026-04-08T06:21:51.08Z</time></trkpt><trkpt lat="41.8999522" lon="13.6009167"><ele>915.0</ele><time>2026-04-08T06:21:57.086Z</time></trkpt><trkpt lat="41.9000109" lon="13.600872"><ele>915.0</ele><time>2026-04-08T06:22:03.078Z</time></trkpt><trkpt lat="41.9000712" lon="13.6008261"><ele>915.0000000000001</ele><time>2026-04-08T06:22:09.08Z</time></trkpt><trkpt lat="41.9001303" lon="13.6007841"><ele>915.0</ele><time>2026-04-08T06:22:15.086Z</time></trkpt><trkpt lat="41.9001861" lon="13.6007392"><ele>915.0</ele><time>2026-04-08T06:22:21.121Z</time></trkpt><trkpt lat="41.9002475" lon="13.6007133"><ele>915.0000000000001</ele><time>2026-04-08T06:22:26.164Z</time></trkpt><trkpt lat="41.9003145" lon="13.6006782"><ele>915.0</ele><time>2026-04-08T06:22:32.018Z</time></trkpt><trkpt lat="41.9003769" lon="13.6006251"><ele>915.0</ele><time>2026-04-08T06:22:38.079Z</time></trkpt><trkpt lat="41.9004336" lon="13.6005758"><ele>916.4285714285714</ele><time>2026-04-08T06:22:44.079Z</time></trkpt><trkpt lat="41.9004937" lon="13.6005267"><ele>917.8571428571429</ele><time>2026-04-08T06:22:50.082Z</time></trkpt><trkpt lat="41.9005529" lon="13.6004759"><ele>919.2857142857143</ele><time>2026-04-08T06:22:56.129Z</time></trkpt><trkpt lat="41.900619" lon="13.6004365"><ele>920.7142857142858</ele><time>2026-04-08T06:23:02.082Z</time></trkpt><trkpt lat="41.9006774" lon="13.6003966"><ele>922.1428571428571</ele><time>2026-04-08T06:23:08.083Z</time></trkpt><trkpt lat="41.9007316" lon="13.600335"><ele>923.5714285714287</ele><time>2026-04-08T06:23:15.024Z</time></trkpt><trkpt lat="41.9007884" lon="13.6002774"><ele>925.0</ele><time>2026-04-08T06:23:21.077Z</time></trkpt><trkpt lat="41.9008514" lon="13.6002316"><ele>925.0</ele><time>2026-04-08T06:23:27.091Z</time></trkpt><trkpt lat="41.9009074" lon="13.6001814"><ele>925.0</ele><time>2026-04-08T06:23:33.021Z</time></trkpt><trkpt lat="41.9009674" lon="13.6001276"><ele>925.0</ele><time>2026-04-08T06:23:39.08Z</time></trkpt><trkpt lat="41.9010226" lon="13.6000769"><ele>925.0</ele><time>2026-04-08T06:23:45.093Z</time></trkpt><trkpt lat="41.9010717" lon="13.6000136"><ele>925.0</ele><time>2026-04-08T06:23:51.122Z</time></trkpt><trkpt lat="41.901121" lon="13.599961"><ele>925.0</ele><time>2026-04-08T06:23:57.025Z</time></trkpt><trkpt lat="41.9011738" lon="13.599899"><ele>925.0</ele><time>2026-04-08T06:24:03.093Z</time></trkpt><trkpt lat="41.9012273" lon="13.5998388"><ele>925.1428571428571</ele><time>2026-04-08T06:24:09.105Z</time></trkpt><trkpt lat="41.9012832" lon="13.5997884"><ele>925.2857142857142</ele><time>2026-04-08T06:24:17.078Z</time></trkpt><trkpt lat="41.9013177" lon="13.5997156"><ele>925.4285714285713</ele><time>2026-04-08T06:24:24.111Z</time></trkpt><trkpt lat="41.9013799" lon="13.5996946"><ele>925.5714285714286</ele><time>2026-04-08T06:24:29.078Z</time></trkpt><trkpt lat="41.9014348" lon="13.5996364"><ele>925.7142857142856</ele><time>2026-04-08T06:24:35.079Z</time></trkpt><trkpt lat="41.9014852" lon="13.599573"><ele>925.8571428571428</ele><time>2026-04-08T06:24:41.107Z</time></trkpt><trkpt lat="41.9015413" lon="13.5995217"><ele>926.0</ele><time>2026-04-08T06:24:48.078Z</time></trkpt><trkpt lat="41.901593" lon="13.5994564"><ele>926.0</ele><time>2026-04-08T06:24:54.981Z</time></trkpt><trkpt lat="41.901646" lon="13.5993952"><ele>925.9999999999999</ele><time>2026-04-08T06:25:01.094Z</time></trkpt><trkpt lat="41.9016964" lon="13.5993259"><ele>926.0</ele><time>2026-04-08T06:25:08.08Z</time></trkpt><trkpt lat="41.9017442" lon="13.5992622"><ele>926.0</ele><time>2026-04-08T06:25:15.098Z</time></trkpt><trkpt lat="41.9018097" lon="13.5992136"><ele>925.9999999999999</ele><time>2026-04-08T06:25:21.077Z</time></trkpt><trkpt lat="41.901871" lon="13.5991744"><ele>926.0</ele><time>2026-04-08T06:25:26.082Z</time></trkpt><trkpt lat="41.9019253" lon="13.5991303"><ele>926.0</ele><time>2026-04-08T06:25:31.088Z</time></trkpt><trkpt lat="41.9019818" lon="13.5990828"><ele>922.1428571428571</ele><time>2026-04-08T06:25:36.117Z</time></trkpt><trkpt lat="41.9020378" lon="13.5990195"><ele>918.2857142857142</ele><time>2026-04-08T06:25:42.077Z</time></trkpt><trkpt lat="41.9020941" lon="13.5989694"><ele>914.4285714285713</ele><time>2026-04-08T06:25:48.083Z</time></trkpt><trkpt lat="41.902147" lon="13.5989177"><ele>910.5714285714284</ele><time>2026-04-08T06:25:54.118Z</time></trkpt><trkpt lat="41.902202" lon="13.5988709"><ele>906.7142857142857</ele><time>2026-04-08T06:26:00.08Z</time></trkpt><trkpt lat="41.9022592" lon="13.5988183"><ele>902.8571428571427</ele><time>2026-04-08T06:26:06.085Z</time></trkpt><trkpt lat="41.9023147" lon="13.5987705"><ele>898.9999999999999</ele><time>2026-04-08T06:26:12.118Z</time></trkpt><trkpt lat="41.9023761" lon="13.5987294"><ele>899.5714285714284</ele><time>2026-04-08T06:26:19.081Z</time></trkpt><trkpt lat="41.9024146" lon="13.5986562"><ele>900.1428571428571</ele><time>2026-04-08T06:26:27.102Z</time></trkpt><trkpt lat="41.9024394" lon="13.5985784"><ele>900.7142857142857</ele><time>2026-04-08T06:26:34.142Z</time></trkpt><trkpt lat="41.9024915" lon="13.5985239"><ele>901.2857142857142</ele><time>2026-04-08T06:26:40.109Z</time></trkpt><trkpt lat="41.9025635" lon="13.5984917"><ele>901.8571428571429</ele><time>2026-04-08T06:26:46.11Z</time></trkpt><trkpt lat="41.9026271" lon="13.5984436"><ele>902.4285714285714</ele><time>2026-04-08T06:26:53.079Z</time></trkpt><trkpt lat="41.9026776" lon="13.5983892"><ele>903.0</ele><time>2026-04-08T06:26:59.137Z</time></trkpt><trkpt lat="41.9027195" lon="13.5983228"><ele>903.0</ele><time>2026-04-08T06:27:06.078Z</time></trkpt><trkpt lat="41.9027644" lon="13.5982507"><ele>903.0</ele><time>2026-04-08T06:27:13.056Z</time></trkpt><trkpt lat="41.9028083" lon="13.5981821"><ele>903.0</ele><time>2026-04-08T06:27:20.1Z</time></trkpt><trkpt lat="41.9028562" lon="13.5981097"><ele>903.0</ele><time>2026-04-08T06:27:27.078Z</time></trkpt><trkpt lat="41.9028965" lon="13.5980433"><ele>903.0</ele><time>2026-04-08T06:27:34.079Z</time></trkpt><trkpt lat="41.9029368" lon="13.5979664"><ele>903.0</ele><time>2026-04-08T06:27:43.081Z</time></trkpt><trkpt lat="41.9029586" lon="13.5978783"><ele>903.0</ele><time>2026-04-08T06:28:07.14Z</time></trkpt><trkpt lat="41.9029983" lon="13.5978014"><ele>908.0</ele><time>2026-04-08T06:28:14.139Z</time></trkpt><trkpt lat="41.9030513" lon="13.5977464"><ele>913.0</ele><time>2026-04-08T06:28:19.119Z</time></trkpt><trkpt lat="41.9030907" lon="13.5976743"><ele>918.0</ele><time>2026-04-08T06:28:28.082Z</time></trkpt><trkpt lat="41.9031376" lon="13.5976108"><ele>923.0</ele><time>2026-04-08T06:28:35.081Z</time></trkpt><trkpt lat="41.9031777" lon="13.5975397"><ele>928.0</ele><time>2026-04-08T06:28:43.081Z</time></trkpt><trkpt lat="41.9032459" lon="13.5975215"><ele>933.0</ele><time>2026-04-08T06:29:03.08Z</time></trkpt><trkpt lat="41.9033056" lon="13.5974856"><ele>938.0</ele><time>2026-04-08T06:29:08.107Z</time></trkpt><trkpt lat="41.9033671" lon="13.5974504"><ele>934.8571428571429</ele><time>2026-04-08T06:29:14.082Z</time></trkpt><trkpt lat="41.9034306" lon="13.5974118"><ele>931.7142857142858</ele><time>2026-04-08T06:29:20.081Z</time></trkpt><trkpt lat="41.9034779" lon="13.5973431"><ele>928.5714285714286</ele><time>2026-04-08T06:29:27.114Z</time></trkpt><trkpt lat="41.9035217" lon="13.5972743"><ele>925.4285714285714</ele><time>2026-04-08T06:29:35.08Z</time></trkpt><trkpt lat="41.9035914" lon="13.5972407"><ele>922.2857142857143</ele><time>2026-04-08T06:30:13.082Z</time></trkpt><trkpt lat="41.903626" lon="13.59717"><ele>919.1428571428571</ele><time>2026-04-08T06:30:20.08Z</time></trkpt><trkpt lat="41.9036872" lon="13.5971333"><ele>916.0</ele><time>2026-04-08T06:30:37.083Z</time></trkpt><trkpt lat="41.9037532" lon="13.5971029"><ele>916.0</ele><time>2026-04-08T06:30:43.078Z</time></trkpt><trkpt lat="41.9038118" lon="13.5970695"><ele>916.0</ele><time>2026-04-08T06:30:49.078Z</time></trkpt><trkpt lat="41.9038723" lon="13.5970321"><ele>916.0</ele><time>2026-04-08T06:30:55.109Z</time></trkpt><trkpt lat="41.9039315" lon="13.5969871"><ele>916.0</ele><time>2026-04-08T06:31:01.081Z</time></trkpt><trkpt lat="41.9039805" lon="13.5969261"><ele>916.0</ele><time>2026-04-08T06:31:07.083Z</time></trkpt><trkpt lat="41.9040439" lon="13.5968784"><ele>916.0</ele><time>2026-04-08T06:31:13.109Z</time></trkpt><trkpt lat="41.9041074" lon="13.5968413"><ele>916.0</ele><time>2026-04-08T06:31:19.122Z</time></trkpt><trkpt lat="41.904176" lon="13.5968077"><ele>918.0</ele><time>2026-04-08T06:31:28.133Z</time></trkpt><trkpt lat="41.9042405" lon="13.5967657"><ele>920.0</ele><time>2026-04-08T06:31:36.083Z</time></trkpt><trkpt lat="41.9043061" lon="13.5967307"><ele>922.0</ele><time>2026-04-08T06:31:43.081Z</time></trkpt><trkpt lat="41.9043685" lon="13.5967046"><ele>924.0</ele><time>2026-04-08T06:31:49.159Z</time></trkpt><trkpt lat="41.9044286" lon="13.5966523"><ele>926.0</ele><time>2026-04-08T06:31:56.084Z</time></trkpt><trkpt lat="41.904497" lon="13.5966137"><ele>928.0</ele><time>2026-04-08T06:32:13.984Z</time></trkpt><trkpt lat="41.9045504" lon="13.596549"><ele>930.0</ele><time>2026-04-08T06:32:20Z</time></trkpt><trkpt lat="41.9045909" lon="13.5964798"><ele>930.0</ele><time>2026-04-08T06:32:27.041Z</time></trkpt><trkpt lat="41.9046426" lon="13.5964275"><ele>930.0</ele><time>2026-04-08T06:32:34.079Z</time></trkpt><trkpt lat="41.9047004" lon="13.5963782"><ele>930.0</ele><time>2026-04-08T06:32:40.999Z</time></trkpt><trkpt lat="41.9047576" lon="13.596339"><ele>930.0</ele><time>2026-04-08T06:32:47.085Z</time></trkpt><trkpt lat="41.9048208" lon="13.5962942"><ele>930.0</ele><time>2026-04-08T06:32:54.085Z</time></trkpt><trkpt lat="41.9048853" lon="13.596254"><ele>930.0</ele><time>2026-04-08T06:33:01.117Z</time></trkpt><trkpt lat="41.9049514" lon="13.5962869"><ele>930.0</ele><time>2026-04-08T06:35:00.083Z</time></trkpt><trkpt lat="41.9050117" lon="13.5962519"><ele>930.0</ele><time>2026-04-08T06:35:04.079Z</time></trkpt><trkpt lat="41.9050735" lon="13.5962074"><ele>930.0</ele><time>2026-04-08T06:35:10.085Z</time></trkpt><trkpt lat="41.9051285" lon="13.5961533"><ele>930.0</ele><time>2026-04-08T06:35:16.12Z</time></trkpt><trkpt lat="41.9051885" lon="13.596122"><ele>930.0</ele><time>2026-04-08T06:35:23.081Z</time></trkpt><trkpt lat="41.9052566" lon="13.5960996"><ele>930.0</ele><time>2026-04-08T06:35:30.077Z</time></trkpt><trkpt lat="41.9053281" lon="13.5960877"><ele>930.0</ele><time>2026-04-08T06:35:36.133Z</time></trkpt><trkpt lat="41.9053942" lon="13.5960433"><ele>930.0</ele><time>2026-04-08T06:35:42.118Z</time></trkpt><trkpt lat="41.9054552" lon="13.5960094"><ele>931.5714285714286</ele><time>2026-04-08T06:35:49.113Z</time></trkpt><trkpt lat="41.905522" lon="13.5959796"><ele>933.1428571428571</ele><time>2026-04-08T06:35:56.031Z</time></trkpt><trkpt lat="41.9055835" lon="13.5959512"><ele>934.7142857142857</ele><time>2026-04-08T06:36:02.082Z</time></trkpt><trkpt lat="41.9056523" lon="13.5959289"><ele>936.2857142857142</ele><time>2026-04-08T06:36:08.116Z</time></trkpt><trkpt lat="41.9057172" lon="13.5958997"><ele>937.8571428571429</ele><time>2026-04-08T06:36:14.156Z</time></trkpt><trkpt lat="41.9057903" lon="13.5958874"><ele>939.4285714285713</ele><time>2026-04-08T06:36:21.088Z</time></trkpt><trkpt lat="41.9058644" lon="13.5958644"><ele>940.9999999999999</ele><time>2026-04-08T06:36:28.08Z</time></trkpt><trkpt lat="41.905934" lon="13.5958416"><ele>940.9999999999999</ele><time>2026-04-08T06:36:35.082Z</time></trkpt><trkpt lat="41.9060104" lon="13.5958317"><ele>941.0</ele><time>2026-04-08T06:36:42.107Z</time></trkpt><trkpt lat="41.9060773" lon="13.5957865"><ele>940.9999999999999</ele><time>2026-04-08T06:36:49.053Z</time></trkpt><trkpt lat="41.9061472" lon="13.5957625"><ele>940.9999999999999</ele><time>2026-04-08T06:36:56.087Z</time></trkpt><trkpt lat="41.9062122" lon="13.5957317"><ele>941.0</ele><time>2026-04-08T06:37:02.122Z</time></trkpt><trkpt lat="41.9062795" lon="13.5957145"><ele>940.9999999999999</ele><time>2026-04-08T06:37:08.08Z</time></trkpt><trkpt lat="41.9063452" lon="13.5957034"><ele>940.9999999999999</ele><time>2026-04-08T06:37:14.089Z</time></trkpt><trkpt lat="41.9064132" lon="13.5956672"><ele>940.9999999999999</ele><time>2026-04-08T06:37:21.129Z</time></trkpt><trkpt lat="41.9064738" lon="13.5956219"><ele>941.0</ele><time>2026-04-08T06:37:28.08Z</time></trkpt><trkpt lat="41.9065333" lon="13.595593"><ele>940.9999999999999</ele><time>2026-04-08T06:37:34.102Z</time></trkpt><trkpt lat="41.906606" lon="13.5955997"><ele>940.9999999999999</ele><time>2026-04-08T06:37:41.083Z</time></trkpt><trkpt lat="41.9066748" lon="13.5956413"><ele>941.0</ele><time>2026-04-08T06:38:34.112Z</time></trkpt><trkpt lat="41.9067333" lon="13.5956045"><ele>940.9999999999999</ele><time>2026-04-08T06:38:38.106Z</time></trkpt><trkpt lat="41.9067985" lon="13.5955655"><ele>940.9999999999999</ele><time>2026-04-08T06:38:44.081Z</time></trkpt><trkpt lat="41.9068655" lon="13.5955611"><ele>939.9999999999999</ele><time>2026-04-08T06:38:50.081Z</time></trkpt><trkpt lat="41.9069287" lon="13.5955223"><ele>939.0</ele><time>2026-04-08T06:38:57.08Z</time></trkpt><trkpt lat="41.9069841" lon="13.5954689"><ele>937.9999999999999</ele><time>2026-04-08T06:39:03.08Z</time></trkpt><trkpt lat="41.9070509" lon="13.5954767"><ele>936.9999999999999</ele><time>2026-04-08T06:39:09.104Z</time></trkpt><trkpt lat="41.9071157" lon="13.5954747"><ele>936.0</ele><time>2026-04-08T06:39:15.079Z</time></trkpt><trkpt lat="41.907185" lon="13.5954552"><ele>934.9999999999999</ele><time>2026-04-08T06:39:22.082Z</time></trkpt><trkpt lat="41.907254" lon="13.5954545"><ele>933.9999999999999</ele><time>2026-04-08T06:39:28.1Z</time></trkpt><trkpt lat="41.907322" lon="13.5954605"><ele>933.9999999999999</ele><time>2026-04-08T06:39:34.111Z</time></trkpt><trkpt lat="41.9073962" lon="13.5954783"><ele>934.0</ele><time>2026-04-08T06:39:40.075Z</time></trkpt><trkpt lat="41.9074648" lon="13.5954811"><ele>933.9999999999999</ele><time>2026-04-08T06:39:46.102Z</time></trkpt><trkpt lat="41.9075374" lon="13.5954867"><ele>933.9999999999999</ele><time>2026-04-08T06:39:52.137Z</time></trkpt><trkpt lat="41.9076085" lon="13.5954719"><ele>934.0</ele><time>2026-04-08T06:39:59.08Z</time></trkpt><trkpt lat="41.9076769" lon="13.5954711"><ele>933.9999999999999</ele><time>2026-04-08T06:40:05.107Z</time></trkpt><trkpt lat="41.9077488" lon="13.5954809"><ele>933.9999999999999</ele><time>2026-04-08T06:40:11.082Z</time></trkpt><trkpt lat="41.9078187" lon="13.5954729"><ele>933.5714285714284</ele><time>2026-04-08T06:40:50.04Z</time></trkpt><trkpt lat="41.907884" lon="13.5954868"><ele>933.1428571428571</ele><time>2026-04-08T06:40:54.911Z</time></trkpt><trkpt lat="41.9079522" lon="13.5954987"><ele>932.7142857142857</ele><time>2026-04-08T06:41:00.095Z</time></trkpt><trkpt lat="41.9080209" lon="13.5955142"><ele>932.2857142857142</ele><time>2026-04-08T06:41:06.047Z</time></trkpt><trkpt lat="41.9080917" lon="13.5955283"><ele>931.8571428571429</ele><time>2026-04-08T06:41:12.095Z</time></trkpt><trkpt lat="41.9081544" lon="13.5955432"><ele>931.4285714285714</ele><time>2026-04-08T06:41:18.081Z</time></trkpt><trkpt lat="41.9082164" lon="13.5955593"><ele>931.0</ele><time>2026-04-08T06:41:23.094Z</time></trkpt><trkpt lat="41.9082914" lon="13.595569"><ele>931.0</ele><time>2026-04-08T06:41:30.098Z</time></trkpt><trkpt lat="41.9083636" lon="13.5955704"><ele>931.0</ele><time>2026-04-08T06:41:37.086Z</time></trkpt><trkpt lat="41.908441" lon="13.5955585"><ele>931.0</ele><time>2026-04-08T06:41:44.082Z</time></trkpt><trkpt lat="41.9085056" lon="13.5955483"><ele>931.0</ele><time>2026-04-08T06:41:50.112Z</time></trkpt><trkpt lat="41.9085613" lon="13.5954979"><ele>931.0</ele><time>2026-04-08T06:41:56.079Z</time></trkpt><trkpt lat="41.9086325" lon="13.5955032"><ele>931.0</ele><time>2026-04-08T06:42:02.083Z</time></trkpt><trkpt lat="41.908696" lon="13.5955136"><ele>931.0</ele><time>2026-04-08T06:42:08.115Z</time></trkpt><trkpt lat="41.9087653" lon="13.5955138"><ele>931.2857142857142</ele><time>2026-04-08T06:42:15.083Z</time></trkpt><trkpt lat="41.9088282" lon="13.5955321"><ele>931.5714285714286</ele><time>2026-04-08T06:42:21.09Z</time></trkpt><trkpt lat="41.9088982" lon="13.5955259"><ele>931.8571428571429</ele><time>2026-04-08T06:42:28.083Z</time></trkpt><trkpt lat="41.9089652" lon="13.5955028"><ele>932.1428571428571</ele><time>2026-04-08T06:42:35.082Z</time></trkpt><trkpt lat="41.9090306" lon="13.5954958"><ele>932.4285714285713</ele><time>2026-04-08T06:42:41.081Z</time></trkpt><trkpt lat="41.9090961" lon="13.5954918"><ele>932.7142857142857</ele><time>2026-04-08T06:42:47.094Z</time></trkpt><trkpt lat="41.9091676" lon="13.5955002"><ele>933.0</ele><time>2026-04-08T06:42:54.081Z</time></trkpt><trkpt lat="41.9092342" lon="13.5954998"><ele>933.5714285714286</ele><time>2026-04-08T06:43:04.054Z</time></trkpt><trkpt lat="41.9093073" lon="13.5954977"><ele>934.1428571428571</ele><time>2026-04-08T06:43:11.083Z</time></trkpt><trkpt lat="41.9093778" lon="13.5954913"><ele>934.7142857142857</ele><time>2026-04-08T06:43:17.109Z</time></trkpt><trkpt lat="41.9094462" lon="13.5954808"><ele>935.2857142857142</ele><time>2026-04-08T06:43:23.011Z</time></trkpt><trkpt lat="41.90951" lon="13.5954863"><ele>935.8571428571429</ele><time>2026-04-08T06:43:29.082Z</time></trkpt><trkpt lat="41.9095826" lon="13.5954956"><ele>936.4285714285713</ele><time>2026-04-08T06:43:36.013Z</time></trkpt><trkpt lat="41.9096553" lon="13.5955017"><ele>937.0</ele><time>2026-04-08T06:43:47.081Z</time></trkpt><trkpt lat="41.9097236" lon="13.5954919"><ele>937.0</ele><time>2026-04-08T06:43:52.108Z</time></trkpt><trkpt lat="41.909788" lon="13.5954826"><ele>937.0</ele><time>2026-04-08T06:43:58.08Z</time></trkpt><trkpt lat="41.9098562" lon="13.5954792"><ele>937.0</ele><time>2026-04-08T06:44:04.081Z</time></trkpt><trkpt lat="41.9099213" lon="13.5954831"><ele>937.0</ele><time>2026-04-08T06:44:09.14Z</time></trkpt><trkpt lat="41.9099664" lon="13.5955456"><ele>937.0</ele><time>2026-04-08T06:44:16.082Z</time></trkpt><trkpt lat="41.91004" lon="13.5955346"><ele>937.0</ele><time>2026-04-08T06:44:51.091Z</time></trkpt><trkpt lat="41.9101077" lon="13.5955437"><ele>937.0</ele><time>2026-04-08T06:44:56.086Z</time></trkpt><trkpt lat="41.9101792" lon="13.5955551"><ele>938.2857142857142</ele><time>2026-04-08T06:45:02.107Z</time></trkpt><trkpt lat="41.9102507" lon="13.5955857"><ele>939.5714285714287</ele><time>2026-04-08T06:45:08.141Z</time></trkpt><trkpt lat="41.9103204" lon="13.595606"><ele>940.8571428571429</ele><time>2026-04-08T06:45:14.081Z</time></trkpt><trkpt lat="41.9103933" lon="13.595619"><ele>942.1428571428571</ele><time>2026-04-08T06:45:20.108Z</time></trkpt><trkpt lat="41.9104586" lon="13.5956396"><ele>943.4285714285713</ele><time>2026-04-08T06:45:26.08Z</time></trkpt><trkpt lat="41.9105315" lon="13.5956556"><ele>944.7142857142858</ele><time>2026-04-08T06:45:40.124Z</time></trkpt><trkpt lat="41.9106033" lon="13.595676"><ele>946.0</ele><time>2026-04-08T06:45:46.081Z</time></trkpt><trkpt lat="41.9106684" lon="13.5957035"><ele>946.0</ele><time>2026-04-08T06:45:52.01Z</time></trkpt><trkpt lat="41.9107336" lon="13.5957255"><ele>946.0</ele><time>2026-04-08T06:45:58.127Z</time></trkpt><trkpt lat="41.9108046" lon="13.5957487"><ele>946.0</ele><time>2026-04-08T06:46:04.087Z</time></trkpt><trkpt lat="41.9108731" lon="13.5957634"><ele>946.0</ele><time>2026-04-08T06:46:10.09Z</time></trkpt><trkpt lat="41.9109312" lon="13.5957984"><ele>946.0</ele><time>2026-04-08T06:46:16.089Z</time></trkpt><trkpt lat="41.9109992" lon="13.5957769"><ele>946.0</ele><time>2026-04-08T06:47:37.081Z</time></trkpt><trkpt lat="41.9110624" lon="13.5958002"><ele>946.0</ele><time>2026-04-08T06:47:45.085Z</time></trkpt><trkpt lat="41.911122" lon="13.5958367"><ele>947.2857142857143</ele><time>2026-04-08T06:47:51.084Z</time></trkpt><trkpt lat="41.9111863" lon="13.5958782"><ele>948.5714285714284</ele><time>2026-04-08T06:47:57.081Z</time></trkpt><trkpt lat="41.9112308" lon="13.5959491"><ele>949.8571428571428</ele><time>2026-04-08T06:48:04.122Z</time></trkpt><trkpt lat="41.9112919" lon="13.5959858"><ele>951.1428571428571</ele><time>2026-04-08T06:49:43.083Z</time></trkpt><trkpt lat="41.9113577" lon="13.5959977"><ele>952.4285714285713</ele><time>2026-04-08T06:49:48.086Z</time></trkpt><trkpt lat="41.9114306" lon="13.5960091"><ele>953.7142857142856</ele><time>2026-04-08T06:49:54.106Z</time></trkpt><trkpt lat="41.9115002" lon="13.5959804"><ele>954.9999999999999</ele><time>2026-04-08T06:50:01.085Z</time></trkpt><trkpt lat="41.9115585" lon="13.5959314"><ele>954.9999999999999</ele><time>2026-04-08T06:50:08.081Z</time></trkpt><trkpt lat="41.9116134" lon="13.5958656"><ele>955.0</ele><time>2026-04-08T06:50:15.079Z</time></trkpt><trkpt lat="41.911675" lon="13.5958229"><ele>954.9999999999999</ele><time>2026-04-08T06:50:22.081Z</time></trkpt><trkpt lat="41.9117472" lon="13.5958221"><ele>954.9999999999999</ele><time>2026-04-08T06:50:28.073Z</time></trkpt><trkpt lat="41.9118151" lon="13.5958066"><ele>955.0</ele><time>2026-04-08T06:50:34.131Z</time></trkpt><trkpt lat="41.911882" lon="13.5958019"><ele>954.9999999999999</ele><time>2026-04-08T06:50:39.051Z</time></trkpt><trkpt lat="41.9119519" lon="13.5958354"><ele>954.9999999999999</ele><time>2026-04-08T06:50:45.099Z</time></trkpt><trkpt lat="41.9120136" lon="13.5958755"><ele>956.2857142857142</ele><time>2026-04-08T06:50:50.128Z</time></trkpt><trkpt lat="41.9120688" lon="13.5959198"><ele>957.5714285714286</ele><time>2026-04-08T06:50:55.084Z</time></trkpt><trkpt lat="41.9121296" lon="13.5959703"><ele>958.8571428571429</ele><time>2026-04-08T06:51:01.091Z</time></trkpt><trkpt lat="41.9121855" lon="13.5960255"><ele>960.1428571428571</ele><time>2026-04-08T06:51:07.12Z</time></trkpt><trkpt lat="41.9122451" lon="13.596081"><ele>961.4285714285716</ele><time>2026-04-08T06:51:14.087Z</time></trkpt><trkpt lat="41.9123055" lon="13.5961069"><ele>962.7142857142858</ele><time>2026-04-08T06:51:20.102Z</time></trkpt><trkpt lat="41.9123753" lon="13.5961363"><ele>964.0</ele><time>2026-04-08T06:51:27.081Z</time></trkpt><trkpt lat="41.9124381" lon="13.596167"><ele>962.7142857142858</ele><time>2026-04-08T06:51:33.117Z</time></trkpt><trkpt lat="41.9125001" lon="13.5961892"><ele>961.4285714285716</ele><time>2026-04-08T06:51:39.113Z</time></trkpt><trkpt lat="41.9125696" lon="13.5962186"><ele>960.1428571428571</ele><time>2026-04-08T06:51:46.052Z</time></trkpt><trkpt lat="41.912633" lon="13.5962375"><ele>958.8571428571429</ele><time>2026-04-08T06:51:52.088Z</time></trkpt><trkpt lat="41.9126945" lon="13.5962616"><ele>957.5714285714286</ele><time>2026-04-08T06:51:58.079Z</time></trkpt><trkpt lat="41.9127563" lon="13.5962934"><ele>956.2857142857142</ele><time>2026-04-08T06:52:04.082Z</time></trkpt><trkpt lat="41.9128183" lon="13.5963312"><ele>954.9999999999999</ele><time>2026-04-08T06:52:10.093Z</time></trkpt><trkpt lat="41.9128851" lon="13.5963484"><ele>954.9999999999999</ele><time>2026-04-08T06:52:16.08Z</time></trkpt><trkpt lat="41.9129482" lon="13.5963384"><ele>955.0</ele><time>2026-04-08T06:52:22.069Z</time></trkpt><trkpt lat="41.9130146" lon="13.5963013"><ele>954.9999999999999</ele><time>2026-04-08T06:52:30.155Z</time></trkpt><trkpt lat="41.9130829" lon="13.5962697"><ele>954.9999999999999</ele><time>2026-04-08T06:52:39.082Z</time></trkpt><trkpt lat="41.9131496" lon="13.5962632"><ele>955.0</ele><time>2026-04-08T06:52:46.101Z</time></trkpt><trkpt lat="41.9132212" lon="13.5962763"><ele>954.9999999999999</ele><time>2026-04-08T06:52:53.085Z</time></trkpt><trkpt lat="41.9132856" lon="13.5962795"><ele>954.9999999999999</ele><time>2026-04-08T06:53:00.111Z</time></trkpt><trkpt lat="41.9133549" lon="13.5963023"><ele>955.7142857142856</ele><time>2026-04-08T06:53:08.081Z</time></trkpt><trkpt lat="41.9134124" lon="13.5963405"><ele>956.4285714285713</ele><time>2026-04-08T06:55:33.079Z</time></trkpt><trkpt lat="41.9134636" lon="13.5964106"><ele>957.1428571428571</ele><time>2026-04-08T06:55:40.092Z</time></trkpt><trkpt lat="41.9135215" lon="13.5964598"><ele>957.8571428571428</ele><time>2026-04-08T06:55:47.153Z</time></trkpt><trkpt lat="41.9135913" lon="13.5964826"><ele>958.5714285714284</ele><time>2026-04-08T06:55:55.097Z</time></trkpt><trkpt lat="41.9136563" lon="13.5965061"><ele>959.2857142857143</ele><time>2026-04-08T06:56:02.075Z</time></trkpt><trkpt lat="41.9137281" lon="13.5965064"><ele>960.0</ele><time>2026-04-08T06:56:09.082Z</time></trkpt><trkpt lat="41.9137957" lon="13.596507"><ele>960.0</ele><time>2026-04-08T06:56:15.109Z</time></trkpt><trkpt lat="41.9138601" lon="13.5964897"><ele>960.0</ele><time>2026-04-08T06:56:21.053Z</time></trkpt><trkpt lat="41.9139128" lon="13.5964338"><ele>960.0</ele><time>2026-04-08T06:56:28.088Z</time></trkpt><trkpt lat="41.9139484" lon="13.5963634"><ele>960.0</ele><time>2026-04-08T06:56:35.097Z</time></trkpt><trkpt lat="41.9139777" lon="13.596288"><ele>960.0</ele><time>2026-04-08T06:56:42.086Z</time></trkpt><trkpt lat="41.9140239" lon="13.5962189"><ele>960.0</ele><time>2026-04-08T06:56:48.104Z</time></trkpt><trkpt lat="41.9140514" lon="13.5961342"><ele>960.0</ele><time>2026-04-08T06:56:54.057Z</time></trkpt><trkpt lat="41.9141" lon="13.5960608"><ele>960.8571428571429</ele><time>2026-04-08T06:57:01.146Z</time></trkpt><trkpt lat="41.9141589" lon="13.5960277"><ele>961.7142857142857</ele><time>2026-04-08T06:57:07.115Z</time></trkpt><trkpt lat="41.9142216" lon="13.5960049"><ele>962.5714285714286</ele><time>2026-04-08T06:57:13.118Z</time></trkpt><trkpt lat="41.9142839" lon="13.59599"><ele>963.4285714285714</ele><time>2026-04-08T06:57:19.084Z</time></trkpt><trkpt lat="41.9143552" lon="13.5959857"><ele>964.2857142857142</ele><time>2026-04-08T06:57:26.124Z</time></trkpt><trkpt lat="41.9144214" lon="13.5959668"><ele>965.1428571428571</ele><time>2026-04-08T06:57:32.118Z</time></trkpt><trkpt lat="41.9144847" lon="13.5959673"><ele>966.0</ele><time>2026-04-08T06:57:38.049Z</time></trkpt><trkpt lat="41.9145454" lon="13.5959901"><ele>966.0</ele><time>2026-04-08T06:57:44.081Z</time></trkpt><trkpt lat="41.9146098" lon="13.595991"><ele>966.0</ele><time>2026-04-08T06:57:50.086Z</time></trkpt><trkpt lat="41.9146727" lon="13.5959693"><ele>966.0</ele><time>2026-04-08T06:57:56.098Z</time></trkpt><trkpt lat="41.9147321" lon="13.5959305"><ele>966.0</ele><time>2026-04-08T06:58:02.133Z</time></trkpt><trkpt lat="41.9147995" lon="13.5958985"><ele>966.0</ele><time>2026-04-08T06:58:10.087Z</time></trkpt><trkpt lat="41.9148707" lon="13.5958881"><ele>966.0</ele><time>2026-04-08T06:58:17.119Z</time></trkpt><trkpt lat="41.9149387" lon="13.5958764"><ele>966.0</ele><time>2026-04-08T06:58:23.113Z</time></trkpt><trkpt lat="41.9150057" lon="13.5958885"><ele>965.7142857142858</ele><time>2026-04-08T06:58:29.089Z</time></trkpt><trkpt lat="41.915075" lon="13.5959057"><ele>965.4285714285714</ele><time>2026-04-08T06:58:35.124Z</time></trkpt><trkpt lat="41.9151378" lon="13.5959322"><ele>965.1428571428571</ele><time>2026-04-08T06:58:41.08Z</time></trkpt><trkpt lat="41.9152036" lon="13.5959596"><ele>964.8571428571429</ele><time>2026-04-08T06:58:47.093Z</time></trkpt><trkpt lat="41.9152669" lon="13.5960067"><ele>964.5714285714287</ele><time>2026-04-08T06:58:53.076Z</time></trkpt><trkpt lat="41.915338" lon="13.596018"><ele>964.2857142857143</ele><time>2026-04-08T06:58:59.084Z</time></trkpt><trkpt lat="41.9154035" lon="13.5960413"><ele>964.0</ele><time>2026-04-08T06:59:05.098Z</time></trkpt><trkpt lat="41.9154637" lon="13.5960834"><ele>964.0</ele><time>2026-04-08T06:59:11.111Z</time></trkpt><trkpt lat="41.9154889" lon="13.596163"><ele>964.0000000000001</ele><time>2026-04-08T06:59:18.083Z</time></trkpt><trkpt lat="41.9154588" lon="13.5962431"><ele>964.0</ele><time>2026-04-08T06:59:23.102Z</time></trkpt><trkpt lat="41.9154007" lon="13.5962898"><ele>964.0</ele><time>2026-04-08T06:59:30.085Z</time></trkpt><trkpt lat="41.9153878" lon="13.5963781"><ele>964.0000000000001</ele><time>2026-04-08T06:59:44.081Z</time></trkpt><trkpt lat="41.9153234" lon="13.596405"><ele>964.0</ele><time>2026-04-08T06:59:50.084Z</time></trkpt><trkpt lat="41.9152615" lon="13.5964562"><ele>964.0</ele><time>2026-04-08T07:00:03.135Z</time></trkpt><trkpt lat="41.9151885" lon="13.5964657"><ele>963.2857142857143</ele><time>2026-04-08T07:00:10.085Z</time></trkpt><trkpt lat="41.9151244" lon="13.5964988"><ele>962.5714285714287</ele><time>2026-04-08T07:00:17.132Z</time></trkpt><trkpt lat="41.9150695" lon="13.5965407"><ele>961.8571428571429</ele><time>2026-04-08T07:00:25.091Z</time></trkpt><trkpt lat="41.9150148" lon="13.5965946"><ele>961.1428571428571</ele><time>2026-04-08T07:00:34.116Z</time></trkpt><trkpt lat="41.9149779" lon="13.5966697"><ele>960.4285714285714</ele><time>2026-04-08T07:00:51.114Z</time></trkpt><trkpt lat="41.9149099" lon="13.5966974"><ele>959.7142857142858</ele><time>2026-04-08T07:00:57.079Z</time></trkpt><trkpt lat="41.9148639" lon="13.5967624"><ele>959.0</ele><time>2026-04-08T07:01:03.011Z</time></trkpt><trkpt lat="41.9148366" lon="13.596846"><ele>959.0</ele><time>2026-04-08T07:01:11.154Z</time></trkpt><trkpt lat="41.9147876" lon="13.5969139"><ele>959.0</ele><time>2026-04-08T07:01:19.082Z</time></trkpt><trkpt lat="41.9147452" lon="13.5969773"><ele>959.0</ele><time>2026-04-08T07:01:26.117Z</time></trkpt><trkpt lat="41.9148032" lon="13.5969407"><ele>959.0</ele><time>2026-04-08T07:01:40.099Z</time></trkpt><trkpt lat="41.9148588" lon="13.5968929"><ele>959.0</ele><time>2026-04-08T07:01:48.086Z</time></trkpt><trkpt lat="41.9149213" lon="13.5968502"><ele>959.0</ele><time>2026-04-08T07:01:57.097Z</time></trkpt><trkpt lat="41.9149858" lon="13.5968122"><ele>959.0</ele><time>2026-04-08T07:02:05.082Z</time></trkpt><trkpt lat="41.9150554" lon="13.5968086"><ele>959.0</ele><time>2026-04-08T07:02:12.088Z</time></trkpt><trkpt lat="41.9151248" lon="13.5968034"><ele>959.0</ele><time>2026-04-08T07:02:19.125Z</time></trkpt><trkpt lat="41.9151884" lon="13.5967936"><ele>959.0</ele><time>2026-04-08T07:02:27.082Z</time></trkpt><trkpt lat="41.9152576" lon="13.596773"><ele>959.0</ele><time>2026-04-08T07:02:34.112Z</time></trkpt><trkpt lat="41.9153197" lon="13.5967554"><ele>959.0</ele><time>2026-04-08T07:02:40.079Z</time></trkpt><trkpt lat="41.9153862" lon="13.5967191"><ele>959.0</ele><time>2026-04-08T07:02:46.085Z</time></trkpt><trkpt lat="41.9154578" lon="13.5966908"><ele>959.0</ele><time>2026-04-08T07:02:52.116Z</time></trkpt><trkpt lat="41.9155081" lon="13.5966296"><ele>959.0</ele><time>2026-04-08T07:02:58.008Z</time></trkpt><trkpt lat="41.9155591" lon="13.5965581"><ele>959.0</ele><time>2026-04-08T07:03:04.088Z</time></trkpt><trkpt lat="41.9156131" lon="13.5965115"><ele>959.0</ele><time>2026-04-08T07:03:10.122Z</time></trkpt><trkpt lat="41.9156829" lon="13.5964826"><ele>959.0</ele><time>2026-04-08T07:03:17.083Z</time></trkpt><trkpt lat="41.9157441" lon="13.5964285"><ele>959.0</ele><time>2026-04-08T07:03:24.102Z</time></trkpt><trkpt lat="41.9157765" lon="13.5963551"><ele>959.0</ele><time>2026-04-08T07:03:30.116Z</time></trkpt><trkpt lat="41.9158445" lon="13.596321"><ele>959.0</ele><time>2026-04-08T07:03:36.08Z</time></trkpt><trkpt lat="41.9159127" lon="13.5962936"><ele>959.4285714285714</ele><time>2026-04-08T07:03:42.106Z</time></trkpt><trkpt lat="41.9159865" lon="13.5962801"><ele>959.8571428571429</ele><time>2026-04-08T07:03:49.085Z</time></trkpt><trkpt lat="41.9160537" lon="13.5962754"><ele>960.2857142857142</ele><time>2026-04-08T07:03:55.083Z</time></trkpt><trkpt lat="41.9161255" lon="13.5962678"><ele>960.7142857142857</ele><time>2026-04-08T07:04:02.123Z</time></trkpt><trkpt lat="41.9161956" lon="13.5962633"><ele>961.1428571428571</ele><time>2026-04-08T07:04:08.087Z</time></trkpt><trkpt lat="41.9162631" lon="13.5962611"><ele>961.5714285714284</ele><time>2026-04-08T07:04:14.091Z</time></trkpt><trkpt lat="41.9163353" lon="13.5962512"><ele>961.9999999999999</ele><time>2026-04-08T07:04:21.132Z</time></trkpt><trkpt lat="41.9164011" lon="13.596242"><ele>961.9999999999999</ele><time>2026-04-08T07:04:27.083Z</time></trkpt><trkpt lat="41.9164688" lon="13.5962224"><ele>962.0</ele><time>2026-04-08T07:04:33.102Z</time></trkpt><trkpt lat="41.9165391" lon="13.5962029"><ele>961.9999999999999</ele><time>2026-04-08T07:04:39.138Z</time></trkpt><trkpt lat="41.9166052" lon="13.5961712"><ele>961.9999999999999</ele><time>2026-04-08T07:04:45.081Z</time></trkpt><trkpt lat="41.9166634" lon="13.5961351"><ele>962.0</ele><time>2026-04-08T07:04:50.1Z</time></trkpt><trkpt lat="41.916728" lon="13.5961029"><ele>961.9999999999999</ele><time>2026-04-08T07:04:56.051Z</time></trkpt><trkpt lat="41.9167354" lon="13.5960015"><ele>961.9999999999999</ele><time>2026-04-08T07:05:15.082Z</time></trkpt><trkpt lat="41.9167984" lon="13.5959887"><ele>961.8571428571427</ele><time>2026-04-08T07:05:45.119Z</time></trkpt><trkpt lat="41.916827" lon="13.5959108"><ele>961.7142857142857</ele><time>2026-04-08T07:06:28.086Z</time></trkpt><trkpt lat="41.91689" lon="13.5958567"><ele>961.5714285714284</ele><time>2026-04-08T07:06:34.05Z</time></trkpt><trkpt lat="41.9169568" lon="13.5958591"><ele>961.4285714285713</ele><time>2026-04-08T07:06:41.144Z</time></trkpt><trkpt lat="41.9170199" lon="13.5958645"><ele>961.2857142857142</ele><time>2026-04-08T07:06:48.03Z</time></trkpt><trkpt lat="41.9170928" lon="13.5958842"><ele>961.1428571428571</ele><time>2026-04-08T07:06:55.124Z</time></trkpt><trkpt lat="41.9171559" lon="13.5958889"><ele>961.0</ele><time>2026-04-08T07:07:01.116Z</time></trkpt><trkpt lat="41.9172257" lon="13.5958998"><ele>961.0</ele><time>2026-04-08T07:07:07.094Z</time></trkpt><trkpt lat="41.917289" lon="13.5959178"><ele>960.9999999999999</ele><time>2026-04-08T07:08:06.084Z</time></trkpt><trkpt lat="41.9173523" lon="13.5959115"><ele>961.0</ele><time>2026-04-08T07:08:11.085Z</time></trkpt><trkpt lat="41.9174223" lon="13.5959054"><ele>961.0</ele><time>2026-04-08T07:08:17.106Z</time></trkpt><trkpt lat="41.9174891" lon="13.5959243"><ele>960.9999999999999</ele><time>2026-04-08T07:08:23.141Z</time></trkpt><trkpt lat="41.9175631" lon="13.5959403"><ele>961.0</ele><time>2026-04-08T07:08:29.085Z</time></trkpt><trkpt lat="41.9176327" lon="13.5959725"><ele>961.0</ele><time>2026-04-08T07:08:35.069Z</time></trkpt><trkpt lat="41.9176978" lon="13.5960023"><ele>961.1428571428571</ele><time>2026-04-08T07:08:41.147Z</time></trkpt><trkpt lat="41.9177663" lon="13.5960248"><ele>961.2857142857142</ele><time>2026-04-08T07:08:47.087Z</time></trkpt><trkpt lat="41.9178346" lon="13.5960354"><ele>961.4285714285713</ele><time>2026-04-08T07:08:53.115Z</time></trkpt><trkpt lat="41.9179073" lon="13.5960378"><ele>961.5714285714284</ele><time>2026-04-08T07:08:59.106Z</time></trkpt><trkpt lat="41.9179754" lon="13.5960554"><ele>961.7142857142857</ele><time>2026-04-08T07:09:04.992Z</time></trkpt><trkpt lat="41.918042" lon="13.5960694"><ele>961.8571428571427</ele><time>2026-04-08T07:09:11.087Z</time></trkpt><trkpt lat="41.9181131" lon="13.5960908"><ele>961.9999999999999</ele><time>2026-04-08T07:09:17.089Z</time></trkpt><trkpt lat="41.9181784" lon="13.5961164"><ele>961.9999999999999</ele><time>2026-04-08T07:09:23.09Z</time></trkpt><trkpt lat="41.9182448" lon="13.5961315"><ele>962.0</ele><time>2026-04-08T07:09:29.026Z</time></trkpt><trkpt lat="41.9183169" lon="13.596139"><ele>961.9999999999999</ele><time>2026-04-08T07:09:35.08Z</time></trkpt><trkpt lat="41.918351" lon="13.5962184"><ele>961.9999999999999</ele><time>2026-04-08T07:09:53.083Z</time></trkpt><trkpt lat="41.9184041" lon="13.5962789"><ele>962.0</ele><time>2026-04-08T07:09:59.148Z</time></trkpt><trkpt lat="41.9184543" lon="13.5963339"><ele>961.9999999999999</ele><time>2026-04-08T07:10:05.131Z</time></trkpt><trkpt lat="41.9185206" lon="13.5963781"><ele>961.9999999999999</ele><time>2026-04-08T07:10:12.137Z</time></trkpt><trkpt lat="41.9185842" lon="13.5964119"><ele>962.8571428571427</ele><time>2026-04-08T07:10:18.108Z</time></trkpt><trkpt lat="41.9186508" lon="13.596397"><ele>963.7142857142857</ele><time>2026-04-08T07:10:24.081Z</time></trkpt><trkpt lat="41.9187207" lon="13.5963909"><ele>964.5714285714284</ele><time>2026-04-08T07:10:30.085Z</time></trkpt><trkpt lat="41.9187838" lon="13.5963934"><ele>965.4285714285713</ele><time>2026-04-08T07:10:36.116Z</time></trkpt><trkpt lat="41.9188518" lon="13.5964226"><ele>966.2857142857142</ele><time>2026-04-08T07:10:43.087Z</time></trkpt><trkpt lat="41.9189211" lon="13.5964349"><ele>967.1428571428571</ele><time>2026-04-08T07:10:49.092Z</time></trkpt><trkpt lat="41.9189918" lon="13.5964459"><ele>968.0</ele><time>2026-04-08T07:10:56.131Z</time></trkpt><trkpt lat="41.9190551" lon="13.5964666"><ele>968.0</ele><time>2026-04-08T07:11:02.016Z</time></trkpt><trkpt lat="41.9191227" lon="13.5964849"><ele>967.9999999999999</ele><time>2026-04-08T07:11:08.102Z</time></trkpt><trkpt lat="41.9191888" lon="13.5964859"><ele>968.0</ele><time>2026-04-08T07:11:14.082Z</time></trkpt><trkpt lat="41.919255" lon="13.596492"><ele>968.0</ele><time>2026-04-08T07:11:20.085Z</time></trkpt><trkpt lat="41.9193221" lon="13.5965045"><ele>967.9999999999999</ele><time>2026-04-08T07:11:26.108Z</time></trkpt><trkpt lat="41.9193884" lon="13.5965159"><ele>968.0</ele><time>2026-04-08T07:11:32.086Z</time></trkpt><trkpt lat="41.9194527" lon="13.5965317"><ele>968.0</ele><time>2026-04-08T07:11:38.087Z</time></trkpt><trkpt lat="41.9195174" lon="13.5965514"><ele>969.1428571428571</ele><time>2026-04-08T07:11:44.135Z</time></trkpt><trkpt lat="41.9195824" lon="13.5965747"><ele>970.2857142857142</ele><time>2026-04-08T07:11:50.086Z</time></trkpt><trkpt lat="41.919647" lon="13.5966003"><ele>971.4285714285713</ele><time>2026-04-08T07:11:56.084Z</time></trkpt><trkpt lat="41.919706" lon="13.5966394"><ele>972.5714285714284</ele><time>2026-04-08T07:12:02.092Z</time></trkpt><trkpt lat="41.919767" lon="13.5966736"><ele>973.7142857142857</ele><time>2026-04-08T07:12:08.086Z</time></trkpt><trkpt lat="41.9198286" lon="13.5967015"><ele>974.8571428571427</ele><time>2026-04-08T07:12:14.085Z</time></trkpt><trkpt lat="41.9199006" lon="13.5967232"><ele>975.9999999999999</ele><time>2026-04-08T07:12:21.126Z</time></trkpt><trkpt lat="41.9199681" lon="13.5967462"><ele>975.9999999999999</ele><time>2026-04-08T07:12:28.087Z</time></trkpt><trkpt lat="41.920036" lon="13.5967443"><ele>976.0</ele><time>2026-04-08T07:12:35.107Z</time></trkpt><trkpt lat="41.9200004" lon="13.5968281"><ele>975.9999999999999</ele><time>2026-04-08T07:12:55.096Z</time></trkpt><trkpt lat="41.9199355" lon="13.5968485"><ele>975.9999999999999</ele><time>2026-04-08T07:13:02.088Z</time></trkpt><trkpt lat="41.9198673" lon="13.5968669"><ele>976.0</ele><time>2026-04-08T07:13:26.086Z</time></trkpt><trkpt lat="41.9198102" lon="13.5969155"><ele>975.9999999999999</ele><time>2026-04-08T07:13:33.085Z</time></trkpt><trkpt lat="41.9197531" lon="13.5969583"><ele>975.9999999999999</ele><time>2026-04-08T07:13:40.085Z</time></trkpt><trkpt lat="41.9196964" lon="13.5970152"><ele>977.4285714285713</ele><time>2026-04-08T07:13:48.081Z</time></trkpt><trkpt lat="41.9196308" lon="13.5970393"><ele>978.8571428571429</ele><time>2026-04-08T07:13:55.08Z</time></trkpt><trkpt lat="41.9195686" lon="13.5970634"><ele>980.2857142857142</ele><time>2026-04-08T07:14:08.334Z</time></trkpt><trkpt lat="41.9195015" lon="13.5971101"><ele>981.7142857142857</ele><time>2026-04-08T07:14:14.085Z</time></trkpt><trkpt lat="41.9194419" lon="13.597143"><ele>983.1428571428571</ele><time>2026-04-08T07:14:20.116Z</time></trkpt><trkpt lat="41.9193855" lon="13.5971877"><ele>984.5714285714286</ele><time>2026-04-08T07:14:27.086Z</time></trkpt><trkpt lat="41.919323" lon="13.5972227"><ele>986.0</ele><time>2026-04-08T07:14:34.097Z</time></trkpt><trkpt lat="41.9192687" lon="13.5972756"><ele>986.0</ele><time>2026-04-08T07:14:41.139Z</time></trkpt><trkpt lat="41.9192388" lon="13.5973569"><ele>986.0</ele><time>2026-04-08T07:14:48.095Z</time></trkpt><trkpt lat="41.9191952" lon="13.5974319"><ele>986.0</ele><time>2026-04-08T07:14:57.082Z</time></trkpt><trkpt lat="41.9191449" lon="13.5974958"><ele>986.0</ele><time>2026-04-08T07:15:03.086Z</time></trkpt><trkpt lat="41.9190985" lon="13.5975544"><ele>986.0</ele><time>2026-04-08T07:15:10.054Z</time></trkpt><trkpt lat="41.9190585" lon="13.5976201"><ele>986.0</ele><time>2026-04-08T07:15:17.088Z</time></trkpt><trkpt lat="41.9190231" lon="13.5976935"><ele>986.0</ele><time>2026-04-08T07:15:46.083Z</time></trkpt><trkpt lat="41.9189845" lon="13.5977694"><ele>988.1428571428571</ele><time>2026-04-08T07:15:54.083Z</time></trkpt><trkpt lat="41.9189686" lon="13.5978529"><ele>990.2857142857143</ele><time>2026-04-08T07:16:01.103Z</time></trkpt><trkpt lat="41.9189316" lon="13.5979303"><ele>992.4285714285714</ele><time>2026-04-08T07:16:08.082Z</time></trkpt><trkpt lat="41.918883" lon="13.5980006"><ele>994.5714285714286</ele><time>2026-04-08T07:16:15.084Z</time></trkpt><trkpt lat="41.9188704" lon="13.5980836"><ele>996.7142857142858</ele><time>2026-04-08T07:16:22.08Z</time></trkpt><trkpt lat="41.9188816" lon="13.5981695"><ele>998.8571428571429</ele><time>2026-04-08T07:16:31.075Z</time></trkpt><trkpt lat="41.9188385" lon="13.5982355"><ele>1001.0</ele><time>2026-04-08T07:16:38.118Z</time></trkpt><trkpt lat="41.9188129" lon="13.5983212"><ele>1001.0</ele><time>2026-04-08T07:16:46.07Z</time></trkpt><trkpt lat="41.9187833" lon="13.5984046"><ele>1001.0</ele><time>2026-04-08T07:17:35.086Z</time></trkpt><trkpt lat="41.9187704" lon="13.5984895"><ele>1001.0</ele><time>2026-04-08T07:17:43.086Z</time></trkpt><trkpt lat="41.9187435" lon="13.5985662"><ele>1001.0</ele><time>2026-04-08T07:17:50.136Z</time></trkpt><trkpt lat="41.9186923" lon="13.598631"><ele>1001.0</ele><time>2026-04-08T07:17:58.086Z</time></trkpt><trkpt lat="41.9186561" lon="13.5987013"><ele>1001.0</ele><time>2026-04-08T07:18:05.124Z</time></trkpt><trkpt lat="41.9185824" lon="13.598719"><ele>1001.0</ele><time>2026-04-08T07:18:12.086Z</time></trkpt><trkpt lat="41.9185203" lon="13.5987443"><ele>1000.2857142857142</ele><time>2026-04-08T07:18:19.105Z</time></trkpt><trkpt lat="41.9184574" lon="13.598748"><ele>999.5714285714286</ele><time>2026-04-08T07:18:52.085Z</time></trkpt><trkpt lat="41.9183902" lon="13.5987339"><ele>998.8571428571429</ele><time>2026-04-08T07:19:00.087Z</time></trkpt><trkpt lat="41.9183274" lon="13.5987158"><ele>998.1428571428571</ele><time>2026-04-08T07:19:07.087Z</time></trkpt><trkpt lat="41.9182732" lon="13.5986663"><ele>997.4285714285713</ele><time>2026-04-08T07:19:16.084Z</time></trkpt><trkpt lat="41.9182266" lon="13.5986004"><ele>996.7142857142857</ele><time>2026-04-08T07:19:24.082Z</time></trkpt><trkpt lat="41.9181846" lon="13.5985334"><ele>996.0</ele><time>2026-04-08T07:19:31.084Z</time></trkpt><trkpt lat="41.9181256" lon="13.5984893"><ele>996.0</ele><time>2026-04-08T07:19:39.087Z</time></trkpt><trkpt lat="41.9180718" lon="13.5984451"><ele>995.9999999999999</ele><time>2026-04-08T07:19:47.115Z</time></trkpt><trkpt lat="41.9180038" lon="13.5984773"><ele>996.0</ele><time>2026-04-08T07:19:54.134Z</time></trkpt><trkpt lat="41.9179343" lon="13.598466"><ele>996.0</ele><time>2026-04-08T07:20:11.084Z</time></trkpt><trkpt lat="41.9178671" lon="13.5984484"><ele>995.9999999999999</ele><time>2026-04-08T07:20:18.087Z</time></trkpt><trkpt lat="41.9177989" lon="13.5984533"><ele>996.0</ele><time>2026-04-08T07:20:25.087Z</time></trkpt><trkpt lat="41.9177337" lon="13.5984822"><ele>996.0</ele><time>2026-04-08T07:20:32.083Z</time></trkpt><trkpt lat="41.9176732" lon="13.5985271"><ele>996.0</ele><time>2026-04-08T07:20:39.118Z</time></trkpt><trkpt lat="41.9176126" lon="13.5985584"><ele>995.9999999999999</ele><time>2026-04-08T07:20:46.086Z</time></trkpt><trkpt lat="41.917551" lon="13.5985858"><ele>996.0</ele><time>2026-04-08T07:20:53.056Z</time></trkpt><trkpt lat="41.9174938" lon="13.5985442"><ele>996.0</ele><time>2026-04-08T07:21:00.088Z</time></trkpt><trkpt lat="41.9174233" lon="13.5985485"><ele>995.9999999999999</ele><time>2026-04-08T07:21:07.088Z</time></trkpt><trkpt lat="41.9173523" lon="13.5985685"><ele>996.0</ele><time>2026-04-08T07:21:14.121Z</time></trkpt><trkpt lat="41.9172907" lon="13.5985897"><ele>996.0</ele><time>2026-04-08T07:21:21.085Z</time></trkpt><trkpt lat="41.9172241" lon="13.5986235"><ele>997.0</ele><time>2026-04-08T07:21:27.098Z</time></trkpt><trkpt lat="41.9171625" lon="13.5986567"><ele>997.0</ele><time>2026-04-08T07:21:33.133Z</time></trkpt><trkpt lat="41.9170936" lon="13.5986765"><ele>1013.0</ele><time>2026-04-08T07:21:41.096Z</time></trkpt></trkseg><trkseg><trkpt lat="41.9148138" lon="13.6035071"><ele>961.9999999999999</ele><time>2026-04-08T07:43:58.08Z</time></trkpt><trkpt lat="41.9147547" lon="13.603561"><ele>962.0</ele><time>2026-04-08T07:44:05.084Z</time></trkpt><trkpt lat="41.914688" lon="13.6035804"><ele>961.9999999999999</ele><time>2026-04-08T07:44:11.103Z</time></trkpt><trkpt lat="41.9146924" lon="13.6036708"><ele>961.9999999999999</ele><time>2026-04-08T07:48:16.08Z</time></trkpt><trkpt lat="41.9147571" lon="13.6036966"><ele>962.0</ele><time>2026-04-08T07:48:30.095Z</time></trkpt><trkpt lat="41.9148245" lon="13.6037124"><ele>961.9999999999999</ele><time>2026-04-08T07:48:37.13Z</time></trkpt><trkpt lat="41.9148698" lon="13.6036463"><ele>961.9999999999999</ele><time>2026-04-08T07:48:43.995Z</time></trkpt><trkpt lat="41.9148971" lon="13.603568"><ele>961.9999999999999</ele><time>2026-04-08T07:48:51.08Z</time></trkpt><trkpt lat="41.9149617" lon="13.6035655"><ele>962.0</ele><time>2026-04-08T07:49:09.039Z</time></trkpt><trkpt lat="41.9150255" lon="13.6035755"><ele>961.9999999999999</ele><time>2026-04-08T07:49:17.082Z</time></trkpt><trkpt lat="41.9150907" lon="13.60355"><ele>961.9999999999999</ele><time>2026-04-08T07:49:30.982Z</time></trkpt><trkpt lat="41.9151066" lon="13.6034665"><ele>962.0</ele><time>2026-04-08T07:49:39.116Z</time></trkpt><trkpt lat="41.9151059" lon="13.6033811"><ele>961.9999999999999</ele><time>2026-04-08T07:49:52.095Z</time></trkpt><trkpt lat="41.9151773" lon="13.603377"><ele>961.9999999999999</ele><time>2026-04-08T07:49:58.081Z</time></trkpt><trkpt lat="41.9152424" lon="13.6033666"><ele>965.5714285714284</ele><time>2026-04-08T07:50:05.079Z</time></trkpt><trkpt lat="41.9152844" lon="13.6032997"><ele>969.1428571428571</ele><time>2026-04-08T07:50:12.116Z</time></trkpt><trkpt lat="41.9153211" lon="13.6032242"><ele>972.7142857142857</ele><time>2026-04-08T07:50:20.084Z</time></trkpt><trkpt lat="41.9153977" lon="13.6031869"><ele>976.2857142857142</ele><time>2026-04-08T07:51:15.08Z</time></trkpt><trkpt lat="41.9154591" lon="13.6031436"><ele>979.8571428571429</ele><time>2026-04-08T07:51:24.085Z</time></trkpt><trkpt lat="41.9155212" lon="13.6031143"><ele>983.4285714285714</ele><time>2026-04-08T07:51:33.109Z</time></trkpt><trkpt lat="41.9155717" lon="13.6030481"><ele>987.0</ele><time>2026-04-08T07:51:43.077Z</time></trkpt><trkpt lat="41.9155908" lon="13.6029619"><ele>987.0</ele><time>2026-04-08T07:51:50.111Z</time></trkpt><trkpt lat="41.9156184" lon="13.6028847"><ele>987.0</ele><time>2026-04-08T07:51:56.999Z</time></trkpt><trkpt lat="41.9156338" lon="13.602799"><ele>987.0</ele><time>2026-04-08T07:52:07.081Z</time></trkpt><trkpt lat="41.9156967" lon="13.6027578"><ele>987.0</ele><time>2026-04-08T07:52:17.1Z</time></trkpt><trkpt lat="41.9157388" lon="13.6026846"><ele>987.0</ele><time>2026-04-08T07:52:25.097Z</time></trkpt><trkpt lat="41.9157779" lon="13.6026114"><ele>987.0</ele><time>2026-04-08T07:52:34.086Z</time></trkpt><trkpt lat="41.9158221" lon="13.6025408"><ele>987.0</ele><time>2026-04-08T07:52:43.131Z</time></trkpt><trkpt lat="41.9158883" lon="13.6025235"><ele>989.5714285714286</ele><time>2026-04-08T07:52:55.103Z</time></trkpt><trkpt lat="41.9159129" lon="13.6024436"><ele>992.1428571428571</ele><time>2026-04-08T07:53:28.079Z</time></trkpt><trkpt lat="41.9159624" lon="13.6023871"><ele>994.7142857142858</ele><time>2026-04-08T07:53:34.079Z</time></trkpt><trkpt lat="41.915994" lon="13.6023061"><ele>997.2857142857143</ele><time>2026-04-08T07:53:43.085Z</time></trkpt><trkpt lat="41.916009" lon="13.6022195"><ele>999.8571428571429</ele><time>2026-04-08T07:53:57.105Z</time></trkpt><trkpt lat="41.9160534" lon="13.6021427"><ele>1002.4285714285716</ele><time>2026-04-08T07:54:05.165Z</time></trkpt><trkpt lat="41.9161105" lon="13.6020902"><ele>1005.0000000000001</ele><time>2026-04-08T07:54:15.086Z</time></trkpt><trkpt lat="41.9161452" lon="13.6020101"><ele>1005.1428571428573</ele><time>2026-04-08T07:54:25.145Z</time></trkpt><trkpt lat="41.9161801" lon="13.6019382"><ele>1005.2857142857143</ele><time>2026-04-08T07:54:34.085Z</time></trkpt><trkpt lat="41.9162356" lon="13.6018941"><ele>1005.4285714285716</ele><time>2026-04-08T07:54:41.081Z</time></trkpt><trkpt lat="41.9162957" lon="13.6018576"><ele>1005.5714285714287</ele><time>2026-04-08T07:54:48.083Z</time></trkpt><trkpt lat="41.916285" lon="13.6017657"><ele>1005.7142857142858</ele><time>2026-04-08T07:55:03.02Z</time></trkpt><trkpt lat="41.9162974" lon="13.6016807"><ele>1005.8571428571429</ele><time>2026-04-08T07:55:10.116Z</time></trkpt><trkpt lat="41.9163403" lon="13.6016109"><ele>1006.0</ele><time>2026-04-08T07:55:20.081Z</time></trkpt><trkpt lat="41.916378" lon="13.601536"><ele>1006.0</ele><time>2026-04-08T07:55:29.081Z</time></trkpt><trkpt lat="41.9164316" lon="13.6014894"><ele>1006.0000000000001</ele><time>2026-04-08T07:55:40.097Z</time></trkpt><trkpt lat="41.9164966" lon="13.6014775"><ele>1006.0</ele><time>2026-04-08T07:57:06.08Z</time></trkpt><trkpt lat="41.9165369" lon="13.6014065"><ele>1006.0</ele><time>2026-04-08T07:57:16.086Z</time></trkpt><trkpt lat="41.9165677" lon="13.6013321"><ele>1006.0000000000001</ele><time>2026-04-08T07:57:26.077Z</time></trkpt><trkpt lat="41.9166039" lon="13.6012602"><ele>1006.0</ele><time>2026-04-08T07:57:35.091Z</time></trkpt><trkpt lat="41.9166205" lon="13.6011765"><ele>1006.0</ele><time>2026-04-08T07:57:46.062Z</time></trkpt><trkpt lat="41.9166446" lon="13.6010869"><ele>1006.2857142857143</ele><time>2026-04-08T07:58:08.089Z</time></trkpt><trkpt lat="41.916656" lon="13.6009965"><ele>1006.5714285714287</ele><time>2026-04-08T07:58:17.088Z</time></trkpt><trkpt lat="41.9166976" lon="13.6009227"><ele>1006.8571428571429</ele><time>2026-04-08T07:58:29.115Z</time></trkpt><trkpt lat="41.9167631" lon="13.600901"><ele>1007.1428571428571</ele><time>2026-04-08T07:58:42.094Z</time></trkpt><trkpt lat="41.9167959" lon="13.600826"><ele>1007.4285714285714</ele><time>2026-04-08T07:58:52.061Z</time></trkpt><trkpt lat="41.9168293" lon="13.6007515"><ele>1007.7142857142858</ele><time>2026-04-08T07:59:04.08Z</time></trkpt><trkpt lat="41.9168946" lon="13.6007358"><ele>1008.0</ele><time>2026-04-08T07:59:31.086Z</time></trkpt><trkpt lat="41.9169601" lon="13.600719"><ele>1010.5714285714286</ele><time>2026-04-08T07:59:42.084Z</time></trkpt><trkpt lat="41.916976" lon="13.6006291"><ele>1013.1428571428571</ele><time>2026-04-08T08:00:08.11Z</time></trkpt><trkpt lat="41.9169741" lon="13.6005427"><ele>1015.7142857142858</ele><time>2026-04-08T08:00:17.039Z</time></trkpt><trkpt lat="41.9170359" lon="13.6004968"><ele>1018.2857142857143</ele><time>2026-04-08T08:00:26.119Z</time></trkpt><trkpt lat="41.9170964" lon="13.6005242"><ele>1020.8571428571429</ele><time>2026-04-08T08:00:37.1Z</time></trkpt><trkpt lat="41.9171513" lon="13.6004727"><ele>1023.4285714285716</ele><time>2026-04-08T08:01:02.001Z</time></trkpt><trkpt lat="41.917153" lon="13.6003793"><ele>1026.0</ele><time>2026-04-08T08:01:09.085Z</time></trkpt><trkpt lat="41.9171574" lon="13.600284"><ele>1026.0000000000002</ele><time>2026-04-08T08:01:18.081Z</time></trkpt><trkpt lat="41.9171768" lon="13.6002009"><ele>1026.0</ele><time>2026-04-08T08:01:24.08Z</time></trkpt><trkpt lat="41.9172088" lon="13.6001177"><ele>1026.0</ele><time>2026-04-08T08:01:32.115Z</time></trkpt><trkpt lat="41.9172741" lon="13.6001218"><ele>1026.0</ele><time>2026-04-08T08:02:56.077Z</time></trkpt><trkpt lat="41.9173309" lon="13.6000752"><ele>1026.0</ele><time>2026-04-08T08:03:03.091Z</time></trkpt><trkpt lat="41.9173927" lon="13.6000582"><ele>1026.0000000000002</ele><time>2026-04-08T08:03:12.078Z</time></trkpt><trkpt lat="41.9174572" lon="13.6000744"><ele>1026.0</ele><time>2026-04-08T08:03:20.094Z</time></trkpt><trkpt lat="41.9175159" lon="13.6001196"><ele>1026.0000000000002</ele><time>2026-04-08T08:03:27.076Z</time></trkpt><trkpt lat="41.917567" lon="13.600186"><ele>1026.0</ele><time>2026-04-08T08:03:37.098Z</time></trkpt><trkpt lat="41.917631" lon="13.6002078"><ele>1026.0</ele><time>2026-04-08T08:03:46.057Z</time></trkpt><trkpt lat="41.9176891" lon="13.6002529"><ele>1026.0</ele><time>2026-04-08T08:03:55.107Z</time></trkpt><trkpt lat="41.9177122" lon="13.6001671"><ele>1026.0</ele><time>2026-04-08T08:04:17.07Z</time></trkpt><trkpt lat="41.9177652" lon="13.600216"><ele>1026.0000000000002</ele><time>2026-04-08T08:04:24.083Z</time></trkpt><trkpt lat="41.9178233" lon="13.6002497"><ele>1026.0</ele><time>2026-04-08T08:05:08.08Z</time></trkpt><trkpt lat="41.9178834" lon="13.6002105"><ele>1026.4285714285716</ele><time>2026-04-08T08:06:00.078Z</time></trkpt><trkpt lat="41.9178373" lon="13.6002722"><ele>1026.857142857143</ele><time>2026-04-08T08:10:03.08Z</time></trkpt><trkpt lat="41.9178341" lon="13.6003669"><ele>1027.2857142857142</ele><time>2026-04-08T08:10:09.109Z</time></trkpt><trkpt lat="41.9178763" lon="13.6004338"><ele>1027.7142857142858</ele><time>2026-04-08T08:10:17.081Z</time></trkpt><trkpt lat="41.9179193" lon="13.6004987"><ele>1028.142857142857</ele><time>2026-04-08T08:10:25.106Z</time></trkpt><trkpt lat="41.9179829" lon="13.6004788"><ele>1028.5714285714287</ele><time>2026-04-08T08:10:51.077Z</time></trkpt><trkpt lat="41.9180409" lon="13.6005215"><ele>1029.0</ele><time>2026-04-08T08:10:57.101Z</time></trkpt><trkpt lat="41.9181086" lon="13.6005626"><ele>1029.0</ele><time>2026-04-08T08:11:15.111Z</time></trkpt><trkpt lat="41.9181643" lon="13.6006158"><ele>1029.0</ele><time>2026-04-08T08:12:42.079Z</time></trkpt><trkpt lat="41.9182122" lon="13.6006766"><ele>1029.0</ele><time>2026-04-08T08:12:48.012Z</time></trkpt><trkpt lat="41.9182477" lon="13.6007568"><ele>1029.0</ele><time>2026-04-08T08:12:56.01Z</time></trkpt><trkpt lat="41.9182981" lon="13.6008132"><ele>1029.0</ele><time>2026-04-08T08:13:04.095Z</time></trkpt><trkpt lat="41.9183201" lon="13.6009017"><ele>1029.0</ele><time>2026-04-08T08:13:13.105Z</time></trkpt><trkpt lat="41.9183476" lon="13.6009818"><ele>1029.0</ele><time>2026-04-08T08:13:22.078Z</time></trkpt><trkpt lat="41.9183927" lon="13.6010485"><ele>1028.7142857142858</ele><time>2026-04-08T08:13:33.832Z</time></trkpt><trkpt lat="41.9184427" lon="13.6011065"><ele>1028.4285714285716</ele><time>2026-04-08T08:13:42.082Z</time></trkpt><trkpt lat="41.9184915" lon="13.6011721"><ele>1028.142857142857</ele><time>2026-04-08T08:13:51.082Z</time></trkpt><trkpt lat="41.9185015" lon="13.6012564"><ele>1027.857142857143</ele><time>2026-04-08T08:13:59.007Z</time></trkpt><trkpt lat="41.918476" lon="13.6013465"><ele>1027.5714285714287</ele><time>2026-04-08T08:14:07.079Z</time></trkpt><trkpt lat="41.9185201" lon="13.6014207"><ele>1027.2857142857142</ele><time>2026-04-08T08:14:58.089Z</time></trkpt><trkpt lat="41.9185282" lon="13.6015057"><ele>1027.0</ele><time>2026-04-08T08:15:06.034Z</time></trkpt><trkpt lat="41.9185623" lon="13.6015868"><ele>1025.5714285714287</ele><time>2026-04-08T08:15:13.081Z</time></trkpt><trkpt lat="41.9185641" lon="13.6016718"><ele>1024.1428571428573</ele><time>2026-04-08T08:15:19.117Z</time></trkpt><trkpt lat="41.9185878" lon="13.6017599"><ele>1022.7142857142858</ele><time>2026-04-08T08:15:26.081Z</time></trkpt><trkpt lat="41.9186078" lon="13.6018467"><ele>1021.2857142857142</ele><time>2026-04-08T08:15:33.103Z</time></trkpt><trkpt lat="41.9186272" lon="13.6019308"><ele>1019.8571428571428</ele><time>2026-04-08T08:15:40.131Z</time></trkpt><trkpt lat="41.9186614" lon="13.6020137"><ele>1018.4285714285713</ele><time>2026-04-08T08:15:46.082Z</time></trkpt><trkpt lat="41.9186935" lon="13.6020892"><ele>1017.0</ele><time>2026-04-08T08:15:52.072Z</time></trkpt><trkpt lat="41.918726" lon="13.6021623"><ele>1015.1428571428571</ele><time>2026-04-08T08:15:59.024Z</time></trkpt><trkpt lat="41.9187564" lon="13.6022474"><ele>1013.2857142857142</ele><time>2026-04-08T08:16:11.08Z</time></trkpt><trkpt lat="41.9187305" lon="13.6023349"><ele>1011.4285714285713</ele><time>2026-04-08T08:16:17.077Z</time></trkpt><trkpt lat="41.9186765" lon="13.6024004"><ele>1009.5714285714284</ele><time>2026-04-08T08:16:23.106Z</time></trkpt><trkpt lat="41.9186625" lon="13.6024949"><ele>1007.7142857142857</ele><time>2026-04-08T08:16:30.078Z</time></trkpt><trkpt lat="41.918676" lon="13.6025786"><ele>1005.8571428571427</ele><time>2026-04-08T08:16:36.049Z</time></trkpt><trkpt lat="41.9186798" lon="13.6026639"><ele>1003.9999999999999</ele><time>2026-04-08T08:16:42.078Z</time></trkpt><trkpt lat="41.9186866" lon="13.6027532"><ele>1001.9999999999999</ele><time>2026-04-08T08:16:48.078Z</time></trkpt><trkpt lat="41.9186897" lon="13.6028416"><ele>1000.0</ele><time>2026-04-08T08:16:54.093Z</time></trkpt><trkpt lat="41.9187033" lon="13.6029245"><ele>997.9999999999999</ele><time>2026-04-08T08:17:00.081Z</time></trkpt><trkpt lat="41.918726" lon="13.6030103"><ele>995.9999999999999</ele><time>2026-04-08T08:17:08.078Z</time></trkpt><trkpt lat="41.9187295" lon="13.6031001"><ele>994.0</ele><time>2026-04-08T08:17:14.113Z</time></trkpt><trkpt lat="41.9187319" lon="13.6031848"><ele>991.9999999999999</ele><time>2026-04-08T08:17:20.08Z</time></trkpt><trkpt lat="41.9187467" lon="13.6032759"><ele>989.9999999999999</ele><time>2026-04-08T08:17:28.12Z</time></trkpt><trkpt lat="41.9187344" lon="13.6033591"><ele>989.9999999999999</ele><time>2026-04-08T08:17:34.985Z</time></trkpt><trkpt lat="41.9187225" lon="13.6034542"><ele>990.0</ele><time>2026-04-08T08:17:41.077Z</time></trkpt><trkpt lat="41.9187133" lon="13.6035436"><ele>989.9999999999999</ele><time>2026-04-08T08:17:47.047Z</time></trkpt><trkpt lat="41.9186977" lon="13.6036272"><ele>989.9999999999999</ele><time>2026-04-08T08:17:53.079Z</time></trkpt><trkpt lat="41.9186849" lon="13.6037124"><ele>990.0</ele><time>2026-04-08T08:18:00.091Z</time></trkpt><trkpt lat="41.9186829" lon="13.6038098"><ele>989.9999999999999</ele><time>2026-04-08T08:18:08.124Z</time></trkpt><trkpt lat="41.9187349" lon="13.6038611"><ele>989.9999999999999</ele><time>2026-04-08T08:18:15.006Z</time></trkpt><trkpt lat="41.9188041" lon="13.6038879"><ele>990.4285714285713</ele><time>2026-04-08T08:18:21.032Z</time></trkpt><trkpt lat="41.9188714" lon="13.603868"><ele>990.8571428571429</ele><time>2026-04-08T08:18:28.079Z</time></trkpt><trkpt lat="41.9189301" lon="13.6038257"><ele>991.2857142857142</ele><time>2026-04-08T08:18:34.096Z</time></trkpt><trkpt lat="41.9189989" lon="13.603795"><ele>991.7142857142857</ele><time>2026-04-08T08:18:41.072Z</time></trkpt><trkpt lat="41.9190623" lon="13.6038111"><ele>992.1428571428571</ele><time>2026-04-08T08:18:47.075Z</time></trkpt><trkpt lat="41.9191335" lon="13.6038414"><ele>992.5714285714286</ele><time>2026-04-08T08:18:54.075Z</time></trkpt><trkpt lat="41.9192016" lon="13.6038733"><ele>993.0</ele><time>2026-04-08T08:19:01.072Z</time></trkpt><trkpt lat="41.9192676" lon="13.6038943"><ele>993.0</ele><time>2026-04-08T08:19:09.107Z</time></trkpt><trkpt lat="41.9193359" lon="13.6038996"><ele>993.0</ele><time>2026-04-08T08:19:15.711Z</time></trkpt><trkpt lat="41.9193969" lon="13.6039475"><ele>993.0</ele><time>2026-04-08T08:19:22.089Z</time></trkpt><trkpt lat="41.9194541" lon="13.6040054"><ele>993.0</ele><time>2026-04-08T08:19:28.12Z</time></trkpt><trkpt lat="41.9195067" lon="13.6040644"><ele>993.0</ele><time>2026-04-08T08:19:34.077Z</time></trkpt><trkpt lat="41.9195655" lon="13.6041151"><ele>993.0</ele><time>2026-04-08T08:19:40.129Z</time></trkpt><trkpt lat="41.9196238" lon="13.6041561"><ele>993.0</ele><time>2026-04-08T08:19:46.078Z</time></trkpt><trkpt lat="41.9196873" lon="13.604204"><ele>993.0</ele><time>2026-04-08T08:19:53.079Z</time></trkpt><trkpt lat="41.9197429" lon="13.604264"><ele>993.0</ele><time>2026-04-08T08:20:00.113Z</time></trkpt><trkpt lat="41.9197971" lon="13.60432"><ele>993.0</ele><time>2026-04-08T08:20:07.09Z</time></trkpt><trkpt lat="41.9198475" lon="13.604388"><ele>993.0</ele><time>2026-04-08T08:20:14.097Z</time></trkpt><trkpt lat="41.9199011" lon="13.6044525"><ele>993.0</ele><time>2026-04-08T08:20:21.078Z</time></trkpt><trkpt lat="41.9199503" lon="13.6045159"><ele>993.0</ele><time>2026-04-08T08:20:28.081Z</time></trkpt><trkpt lat="41.9199803" lon="13.6046037"><ele>993.0</ele><time>2026-04-08T08:20:35.124Z</time></trkpt><trkpt lat="41.9199515" lon="13.6046803"><ele>993.5714285714286</ele><time>2026-04-08T08:20:48.102Z</time></trkpt><trkpt lat="41.9198876" lon="13.6046893"><ele>994.1428571428571</ele><time>2026-04-08T08:21:11.08Z</time></trkpt><trkpt lat="41.9198214" lon="13.6046515"><ele>994.7142857142857</ele><time>2026-04-08T08:24:23.074Z</time></trkpt><trkpt lat="41.9197631" lon="13.6046872"><ele>995.2857142857142</ele><time>2026-04-08T08:24:45.1Z</time></trkpt><trkpt lat="41.9197944" lon="13.6047691"><ele>995.8571428571429</ele><time>2026-04-08T08:24:52.074Z</time></trkpt><trkpt lat="41.9197849" lon="13.604679"><ele>996.4285714285713</ele><time>2026-04-08T08:25:33.077Z</time></trkpt><trkpt lat="41.9198506" lon="13.6046409"><ele>996.9999999999999</ele><time>2026-04-08T08:25:42.141Z</time></trkpt><trkpt lat="41.9199136" lon="13.6046443"><ele>996.9999999999999</ele><time>2026-04-08T08:25:52.076Z</time></trkpt><trkpt lat="41.9199763" lon="13.6046764"><ele>997.0</ele><time>2026-04-08T08:25:58.148Z</time></trkpt><trkpt lat="41.9200371" lon="13.60465"><ele>996.9999999999999</ele><time>2026-04-08T08:26:05.061Z</time></trkpt><trkpt lat="41.9201036" lon="13.6046567"><ele>996.9999999999999</ele><time>2026-04-08T08:26:13.077Z</time></trkpt><trkpt lat="41.9201203" lon="13.6047445"><ele>997.0</ele><time>2026-04-08T08:26:33.084Z</time></trkpt><trkpt lat="41.9201816" lon="13.6047729"><ele>996.9999999999999</ele><time>2026-04-08T08:26:56.13Z</time></trkpt><trkpt lat="41.9202464" lon="13.6048012"><ele>996.9999999999999</ele><time>2026-04-08T08:27:08.095Z</time></trkpt><trkpt lat="41.920313" lon="13.6047969"><ele>997.4285714285713</ele><time>2026-04-08T08:27:16.08Z</time></trkpt><trkpt lat="41.9203682" lon="13.6047401"><ele>997.8571428571429</ele><time>2026-04-08T08:27:27.11Z</time></trkpt><trkpt lat="41.9204056" lon="13.6046693"><ele>998.2857142857142</ele><time>2026-04-08T08:27:37.077Z</time></trkpt><trkpt lat="41.920464" lon="13.604708"><ele>998.7142857142857</ele><time>2026-04-08T08:27:44.111Z</time></trkpt><trkpt lat="41.9205356" lon="13.6047156"><ele>999.1428571428571</ele><time>2026-04-08T08:27:52.075Z</time></trkpt><trkpt lat="41.9205826" lon="13.6047852"><ele>999.5714285714286</ele><time>2026-04-08T08:28:02.023Z</time></trkpt><trkpt lat="41.9206351" lon="13.6048324"><ele>1000.0</ele><time>2026-04-08T08:28:09.076Z</time></trkpt><trkpt lat="41.9206909" lon="13.6048858"><ele>1000.0</ele><time>2026-04-08T08:28:16.103Z</time></trkpt><trkpt lat="41.9207351" lon="13.6049594"><ele>1000.0</ele><time>2026-04-08T08:28:23.075Z</time></trkpt><trkpt lat="41.9207823" lon="13.6050202"><ele>1000.0</ele><time>2026-04-08T08:28:29.081Z</time></trkpt><trkpt lat="41.9208339" lon="13.6050784"><ele>1000.0</ele><time>2026-04-08T08:28:36.099Z</time></trkpt><trkpt lat="41.9208942" lon="13.6051053"><ele>1000.0</ele><time>2026-04-08T08:28:42.064Z</time></trkpt><trkpt lat="41.9209464" lon="13.6051757"><ele>1000.0</ele><time>2026-04-08T08:28:49.116Z</time></trkpt><trkpt lat="41.92099" lon="13.6052467"><ele>1000.0</ele><time>2026-04-08T08:28:56.089Z</time></trkpt><trkpt lat="41.9210299" lon="13.6053124"><ele>1001.1428571428571</ele><time>2026-04-08T08:29:02.079Z</time></trkpt><trkpt lat="41.921084" lon="13.6053625"><ele>1002.2857142857143</ele><time>2026-04-08T08:29:08.115Z</time></trkpt><trkpt lat="41.9211315" lon="13.6054203"><ele>1003.4285714285714</ele><time>2026-04-08T08:29:15.077Z</time></trkpt><trkpt lat="41.9211458" lon="13.605509"><ele>1004.5714285714286</ele><time>2026-04-08T08:29:28.077Z</time></trkpt><trkpt lat="41.9211916" lon="13.6055813"><ele>1005.7142857142858</ele><time>2026-04-08T08:29:34.078Z</time></trkpt><trkpt lat="41.9212391" lon="13.6056485"><ele>1006.8571428571429</ele><time>2026-04-08T08:29:40.107Z</time></trkpt><trkpt lat="41.921264" lon="13.6057271"><ele>1008.0</ele><time>2026-04-08T08:29:46.075Z</time></trkpt><trkpt lat="41.9212875" lon="13.6058143"><ele>1008.0</ele><time>2026-04-08T08:29:52.078Z</time></trkpt><trkpt lat="41.9213121" lon="13.6059035"><ele>1008.0</ele><time>2026-04-08T08:29:58.1Z</time></trkpt><trkpt lat="41.9213563" lon="13.6059801"><ele>1008.0</ele><time>2026-04-08T08:30:05.077Z</time></trkpt><trkpt lat="41.9214195" lon="13.6060214"><ele>1008.0</ele><time>2026-04-08T08:30:12.098Z</time></trkpt><trkpt lat="41.921467" lon="13.6060822"><ele>1008.0</ele><time>2026-04-08T08:30:18.075Z</time></trkpt><trkpt lat="41.9215209" lon="13.6061327"><ele>1008.0</ele><time>2026-04-08T08:30:24.077Z</time></trkpt><trkpt lat="41.9215831" lon="13.6061601"><ele>1008.0</ele><time>2026-04-08T08:30:30.106Z</time></trkpt><trkpt lat="41.9216522" lon="13.6061599"><ele>1008.2857142857142</ele><time>2026-04-08T08:30:38.079Z</time></trkpt><trkpt lat="41.9217209" lon="13.6061956"><ele>1008.5714285714286</ele><time>2026-04-08T08:30:45.096Z</time></trkpt><trkpt lat="41.9217757" lon="13.606249"><ele>1008.8571428571429</ele><time>2026-04-08T08:30:52.076Z</time></trkpt><trkpt lat="41.9218386" lon="13.6062964"><ele>1009.1428571428571</ele><time>2026-04-08T08:30:59.122Z</time></trkpt><trkpt lat="41.9218976" lon="13.6063288"><ele>1009.4285714285713</ele><time>2026-04-08T08:31:06.121Z</time></trkpt><trkpt lat="41.9219628" lon="13.6063348"><ele>1009.7142857142857</ele><time>2026-04-08T08:31:12.991Z</time></trkpt><trkpt lat="41.9220306" lon="13.6063353"><ele>1010.0</ele><time>2026-04-08T08:31:20.105Z</time></trkpt><trkpt lat="41.9220993" lon="13.6063181"><ele>1010.2857142857142</ele><time>2026-04-08T08:31:27.077Z</time></trkpt><trkpt lat="41.9221715" lon="13.6063152"><ele>1010.5714285714284</ele><time>2026-04-08T08:31:34.09Z</time></trkpt><trkpt lat="41.9222384" lon="13.6063248"><ele>1010.8571428571429</ele><time>2026-04-08T08:31:41.046Z</time></trkpt><trkpt lat="41.9223084" lon="13.6063314"><ele>1011.1428571428571</ele><time>2026-04-08T08:31:48.081Z</time></trkpt><trkpt lat="41.9223783" lon="13.6063325"><ele>1011.4285714285714</ele><time>2026-04-08T08:32:09.1Z</time></trkpt><trkpt lat="41.9224473" lon="13.6063024"><ele>1011.7142857142858</ele><time>2026-04-08T08:32:16.078Z</time></trkpt><trkpt lat="41.9225177" lon="13.6062924"><ele>1012.0000000000001</ele><time>2026-04-08T08:32:22.079Z</time></trkpt><trkpt lat="41.9225801" lon="13.6063119"><ele>1012.0000000000001</ele><time>2026-04-08T08:32:28.114Z</time></trkpt><trkpt lat="41.9226454" lon="13.6063416"><ele>1012.0</ele><time>2026-04-08T08:32:34.146Z</time></trkpt><trkpt lat="41.9227024" lon="13.6063848"><ele>1012.0000000000001</ele><time>2026-04-08T08:32:41.088Z</time></trkpt><trkpt lat="41.9227573" lon="13.6064304"><ele>1012.0000000000001</ele><time>2026-04-08T08:32:49.047Z</time></trkpt><trkpt lat="41.9228223" lon="13.606465"><ele>1012.0</ele><time>2026-04-08T08:32:58.101Z</time></trkpt><trkpt lat="41.9228841" lon="13.6064921"><ele>1012.0000000000001</ele><time>2026-04-08T08:33:06.042Z</time></trkpt><trkpt lat="41.9229556" lon="13.6064861"><ele>1012.0000000000001</ele><time>2026-04-08T08:33:14.997Z</time></trkpt><trkpt lat="41.9230237" lon="13.6064741"><ele>1012.0000000000001</ele><time>2026-04-08T08:33:22.077Z</time></trkpt><trkpt lat="41.923096" lon="13.606441"><ele>1012.0</ele><time>2026-04-08T08:33:30.083Z</time></trkpt><trkpt lat="41.9231615" lon="13.6063988"><ele>1012.0000000000001</ele><time>2026-04-08T08:33:37.079Z</time></trkpt><trkpt lat="41.9232015" lon="13.6063271"><ele>1012.0000000000001</ele><time>2026-04-08T08:33:43.075Z</time></trkpt><trkpt lat="41.9232329" lon="13.6062493"><ele>1012.0</ele><time>2026-04-08T08:33:50.064Z</time></trkpt><trkpt lat="41.9233104" lon="13.6061972"><ele>1012.0000000000001</ele><time>2026-04-08T08:34:38.087Z</time></trkpt><trkpt lat="41.9233744" lon="13.6061615"><ele>1012.0000000000001</ele><time>2026-04-08T08:34:44.083Z</time></trkpt><trkpt lat="41.923441" lon="13.6061208"><ele>1010.5714285714287</ele><time>2026-04-08T08:34:52.086Z</time></trkpt><trkpt lat="41.923501" lon="13.6060727"><ele>1009.1428571428571</ele><time>2026-04-08T08:35:00.019Z</time></trkpt><trkpt lat="41.9235472" lon="13.6060043"><ele>1007.7142857142858</ele><time>2026-04-08T08:35:07.081Z</time></trkpt><trkpt lat="41.923608" lon="13.6059557"><ele>1006.2857142857143</ele><time>2026-04-08T08:35:14.076Z</time></trkpt><trkpt lat="41.9236786" lon="13.6059278"><ele>1004.8571428571429</ele><time>2026-04-08T08:35:20.078Z</time></trkpt><trkpt lat="41.923738" lon="13.6058972"><ele>1003.4285714285714</ele><time>2026-04-08T08:35:25.087Z</time></trkpt><trkpt lat="41.9237958" lon="13.6058629"><ele>1002.0</ele><time>2026-04-08T08:35:30.117Z</time></trkpt><trkpt lat="41.9238611" lon="13.6058286"><ele>1002.0</ele><time>2026-04-08T08:35:35.999Z</time></trkpt><trkpt lat="41.9239101" lon="13.6057695"><ele>1002.0</ele><time>2026-04-08T08:35:42.091Z</time></trkpt><trkpt lat="41.923968" lon="13.605721"><ele>1002.0</ele><time>2026-04-08T08:35:48.074Z</time></trkpt><trkpt lat="41.9240193" lon="13.605661"><ele>1002.0</ele><time>2026-04-08T08:35:54.082Z</time></trkpt><trkpt lat="41.9240802" lon="13.6056284"><ele>1002.0</ele><time>2026-04-08T08:36:00.099Z</time></trkpt><trkpt lat="41.9241425" lon="13.605607"><ele>1002.0</ele><time>2026-04-08T08:36:06.122Z</time></trkpt><trkpt lat="41.9242019" lon="13.6055707"><ele>1002.0</ele><time>2026-04-08T08:36:14.084Z</time></trkpt><trkpt lat="41.9242669" lon="13.6055703"><ele>1000.7142857142858</ele><time>2026-04-08T08:36:20.121Z</time></trkpt><trkpt lat="41.9243372" lon="13.6055518"><ele>999.4285714285713</ele><time>2026-04-08T08:36:26.079Z</time></trkpt><trkpt lat="41.9243995" lon="13.6055281"><ele>998.1428571428571</ele><time>2026-04-08T08:36:32.094Z</time></trkpt><trkpt lat="41.9244598" lon="13.6054775"><ele>996.8571428571429</ele><time>2026-04-08T08:36:39.021Z</time></trkpt><trkpt lat="41.9245062" lon="13.605414"><ele>995.5714285714287</ele><time>2026-04-08T08:36:46.079Z</time></trkpt><trkpt lat="41.9245527" lon="13.6053536"><ele>994.2857142857142</ele><time>2026-04-08T08:36:52.06Z</time></trkpt><trkpt lat="41.9246124" lon="13.6052942"><ele>993.0</ele><time>2026-04-08T08:36:59.079Z</time></trkpt><trkpt lat="41.9246677" lon="13.6052332"><ele>993.0</ele><time>2026-04-08T08:37:05.096Z</time></trkpt><trkpt lat="41.9247208" lon="13.6051699"><ele>993.0</ele><time>2026-04-08T08:37:11.079Z</time></trkpt><trkpt lat="41.9247695" lon="13.6051043"><ele>993.0</ele><time>2026-04-08T08:37:17.077Z</time></trkpt><trkpt lat="41.9248117" lon="13.6050291"><ele>993.0</ele><time>2026-04-08T08:37:23.06Z</time></trkpt><trkpt lat="41.9248633" lon="13.6049589"><ele>993.0</ele><time>2026-04-08T08:37:29.076Z</time></trkpt><trkpt lat="41.9249247" lon="13.604896"><ele>993.0</ele><time>2026-04-08T08:37:35.083Z</time></trkpt><trkpt lat="41.9249679" lon="13.6048219"><ele>993.0</ele><time>2026-04-08T08:37:41.114Z</time></trkpt><trkpt lat="41.9250129" lon="13.6047483"><ele>993.0</ele><time>2026-04-08T08:37:48.077Z</time></trkpt><trkpt lat="41.925056" lon="13.6046694"><ele>993.0</ele><time>2026-04-08T08:37:54.093Z</time></trkpt><trkpt lat="41.9251144" lon="13.6046204"><ele>993.0</ele><time>2026-04-08T08:38:00.075Z</time></trkpt><trkpt lat="41.9251743" lon="13.6045943"><ele>993.0</ele><time>2026-04-08T08:38:05.073Z</time></trkpt><trkpt lat="41.9252332" lon="13.6045453"><ele>993.0</ele><time>2026-04-08T08:38:11.041Z</time></trkpt><trkpt lat="41.9253029" lon="13.6045191"><ele>993.0</ele><time>2026-04-08T08:38:17.075Z</time></trkpt><trkpt lat="41.9253664" lon="13.6045006"><ele>993.0</ele><time>2026-04-08T08:38:23.079Z</time></trkpt><trkpt lat="41.9254339" lon="13.6044939"><ele>994.0</ele><time>2026-04-08T08:38:30.048Z</time></trkpt><trkpt lat="41.9255053" lon="13.6045026"><ele>995.0</ele><time>2026-04-08T08:38:37.076Z</time></trkpt><trkpt lat="41.9255671" lon="13.604533"><ele>996.0</ele><time>2026-04-08T08:38:42.041Z</time></trkpt><trkpt lat="41.9256361" lon="13.604553"><ele>997.0</ele><time>2026-04-08T08:38:49.078Z</time></trkpt><trkpt lat="41.9257029" lon="13.6045584"><ele>998.0</ele><time>2026-04-08T08:38:55.079Z</time></trkpt><trkpt lat="41.9257746" lon="13.6045593"><ele>999.0</ele><time>2026-04-08T08:39:01.102Z</time></trkpt><trkpt lat="41.9258454" lon="13.6045522"><ele>1000.0</ele><time>2026-04-08T08:39:07.084Z</time></trkpt><trkpt lat="41.9259135" lon="13.6045414"><ele>1001.0</ele><time>2026-04-08T08:39:14.008Z</time></trkpt><trkpt lat="41.9259845" lon="13.6045307"><ele>1002.0</ele><time>2026-04-08T08:39:21.074Z</time></trkpt><trkpt lat="41.9260473" lon="13.604493"><ele>1003.0</ele><time>2026-04-08T08:39:27.066Z</time></trkpt><trkpt lat="41.9261134" lon="13.6044634"><ele>1004.0</ele><time>2026-04-08T08:39:34.031Z</time></trkpt><trkpt lat="41.9261752" lon="13.6044285"><ele>1005.0</ele><time>2026-04-08T08:39:41.074Z</time></trkpt><trkpt lat="41.9262354" lon="13.6043849"><ele>1006.0</ele><time>2026-04-08T08:39:48.088Z</time></trkpt><trkpt lat="41.9262939" lon="13.6043491"><ele>1007.0</ele><time>2026-04-08T08:39:53.119Z</time></trkpt><trkpt lat="41.9263462" lon="13.6042833"><ele>1003.8571428571429</ele><time>2026-04-08T08:39:59.073Z</time></trkpt><trkpt lat="41.926411" lon="13.6042415"><ele>1000.7142857142858</ele><time>2026-04-08T08:40:04.986Z</time></trkpt><trkpt lat="41.9264778" lon="13.6042041"><ele>997.5714285714287</ele><time>2026-04-08T08:40:12.075Z</time></trkpt><trkpt lat="41.9265365" lon="13.6041654"><ele>994.4285714285714</ele><time>2026-04-08T08:40:18.045Z</time></trkpt><trkpt lat="41.9266001" lon="13.6041347"><ele>991.2857142857144</ele><time>2026-04-08T08:40:26.079Z</time></trkpt><trkpt lat="41.9266704" lon="13.6041225"><ele>988.1428571428572</ele><time>2026-04-08T08:40:32.142Z</time></trkpt><trkpt lat="41.9267387" lon="13.6040935"><ele>985.0</ele><time>2026-04-08T08:40:39.098Z</time></trkpt><trkpt lat="41.9267914" lon="13.6040472"><ele>985.0</ele><time>2026-04-08T08:40:45Z</time></trkpt><trkpt lat="41.9268617" lon="13.604022"><ele>985.0000000000001</ele><time>2026-04-08T08:40:52.077Z</time></trkpt><trkpt lat="41.9269228" lon="13.6039894"><ele>985.0</ele><time>2026-04-08T08:40:58.044Z</time></trkpt><trkpt lat="41.9269853" lon="13.6039377"><ele>985.0</ele><time>2026-04-08T08:41:08.075Z</time></trkpt><trkpt lat="41.9270512" lon="13.6039201"><ele>985.0000000000001</ele><time>2026-04-08T08:41:14.107Z</time></trkpt><trkpt lat="41.9271205" lon="13.6038994"><ele>985.0</ele><time>2026-04-08T08:41:21.077Z</time></trkpt><trkpt lat="41.9271882" lon="13.6038748"><ele>985.0</ele><time>2026-04-08T08:41:27.107Z</time></trkpt><trkpt lat="41.9272461" lon="13.6038341"><ele>985.0</ele><time>2026-04-08T08:41:32.074Z</time></trkpt><trkpt lat="41.9273056" lon="13.60378"><ele>985.0000000000001</ele><time>2026-04-08T08:41:39.079Z</time></trkpt><trkpt lat="41.9273612" lon="13.6037196"><ele>985.0</ele><time>2026-04-08T08:41:46.106Z</time></trkpt><trkpt lat="41.9274247" lon="13.6036887"><ele>985.0</ele><time>2026-04-08T08:41:52.027Z</time></trkpt><trkpt lat="41.9274889" lon="13.6036696"><ele>985.0000000000001</ele><time>2026-04-08T08:41:57.075Z</time></trkpt><trkpt lat="41.9275464" lon="13.6036313"><ele>985.0</ele><time>2026-04-08T08:42:03.109Z</time></trkpt><trkpt lat="41.9276063" lon="13.603592"><ele>985.0</ele><time>2026-04-08T08:42:12.076Z</time></trkpt><trkpt lat="41.9276751" lon="13.6035707"><ele>982.1428571428572</ele><time>2026-04-08T08:42:19.041Z</time></trkpt><trkpt lat="41.9277322" lon="13.6035324"><ele>979.2857142857144</ele><time>2026-04-08T08:42:25.077Z</time></trkpt><trkpt lat="41.9277872" lon="13.6034905"><ele>976.4285714285714</ele><time>2026-04-08T08:42:53.067Z</time></trkpt><trkpt lat="41.9278591" lon="13.6034693"><ele>973.5714285714287</ele><time>2026-04-08T08:42:59.076Z</time></trkpt><trkpt lat="41.9279234" lon="13.6034578"><ele>970.7142857142858</ele><time>2026-04-08T08:43:05.101Z</time></trkpt><trkpt lat="41.9279867" lon="13.6034508"><ele>967.8571428571429</ele><time>2026-04-08T08:43:12.078Z</time></trkpt><trkpt lat="41.9280581" lon="13.6034406"><ele>965.0</ele><time>2026-04-08T08:43:18.078Z</time></trkpt><trkpt lat="41.9281215" lon="13.6034287"><ele>965.0</ele><time>2026-04-08T08:43:23.094Z</time></trkpt><trkpt lat="41.9281883" lon="13.6034156"><ele>965.0</ele><time>2026-04-08T08:43:28.075Z</time></trkpt><trkpt lat="41.9282508" lon="13.6033954"><ele>965.0</ele><time>2026-04-08T08:43:33.123Z</time></trkpt><trkpt lat="41.9283174" lon="13.6034127"><ele>965.0</ele><time>2026-04-08T08:43:38.086Z</time></trkpt><trkpt lat="41.9283814" lon="13.6034167"><ele>965.0</ele><time>2026-04-08T08:43:43.06Z</time></trkpt><trkpt lat="41.9284516" lon="13.603401"><ele>965.0</ele><time>2026-04-08T08:43:49.073Z</time></trkpt><trkpt lat="41.9285007" lon="13.6033386"><ele>965.0</ele><time>2026-04-08T08:43:55.088Z</time></trkpt><trkpt lat="41.9285604" lon="13.6033113"><ele>964.4285714285713</ele><time>2026-04-08T08:44:00.999Z</time></trkpt><trkpt lat="41.9286266" lon="13.6032889"><ele>963.8571428571429</ele><time>2026-04-08T08:44:07.081Z</time></trkpt><trkpt lat="41.9286872" lon="13.6032547"><ele>963.2857142857142</ele><time>2026-04-08T08:44:13.098Z</time></trkpt><trkpt lat="41.9287482" lon="13.6032043"><ele>962.7142857142857</ele><time>2026-04-08T08:44:19.08Z</time></trkpt><trkpt lat="41.9288147" lon="13.6031895"><ele>962.1428571428571</ele><time>2026-04-08T08:44:24.967Z</time></trkpt><trkpt lat="41.9288761" lon="13.6031691"><ele>961.5714285714286</ele><time>2026-04-08T08:44:30.103Z</time></trkpt><trkpt lat="41.9289407" lon="13.6031439"><ele>961.0</ele><time>2026-04-08T08:44:36.08Z</time></trkpt><trkpt lat="41.9289888" lon="13.6030703"><ele>961.0</ele><time>2026-04-08T08:44:52.078Z</time></trkpt><trkpt lat="41.9290589" lon="13.6030783"><ele>960.9999999999999</ele><time>2026-04-08T08:44:58.075Z</time></trkpt><trkpt lat="41.9291322" lon="13.6030758"><ele>961.0</ele><time>2026-04-08T08:45:05.104Z</time></trkpt><trkpt lat="41.9292011" lon="13.6030675"><ele>961.0</ele><time>2026-04-08T08:45:12.078Z</time></trkpt><trkpt lat="41.9292679" lon="13.603063"><ele>960.9999999999999</ele><time>2026-04-08T08:45:18.096Z</time></trkpt><trkpt lat="41.9293371" lon="13.603048"><ele>961.0</ele><time>2026-04-08T08:45:24.078Z</time></trkpt><trkpt lat="41.9294005" lon="13.603022"><ele>961.0</ele><time>2026-04-08T08:45:29.109Z</time></trkpt><trkpt lat="41.9294275" lon="13.6029428"><ele>960.8571428571428</ele><time>2026-04-08T08:45:35.099Z</time></trkpt><trkpt lat="41.9294393" lon="13.6028565"><ele>960.7142857142856</ele><time>2026-04-08T08:45:41.062Z</time></trkpt><trkpt lat="41.9294539" lon="13.6027693"><ele>960.5714285714286</ele><time>2026-04-08T08:45:47.08Z</time></trkpt><trkpt lat="41.9294732" lon="13.6026845"><ele>960.4285714285713</ele><time>2026-04-08T08:45:53.109Z</time></trkpt><trkpt lat="41.9294918" lon="13.6026028"><ele>960.2857142857142</ele><time>2026-04-08T08:45:59.077Z</time></trkpt><trkpt lat="41.9295113" lon="13.6025203"><ele>960.1428571428571</ele><time>2026-04-08T08:46:05.081Z</time></trkpt><trkpt lat="41.9295023" lon="13.6024241"><ele>960.0</ele><time>2026-04-08T08:46:11.155Z</time></trkpt><trkpt lat="41.9294989" lon="13.6023283"><ele>961.1428571428571</ele><time>2026-04-08T08:46:18.078Z</time></trkpt><trkpt lat="41.9294911" lon="13.6022308"><ele>962.2857142857142</ele><time>2026-04-08T08:46:25.103Z</time></trkpt><trkpt lat="41.929479" lon="13.6021377"><ele>963.4285714285713</ele><time>2026-04-08T08:46:31.072Z</time></trkpt><trkpt lat="41.9294732" lon="13.6020524"><ele>964.5714285714286</ele><time>2026-04-08T08:46:36.075Z</time></trkpt><trkpt lat="41.9294759" lon="13.6019549"><ele>965.7142857142856</ele><time>2026-04-08T08:46:42.022Z</time></trkpt><trkpt lat="41.9295072" lon="13.6018663"><ele>966.8571428571428</ele><time>2026-04-08T08:46:48.007Z</time></trkpt><trkpt lat="41.9294924" lon="13.6017829"><ele>968.0</ele><time>2026-04-08T08:46:53.073Z</time></trkpt><trkpt lat="41.9294912" lon="13.6016938"><ele>968.2857142857142</ele><time>2026-04-08T08:46:59.063Z</time></trkpt><trkpt lat="41.9294995" lon="13.6016062"><ele>968.5714285714284</ele><time>2026-04-08T08:47:05.073Z</time></trkpt><trkpt lat="41.9295087" lon="13.6015118"><ele>968.8571428571429</ele><time>2026-04-08T08:47:11.082Z</time></trkpt><trkpt lat="41.9295023" lon="13.6014269"><ele>969.1428571428571</ele><time>2026-04-08T08:47:16.066Z</time></trkpt><trkpt lat="41.9295243" lon="13.6013381"><ele>969.4285714285714</ele><time>2026-04-08T08:47:22.077Z</time></trkpt><trkpt lat="41.9295269" lon="13.6012489"><ele>969.7142857142858</ele><time>2026-04-08T08:47:28.086Z</time></trkpt><trkpt lat="41.9295375" lon="13.6011627"><ele>970.0000000000001</ele><time>2026-04-08T08:47:34.121Z</time></trkpt><trkpt lat="41.9295446" lon="13.6010758"><ele>969.2857142857144</ele><time>2026-04-08T08:47:40.103Z</time></trkpt><trkpt lat="41.9295433" lon="13.6009858"><ele>968.5714285714287</ele><time>2026-04-08T08:47:46.094Z</time></trkpt><trkpt lat="41.9295518" lon="13.6008847"><ele>967.8571428571429</ele><time>2026-04-08T08:48:39.075Z</time></trkpt><trkpt lat="41.9295666" lon="13.6007912"><ele>967.1428571428572</ele><time>2026-04-08T08:48:46.075Z</time></trkpt><trkpt lat="41.9295528" lon="13.6008792"><ele>966.4285714285716</ele><time>2026-04-08T08:49:41.074Z</time></trkpt><trkpt lat="41.929533" lon="13.6009703"><ele>965.7142857142857</ele><time>2026-04-08T08:49:47.102Z</time></trkpt><trkpt lat="41.9295001" lon="13.6010482"><ele>965.0</ele><time>2026-04-08T08:49:54.076Z</time></trkpt><trkpt lat="41.9294946" lon="13.6011457"><ele>965.7142857142857</ele><time>2026-04-08T08:50:00.082Z</time></trkpt><trkpt lat="41.9294872" lon="13.6012349"><ele>966.4285714285716</ele><time>2026-04-08T08:50:06.085Z</time></trkpt><trkpt lat="41.9294823" lon="13.6013328"><ele>967.1428571428572</ele><time>2026-04-08T08:50:12.062Z</time></trkpt><trkpt lat="41.9294703" lon="13.6014178"><ele>967.8571428571429</ele><time>2026-04-08T08:50:17.025Z</time></trkpt><trkpt lat="41.9294573" lon="13.6015039"><ele>968.5714285714287</ele><time>2026-04-08T08:50:24.077Z</time></trkpt><trkpt lat="41.9294408" lon="13.6015967"><ele>969.2857142857144</ele><time>2026-04-08T08:50:30.041Z</time></trkpt><trkpt lat="41.9294341" lon="13.6016901"><ele>970.0000000000001</ele><time>2026-04-08T08:50:36.048Z</time></trkpt><trkpt lat="41.9294405" lon="13.6017862"><ele>970.0000000000001</ele><time>2026-04-08T08:50:42.046Z</time></trkpt><trkpt lat="41.9294643" lon="13.6018715"><ele>970.0</ele><time>2026-04-08T08:50:48.062Z</time></trkpt><trkpt lat="41.9294396" lon="13.6019526"><ele>970.0000000000001</ele><time>2026-04-08T08:50:54.067Z</time></trkpt><trkpt lat="41.9294357" lon="13.6020454"><ele>970.0000000000001</ele><time>2026-04-08T08:51:00.075Z</time></trkpt><trkpt lat="41.9294418" lon="13.6021448"><ele>970.0</ele><time>2026-04-08T08:51:06.086Z</time></trkpt><trkpt lat="41.9294608" lon="13.60223"><ele>970.0000000000001</ele><time>2026-04-08T08:51:12.074Z</time></trkpt><trkpt lat="41.9294726" lon="13.6023164"><ele>970.0000000000001</ele><time>2026-04-08T08:51:18.024Z</time></trkpt><trkpt lat="41.9294687" lon="13.602406"><ele>969.7142857142858</ele><time>2026-04-08T08:51:24.042Z</time></trkpt><trkpt lat="41.9294757" lon="13.6024921"><ele>969.4285714285714</ele><time>2026-04-08T08:51:30.075Z</time></trkpt><trkpt lat="41.9294666" lon="13.6025798"><ele>969.1428571428571</ele><time>2026-04-08T08:51:37.077Z</time></trkpt><trkpt lat="41.9294439" lon="13.6026658"><ele>968.8571428571429</ele><time>2026-04-08T08:51:44.075Z</time></trkpt><trkpt lat="41.9294519" lon="13.602757"><ele>968.5714285714284</ele><time>2026-04-08T08:51:51.047Z</time></trkpt><trkpt lat="41.9294678" lon="13.6028476"><ele>968.2857142857142</ele><time>2026-04-08T08:51:58.104Z</time></trkpt><trkpt lat="41.9295087" lon="13.602943"><ele>968.0</ele><time>2026-04-08T09:03:41.072Z</time></trkpt><trkpt lat="41.9294646" lon="13.6030085"><ele>966.8571428571428</ele><time>2026-04-08T09:03:47.072Z</time></trkpt><trkpt lat="41.9294589" lon="13.6031045"><ele>965.7142857142856</ele><time>2026-04-08T09:03:54.076Z</time></trkpt><trkpt lat="41.9295058" lon="13.6031788"><ele>964.5714285714286</ele><time>2026-04-08T09:04:01.074Z</time></trkpt><trkpt lat="41.9295757" lon="13.6032112"><ele>963.4285714285713</ele><time>2026-04-08T09:04:08.073Z</time></trkpt><trkpt lat="41.9296405" lon="13.6032606"><ele>962.2857142857142</ele><time>2026-04-08T09:04:14.059Z</time></trkpt><trkpt lat="41.9296935" lon="13.603307"><ele>961.1428571428571</ele><time>2026-04-08T09:04:20.071Z</time></trkpt><trkpt lat="41.9297534" lon="13.6033508"><ele>960.0</ele><time>2026-04-08T09:04:26.858Z</time></trkpt><trkpt lat="41.929815" lon="13.6033961"><ele>960.0</ele><time>2026-04-08T09:04:34.07Z</time></trkpt><trkpt lat="41.9298555" lon="13.6034626"><ele>960.0</ele><time>2026-04-08T09:04:40.074Z</time></trkpt><trkpt lat="41.9298896" lon="13.60354"><ele>960.0</ele><time>2026-04-08T09:04:46.111Z</time></trkpt><trkpt lat="41.9299221" lon="13.603621"><ele>960.0</ele><time>2026-04-08T09:04:52.074Z</time></trkpt><trkpt lat="41.9299645" lon="13.6036975"><ele>960.0</ele><time>2026-04-08T09:04:58.121Z</time></trkpt><trkpt lat="41.9300152" lon="13.6037524"><ele>960.0</ele><time>2026-04-08T09:05:04.073Z</time></trkpt><trkpt lat="41.9300599" lon="13.6038223"><ele>960.0</ele><time>2026-04-08T09:05:10.074Z</time></trkpt><trkpt lat="41.9300963" lon="13.6039133"><ele>959.0</ele><time>2026-04-08T09:05:17.103Z</time></trkpt><trkpt lat="41.9301323" lon="13.6039903"><ele>958.0</ele><time>2026-04-08T09:05:23.072Z</time></trkpt><trkpt lat="41.9301885" lon="13.6040439"><ele>957.0</ele><time>2026-04-08T09:05:29.105Z</time></trkpt><trkpt lat="41.9302443" lon="13.6040945"><ele>956.0</ele><time>2026-04-08T09:05:35.115Z</time></trkpt><trkpt lat="41.9302992" lon="13.6041434"><ele>955.0</ele><time>2026-04-08T09:05:41.066Z</time></trkpt><trkpt lat="41.9303589" lon="13.604176"><ele>954.0</ele><time>2026-04-08T09:05:47.089Z</time></trkpt><trkpt lat="41.9304209" lon="13.6041915"><ele>953.0</ele><time>2026-04-08T09:05:53.074Z</time></trkpt><trkpt lat="41.9304905" lon="13.6042123"><ele>953.0</ele><time>2026-04-08T09:06:00.106Z</time></trkpt><trkpt lat="41.9305475" lon="13.6042584"><ele>953.0</ele><time>2026-04-08T09:06:06.072Z</time></trkpt><trkpt lat="41.9305959" lon="13.6043184"><ele>953.0</ele><time>2026-04-08T09:06:14.075Z</time></trkpt><trkpt lat="41.9306378" lon="13.6043972"><ele>953.0</ele><time>2026-04-08T09:06:25.039Z</time></trkpt><trkpt lat="41.9306835" lon="13.6044564"><ele>953.0</ele><time>2026-04-08T09:06:32.072Z</time></trkpt><trkpt lat="41.9307307" lon="13.6045158"><ele>953.0</ele><time>2026-04-08T09:06:40.072Z</time></trkpt><trkpt lat="41.9307712" lon="13.6045904"><ele>953.0</ele><time>2026-04-08T09:06:47.859Z</time></trkpt><trkpt lat="41.9308204" lon="13.6046622"><ele>952.0</ele><time>2026-04-08T09:06:55.124Z</time></trkpt><trkpt lat="41.9308664" lon="13.604728"><ele>951.0</ele><time>2026-04-08T09:07:01.07Z</time></trkpt><trkpt lat="41.9308976" lon="13.6048082"><ele>950.0</ele><time>2026-04-08T09:07:07.083Z</time></trkpt><trkpt lat="41.9309181" lon="13.6048984"><ele>949.0</ele><time>2026-04-08T09:07:13.074Z</time></trkpt><trkpt lat="41.9309525" lon="13.6049821"><ele>948.0</ele><time>2026-04-08T09:07:19.074Z</time></trkpt><trkpt lat="41.9309982" lon="13.6050489"><ele>947.0</ele><time>2026-04-08T09:07:25.094Z</time></trkpt><trkpt lat="41.9310495" lon="13.6050986"><ele>946.0</ele><time>2026-04-08T09:07:31.075Z</time></trkpt><trkpt lat="41.9311004" lon="13.6051593"><ele>945.5714285714287</ele><time>2026-04-08T09:07:37.122Z</time></trkpt><trkpt lat="41.9311388" lon="13.6052361"><ele>945.1428571428571</ele><time>2026-04-08T09:07:43.071Z</time></trkpt><trkpt lat="41.9311943" lon="13.6052985"><ele>944.7142857142858</ele><time>2026-04-08T09:07:50.073Z</time></trkpt><trkpt lat="41.931233" lon="13.6053766"><ele>944.2857142857143</ele><time>2026-04-08T09:07:56.084Z</time></trkpt><trkpt lat="41.9312668" lon="13.6054607"><ele>943.8571428571429</ele><time>2026-04-08T09:08:02.074Z</time></trkpt><trkpt lat="41.9313003" lon="13.6055373"><ele>943.4285714285714</ele><time>2026-04-08T09:08:08.072Z</time></trkpt><trkpt lat="41.9313258" lon="13.6056181"><ele>943.0</ele><time>2026-04-08T09:08:14.041Z</time></trkpt><trkpt lat="41.9313614" lon="13.6056976"><ele>942.1428571428572</ele><time>2026-04-08T09:08:20.071Z</time></trkpt><trkpt lat="41.9314005" lon="13.6057713"><ele>941.2857142857144</ele><time>2026-04-08T09:08:26.074Z</time></trkpt><trkpt lat="41.9314367" lon="13.6058533"><ele>940.4285714285714</ele><time>2026-04-08T09:08:32.101Z</time></trkpt><trkpt lat="41.9314659" lon="13.6059373"><ele>939.5714285714287</ele><time>2026-04-08T09:08:38.073Z</time></trkpt><trkpt lat="41.9315042" lon="13.6060172"><ele>938.7142857142858</ele><time>2026-04-08T09:08:44.081Z</time></trkpt><trkpt lat="41.9315393" lon="13.6061013"><ele>937.8571428571429</ele><time>2026-04-08T09:08:50.004Z</time></trkpt><trkpt lat="41.9315783" lon="13.6061855"><ele>937.0</ele><time>2026-04-08T09:08:56.07Z</time></trkpt><trkpt lat="41.9316095" lon="13.6062748"><ele>936.7142857142857</ele><time>2026-04-08T09:09:02.091Z</time></trkpt><trkpt lat="41.9316371" lon="13.6063678"><ele>936.4285714285716</ele><time>2026-04-08T09:09:08.071Z</time></trkpt><trkpt lat="41.9316714" lon="13.6064527"><ele>936.1428571428572</ele><time>2026-04-08T09:09:14.071Z</time></trkpt><trkpt lat="41.9317012" lon="13.6065421"><ele>935.8571428571429</ele><time>2026-04-08T09:09:20.057Z</time></trkpt><trkpt lat="41.9317383" lon="13.606627"><ele>935.5714285714287</ele><time>2026-04-08T09:09:26.071Z</time></trkpt><trkpt lat="41.9317677" lon="13.6067092"><ele>935.2857142857144</ele><time>2026-04-08T09:09:31.98Z</time></trkpt><trkpt lat="41.931811" lon="13.6067784"><ele>935.0000000000001</ele><time>2026-04-08T09:09:38.113Z</time></trkpt><trkpt lat="41.931839" lon="13.6068634"><ele>935.4285714285716</ele><time>2026-04-08T09:09:44.065Z</time></trkpt><trkpt lat="41.9318724" lon="13.6069442"><ele>935.8571428571429</ele><time>2026-04-08T09:09:50.087Z</time></trkpt><trkpt lat="41.9318989" lon="13.6070344"><ele>936.2857142857143</ele><time>2026-04-08T09:09:56.071Z</time></trkpt><trkpt lat="41.9319228" lon="13.6071203"><ele>936.7142857142858</ele><time>2026-04-08T09:10:02.071Z</time></trkpt><trkpt lat="41.9319414" lon="13.6072085"><ele>937.1428571428571</ele><time>2026-04-08T09:10:08.078Z</time></trkpt><trkpt lat="41.9319693" lon="13.6072874"><ele>937.5714285714286</ele><time>2026-04-08T09:10:14.073Z</time></trkpt><trkpt lat="41.9319889" lon="13.6073729"><ele>938.0</ele><time>2026-04-08T09:10:20.073Z</time></trkpt><trkpt lat="41.9320115" lon="13.607454"><ele>938.0</ele><time>2026-04-08T09:10:26.109Z</time></trkpt><trkpt lat="41.9320373" lon="13.6075466"><ele>938.0</ele><time>2026-04-08T09:10:33.057Z</time></trkpt><trkpt lat="41.9320763" lon="13.6076229"><ele>938.0</ele><time>2026-04-08T09:10:39.043Z</time></trkpt><trkpt lat="41.932111" lon="13.6076953"><ele>938.0</ele><time>2026-04-08T09:10:45.02Z</time></trkpt><trkpt lat="41.9321202" lon="13.6077854"><ele>938.0</ele><time>2026-04-08T09:10:51.018Z</time></trkpt><trkpt lat="41.9321099" lon="13.607869"><ele>938.0</ele><time>2026-04-08T09:10:56.094Z</time></trkpt><trkpt lat="41.9321291" lon="13.6079572"><ele>938.0</ele><time>2026-04-08T09:11:02.074Z</time></trkpt><trkpt lat="41.9321602" lon="13.6080387"><ele>937.8571428571429</ele><time>2026-04-08T09:11:08.043Z</time></trkpt><trkpt lat="41.9321923" lon="13.6081274"><ele>937.7142857142858</ele><time>2026-04-08T09:11:15.112Z</time></trkpt><trkpt lat="41.9322268" lon="13.6082001"><ele>937.5714285714286</ele><time>2026-04-08T09:11:21.069Z</time></trkpt><trkpt lat="41.9322582" lon="13.6082802"><ele>937.4285714285714</ele><time>2026-04-08T09:11:26.978Z</time></trkpt><trkpt lat="41.9322995" lon="13.6083542"><ele>937.2857142857143</ele><time>2026-04-08T09:11:33.07Z</time></trkpt><trkpt lat="41.9323351" lon="13.6084338"><ele>937.1428571428571</ele><time>2026-04-08T09:11:39.045Z</time></trkpt><trkpt lat="41.9323585" lon="13.6085177"><ele>937.0</ele><time>2026-04-08T09:11:45.095Z</time></trkpt><trkpt lat="41.9323915" lon="13.6085919"><ele>936.8571428571429</ele><time>2026-04-08T09:11:51.075Z</time></trkpt><trkpt lat="41.9324288" lon="13.6086737"><ele>936.7142857142858</ele><time>2026-04-08T09:11:57.07Z</time></trkpt><trkpt lat="41.9324523" lon="13.6087581"><ele>936.5714285714287</ele><time>2026-04-08T09:12:03.074Z</time></trkpt><trkpt lat="41.9324837" lon="13.6088428"><ele>936.4285714285714</ele><time>2026-04-08T09:12:09.119Z</time></trkpt><trkpt lat="41.9324951" lon="13.608929"><ele>936.2857142857144</ele><time>2026-04-08T09:12:14.986Z</time></trkpt><trkpt lat="41.9324867" lon="13.6090188"><ele>936.1428571428572</ele><time>2026-04-08T09:12:21.069Z</time></trkpt><trkpt lat="41.9324772" lon="13.6091084"><ele>936.0</ele><time>2026-04-08T09:12:27.018Z</time></trkpt><trkpt lat="41.9324656" lon="13.6092071"><ele>936.0</ele><time>2026-04-08T09:12:33.092Z</time></trkpt><trkpt lat="41.9324331" lon="13.6092872"><ele>936.0000000000001</ele><time>2026-04-08T09:12:38.07Z</time></trkpt><trkpt lat="41.9323987" lon="13.6093738"><ele>936.0</ele><time>2026-04-08T09:12:44.069Z</time></trkpt><trkpt lat="41.9323593" lon="13.6094585"><ele>936.0</ele><time>2026-04-08T09:12:50.097Z</time></trkpt><trkpt lat="41.9323295" lon="13.6095354"><ele>936.0000000000001</ele><time>2026-04-08T09:12:56.073Z</time></trkpt><trkpt lat="41.9323242" lon="13.6096212"><ele>936.0</ele><time>2026-04-08T09:13:02.046Z</time></trkpt><trkpt lat="41.9322863" lon="13.6097054"><ele>936.0</ele><time>2026-04-08T09:13:09.073Z</time></trkpt><trkpt lat="41.9322314" lon="13.6097588"><ele>936.4285714285714</ele><time>2026-04-08T09:13:15.075Z</time></trkpt><trkpt lat="41.9322285" lon="13.6098457"><ele>936.8571428571429</ele><time>2026-04-08T09:13:21.084Z</time></trkpt><trkpt lat="41.9322512" lon="13.6099395"><ele>937.2857142857143</ele><time>2026-04-08T09:13:28.066Z</time></trkpt><trkpt lat="41.9322505" lon="13.6100261"><ele>937.7142857142858</ele><time>2026-04-08T09:13:34.074Z</time></trkpt><trkpt lat="41.9322319" lon="13.6101083"><ele>938.1428571428571</ele><time>2026-04-08T09:13:40.039Z</time></trkpt><trkpt lat="41.9321979" lon="13.6101884"><ele>938.5714285714287</ele><time>2026-04-08T09:13:48.054Z</time></trkpt><trkpt lat="41.9322132" lon="13.6102798"><ele>939.0</ele><time>2026-04-08T09:13:58.071Z</time></trkpt><trkpt lat="41.932252" lon="13.6103484"><ele>941.2857142857143</ele><time>2026-04-08T09:14:09.084Z</time></trkpt><trkpt lat="41.9322852" lon="13.6104235"><ele>943.5714285714284</ele><time>2026-04-08T09:14:20.072Z</time></trkpt><trkpt lat="41.9323079" lon="13.6105052"><ele>945.8571428571428</ele><time>2026-04-08T09:14:30.113Z</time></trkpt><trkpt lat="41.9322813" lon="13.6105867"><ele>948.1428571428571</ele><time>2026-04-08T09:15:20.072Z</time></trkpt><trkpt lat="41.9322527" lon="13.6106689"><ele>950.4285714285713</ele><time>2026-04-08T09:15:31.089Z</time></trkpt><trkpt lat="41.9322086" lon="13.6107347"><ele>952.7142857142856</ele><time>2026-04-08T09:15:41.075Z</time></trkpt><trkpt lat="41.932157" lon="13.6107858"><ele>954.9999999999999</ele><time>2026-04-08T09:15:50.107Z</time></trkpt><trkpt lat="41.932109" lon="13.6108471"><ele>954.9999999999999</ele><time>2026-04-08T09:15:59.074Z</time></trkpt><trkpt lat="41.9320687" lon="13.6109145"><ele>955.0</ele><time>2026-04-08T09:16:08.072Z</time></trkpt><trkpt lat="41.932005" lon="13.6109535"><ele>954.9999999999999</ele><time>2026-04-08T09:16:18.079Z</time></trkpt><trkpt lat="41.9319743" lon="13.6110375"><ele>954.9999999999999</ele><time>2026-04-08T09:16:26.129Z</time></trkpt><trkpt lat="41.931938" lon="13.6111107"><ele>955.0</ele><time>2026-04-08T09:17:13.071Z</time></trkpt><trkpt lat="41.9319072" lon="13.6111927"><ele>954.9999999999999</ele><time>2026-04-08T09:17:22.073Z</time></trkpt><trkpt lat="41.9319065" lon="13.6112841"><ele>954.9999999999999</ele><time>2026-04-08T09:17:34.984Z</time></trkpt><trkpt lat="41.9319483" lon="13.6113491"><ele>958.2857142857142</ele><time>2026-04-08T09:17:48.018Z</time></trkpt><trkpt lat="41.9319886" lon="13.6114229"><ele>961.5714285714286</ele><time>2026-04-08T09:17:58.095Z</time></trkpt><trkpt lat="41.9320071" lon="13.6115066"><ele>964.8571428571429</ele><time>2026-04-08T09:18:07.07Z</time></trkpt><trkpt lat="41.932018" lon="13.6115903"><ele>968.1428571428571</ele><time>2026-04-08T09:18:52.069Z</time></trkpt><trkpt lat="41.9320802" lon="13.6116377"><ele>971.4285714285716</ele><time>2026-04-08T09:19:03.096Z</time></trkpt><trkpt lat="41.9321429" lon="13.6116465"><ele>974.7142857142858</ele><time>2026-04-08T09:19:13.073Z</time></trkpt><trkpt lat="41.9321873" lon="13.6117102"><ele>978.0</ele><time>2026-04-08T09:19:24.071Z</time></trkpt><trkpt lat="41.9322507" lon="13.6117479"><ele>978.0</ele><time>2026-04-08T09:19:33.081Z</time></trkpt><trkpt lat="41.9323048" lon="13.6117991"><ele>978.0000000000001</ele><time>2026-04-08T09:19:43.07Z</time></trkpt><trkpt lat="41.932346" lon="13.6118754"><ele>978.0</ele><time>2026-04-08T09:19:52.023Z</time></trkpt><trkpt lat="41.9323627" lon="13.6119594"><ele>978.0</ele><time>2026-04-08T09:20:47.069Z</time></trkpt><trkpt lat="41.9324268" lon="13.6119907"><ele>978.0000000000001</ele><time>2026-04-08T09:20:57.073Z</time></trkpt><trkpt lat="41.9324906" lon="13.6119936"><ele>978.0</ele><time>2026-04-08T09:21:06.07Z</time></trkpt><trkpt lat="41.9325495" lon="13.6120417"><ele>978.0</ele><time>2026-04-08T09:21:16.115Z</time></trkpt><trkpt lat="41.9325993" lon="13.612107"><ele>980.5714285714287</ele><time>2026-04-08T09:21:26.075Z</time></trkpt><trkpt lat="41.9326452" lon="13.6121663"><ele>983.1428571428572</ele><time>2026-04-08T09:21:34.059Z</time></trkpt><trkpt lat="41.9326959" lon="13.6122233"><ele>985.7142857142858</ele><time>2026-04-08T09:21:43.08Z</time></trkpt><trkpt lat="41.9327523" lon="13.6122773"><ele>988.2857142857142</ele><time>2026-04-08T09:22:40.07Z</time></trkpt><trkpt lat="41.9328124" lon="13.6123105"><ele>990.8571428571428</ele><time>2026-04-08T09:22:47.074Z</time></trkpt><trkpt lat="41.9328533" lon="13.6123854"><ele>993.4285714285713</ele><time>2026-04-08T09:22:55.071Z</time></trkpt><trkpt lat="41.9329113" lon="13.612433"><ele>996.0</ele><time>2026-04-08T09:23:04.079Z</time></trkpt><trkpt lat="41.9329519" lon="13.6125109"><ele>996.0</ele><time>2026-04-08T09:23:13.001Z</time></trkpt><trkpt lat="41.9329962" lon="13.6125765"><ele>995.9999999999999</ele><time>2026-04-08T09:23:20.979Z</time></trkpt><trkpt lat="41.9330469" lon="13.6126458"><ele>996.0</ele><time>2026-04-08T09:23:30.069Z</time></trkpt><trkpt lat="41.9331033" lon="13.6126867"><ele>996.0</ele><time>2026-04-08T09:24:17.07Z</time></trkpt><trkpt lat="41.9331398" lon="13.6127778"><ele>995.9999999999999</ele><time>2026-04-08T09:24:27.065Z</time></trkpt><trkpt lat="41.9331845" lon="13.6128396"><ele>996.0</ele><time>2026-04-08T09:24:36.068Z</time></trkpt><trkpt lat="41.9332322" lon="13.6129028"><ele>996.0</ele><time>2026-04-08T09:24:46.069Z</time></trkpt><trkpt lat="41.9332667" lon="13.6129817"><ele>997.0</ele><time>2026-04-08T09:24:55.072Z</time></trkpt><trkpt lat="41.9332928" lon="13.6130605"><ele>997.9999999999999</ele><time>2026-04-08T09:25:02.08Z</time></trkpt><trkpt lat="41.933346" lon="13.6131179"><ele>999.0</ele><time>2026-04-08T09:25:12.072Z</time></trkpt><trkpt lat="41.9333947" lon="13.6131754"><ele>1000.0</ele><time>2026-04-08T09:25:23.07Z</time></trkpt><trkpt lat="41.9333894" lon="13.6132692"><ele>1000.9999999999999</ele><time>2026-04-08T09:25:31.085Z</time></trkpt><trkpt lat="41.9334242" lon="13.6133399"><ele>1002.0</ele><time>2026-04-08T09:27:51.069Z</time></trkpt><trkpt lat="41.9334678" lon="13.6134138"><ele>1003.0</ele><time>2026-04-08T09:28:00.998Z</time></trkpt><trkpt lat="41.9335038" lon="13.6134947"><ele>1003.0</ele><time>2026-04-08T09:28:09.071Z</time></trkpt><trkpt lat="41.9335497" lon="13.6135571"><ele>1002.9999999999999</ele><time>2026-04-08T09:28:17.068Z</time></trkpt><trkpt lat="41.9335997" lon="13.613611"><ele>1003.0</ele><time>2026-04-08T09:28:25.064Z</time></trkpt><trkpt lat="41.9336478" lon="13.6136795"><ele>1003.0</ele><time>2026-04-08T09:28:33.067Z</time></trkpt><trkpt lat="41.9336877" lon="13.6137478"><ele>1002.9999999999999</ele><time>2026-04-08T09:28:40.07Z</time></trkpt><trkpt lat="41.9337315" lon="13.6138175"><ele>1003.0</ele><time>2026-04-08T09:28:47.981Z</time></trkpt><trkpt lat="41.9337377" lon="13.6139083"><ele>1003.0</ele><time>2026-04-08T09:28:56.073Z</time></trkpt><trkpt lat="41.9336988" lon="13.6139767"><ele>1005.7142857142857</ele><time>2026-04-08T09:29:04.096Z</time></trkpt><trkpt lat="41.933666" lon="13.6140521"><ele>1008.4285714285713</ele><time>2026-04-08T09:29:14.021Z</time></trkpt><trkpt lat="41.933691" lon="13.6141391"><ele>1011.1428571428571</ele><time>2026-04-08T09:29:51.071Z</time></trkpt><trkpt lat="41.9336961" lon="13.6142313"><ele>1013.8571428571429</ele><time>2026-04-08T09:30:00.121Z</time></trkpt><trkpt lat="41.9336467" lon="13.6142845"><ele>1016.5714285714286</ele><time>2026-04-08T09:30:08.084Z</time></trkpt><trkpt lat="41.9335917" lon="13.6143422"><ele>1019.2857142857142</ele><time>2026-04-08T09:30:17.111Z</time></trkpt><trkpt lat="41.9335605" lon="13.6144239"><ele>1022.0</ele><time>2026-04-08T09:30:25.061Z</time></trkpt><trkpt lat="41.9335156" lon="13.6144905"><ele>1023.4285714285714</ele><time>2026-04-08T09:30:33.069Z</time></trkpt><trkpt lat="41.9334571" lon="13.6145242"><ele>1024.857142857143</ele><time>2026-04-08T09:30:42.091Z</time></trkpt><trkpt lat="41.9333926" lon="13.6145378"><ele>1026.2857142857142</ele><time>2026-04-08T09:30:51.072Z</time></trkpt><trkpt lat="41.9333421" lon="13.6146022"><ele>1027.7142857142858</ele><time>2026-04-08T09:30:59.125Z</time></trkpt><trkpt lat="41.933284" lon="13.6146516"><ele>1029.142857142857</ele><time>2026-04-08T09:31:06.072Z</time></trkpt><trkpt lat="41.9332151" lon="13.6146782"><ele>1030.5714285714284</ele><time>2026-04-08T09:31:13.157Z</time></trkpt><trkpt lat="41.9331495" lon="13.6146694"><ele>1032.0</ele><time>2026-04-08T09:31:19.071Z</time></trkpt><trkpt lat="41.9330867" lon="13.614637"><ele>1032.5714285714284</ele><time>2026-04-08T09:31:25.137Z</time></trkpt><trkpt lat="41.9330296" lon="13.614596"><ele>1033.142857142857</ele><time>2026-04-08T09:31:31.088Z</time></trkpt><trkpt lat="41.9329705" lon="13.6145545"><ele>1033.7142857142858</ele><time>2026-04-08T09:31:38.016Z</time></trkpt><trkpt lat="41.9329068" lon="13.6145225"><ele>1034.2857142857142</ele><time>2026-04-08T09:31:44.107Z</time></trkpt><trkpt lat="41.9328392" lon="13.6144864"><ele>1034.857142857143</ele><time>2026-04-08T09:31:51.068Z</time></trkpt><trkpt lat="41.9327815" lon="13.614452"><ele>1035.4285714285713</ele><time>2026-04-08T09:31:56.067Z</time></trkpt><trkpt lat="41.9327202" lon="13.6144262"><ele>1036.0</ele><time>2026-04-08T09:32:02.022Z</time></trkpt><trkpt lat="41.9326549" lon="13.6144209"><ele>1036.0</ele><time>2026-04-08T09:32:08.119Z</time></trkpt><trkpt lat="41.9325871" lon="13.6144242"><ele>1036.0</ele><time>2026-04-08T09:32:14.068Z</time></trkpt><trkpt lat="41.932528" lon="13.6144616"><ele>1036.0</ele><time>2026-04-08T09:32:21.091Z</time></trkpt><trkpt lat="41.9324596" lon="13.6144732"><ele>1036.0</ele><time>2026-04-08T09:32:28.071Z</time></trkpt><trkpt lat="41.9324015" lon="13.6145199"><ele>1036.0</ele><time>2026-04-08T09:32:36.083Z</time></trkpt><trkpt lat="41.9323501" lon="13.6145707"><ele>1036.0</ele><time>2026-04-08T09:32:43.071Z</time></trkpt><trkpt lat="41.93228" lon="13.6145724"><ele>1036.0</ele><time>2026-04-08T09:32:50.07Z</time></trkpt><trkpt lat="41.9322154" lon="13.6145885"><ele>1036.5714285714287</ele><time>2026-04-08T09:32:59.056Z</time></trkpt><trkpt lat="41.932154" lon="13.6146365"><ele>1037.142857142857</ele><time>2026-04-08T09:33:07.07Z</time></trkpt><trkpt lat="41.9321003" lon="13.6146875"><ele>1037.7142857142858</ele><time>2026-04-08T09:33:15.07Z</time></trkpt><trkpt lat="41.9320539" lon="13.6147553"><ele>1038.2857142857142</ele><time>2026-04-08T09:33:23.068Z</time></trkpt><trkpt lat="41.9320104" lon="13.6148245"><ele>1038.857142857143</ele><time>2026-04-08T09:33:31.073Z</time></trkpt><trkpt lat="41.9319691" lon="13.6149032"><ele>1039.4285714285716</ele><time>2026-04-08T09:33:39.067Z</time></trkpt><trkpt lat="41.9319287" lon="13.6149737"><ele>1040.0</ele><time>2026-04-08T09:33:46.07Z</time></trkpt><trkpt lat="41.9318688" lon="13.6150224"><ele>1040.0000000000002</ele><time>2026-04-08T09:33:54.07Z</time></trkpt><trkpt lat="41.9318147" lon="13.6150788"><ele>1040.0</ele><time>2026-04-08T09:34:03.067Z</time></trkpt><trkpt lat="41.9317474" lon="13.6150802"><ele>1040.0</ele><time>2026-04-08T09:34:11.068Z</time></trkpt><trkpt lat="41.9316865" lon="13.6151046"><ele>1040.0</ele><time>2026-04-08T09:34:51.069Z</time></trkpt><trkpt lat="41.9316184" lon="13.6151268"><ele>1040.0</ele><time>2026-04-08T09:34:58.068Z</time></trkpt><trkpt lat="41.9315778" lon="13.6151983"><ele>1040.0000000000002</ele><time>2026-04-08T09:35:06.038Z</time></trkpt><trkpt lat="41.931519" lon="13.615236"><ele>1040.0</ele><time>2026-04-08T09:35:13.034Z</time></trkpt><trkpt lat="41.9314756" lon="13.6153014"><ele>1042.7142857142858</ele><time>2026-04-08T09:35:19.977Z</time></trkpt><trkpt lat="41.9314809" lon="13.6153879"><ele>1045.4285714285716</ele><time>2026-04-08T09:35:27.019Z</time></trkpt><trkpt lat="41.9314658" lon="13.6154703"><ele>1048.142857142857</ele><time>2026-04-08T09:35:34.07Z</time></trkpt><trkpt lat="41.9314147" lon="13.6155254"><ele>1050.857142857143</ele><time>2026-04-08T09:35:43.116Z</time></trkpt><trkpt lat="41.9313507" lon="13.6155531"><ele>1053.5714285714284</ele><time>2026-04-08T09:35:53.078Z</time></trkpt><trkpt lat="41.9312842" lon="13.6155364"><ele>1056.2857142857142</ele><time>2026-04-08T09:36:42.07Z</time></trkpt><trkpt lat="41.9312236" lon="13.6155622"><ele>1059.0</ele><time>2026-04-08T09:36:52.068Z</time></trkpt><trkpt lat="41.9311579" lon="13.6155645"><ele>1059.0</ele><time>2026-04-08T09:37:00.082Z</time></trkpt><trkpt lat="41.9310944" lon="13.6155603"><ele>1059.0</ele><time>2026-04-08T09:37:09.069Z</time></trkpt><trkpt lat="41.9310254" lon="13.6155684"><ele>1059.0</ele><time>2026-04-08T09:37:19.069Z</time></trkpt><trkpt lat="41.9309642" lon="13.6155471"><ele>1059.0</ele><time>2026-04-08T09:38:10.07Z</time></trkpt><trkpt lat="41.9309045" lon="13.61559"><ele>1059.0</ele><time>2026-04-08T09:38:25.998Z</time></trkpt><trkpt lat="41.9308366" lon="13.6155882"><ele>1059.0</ele><time>2026-04-08T09:38:35.067Z</time></trkpt><trkpt lat="41.9307668" lon="13.6155716"><ele>1059.0</ele><time>2026-04-08T09:38:44.114Z</time></trkpt><trkpt lat="41.9307012" lon="13.6155687"><ele>1062.4285714285713</ele><time>2026-04-08T09:38:51.069Z</time></trkpt><trkpt lat="41.9306399" lon="13.6155362"><ele>1065.8571428571427</ele><time>2026-04-08T09:39:01.116Z</time></trkpt><trkpt lat="41.9305721" lon="13.6155289"><ele>1069.2857142857142</ele><time>2026-04-08T09:39:12.084Z</time></trkpt><trkpt lat="41.9305083" lon="13.6155652"><ele>1072.7142857142858</ele><time>2026-04-08T09:40:29.067Z</time></trkpt><trkpt lat="41.930489" lon="13.6156579"><ele>1076.1428571428573</ele><time>2026-04-08T09:40:37.098Z</time></trkpt><trkpt lat="41.9304287" lon="13.6156905"><ele>1079.5714285714287</ele><time>2026-04-08T09:40:45.068Z</time></trkpt><trkpt lat="41.9303657" lon="13.6157239"><ele>1083.0</ele><time>2026-04-08T09:40:54.068Z</time></trkpt><trkpt lat="41.9302912" lon="13.6157063"><ele>1083.0</ele><time>2026-04-08T09:41:03.956Z</time></trkpt><trkpt lat="41.9302387" lon="13.6157701"><ele>1083.0</ele><time>2026-04-08T09:41:09.997Z</time></trkpt><trkpt lat="41.9301729" lon="13.6157897"><ele>1083.0</ele><time>2026-04-08T09:41:17.04Z</time></trkpt><trkpt lat="41.9301076" lon="13.6157367"><ele>1083.0</ele><time>2026-04-08T09:41:23.101Z</time></trkpt><trkpt lat="41.9300582" lon="13.6156783"><ele>1083.0</ele><time>2026-04-08T09:41:30.068Z</time></trkpt><trkpt lat="41.9299983" lon="13.6156468"><ele>1083.0</ele><time>2026-04-08T09:41:37.065Z</time></trkpt><trkpt lat="41.9299354" lon="13.615605"><ele>1083.0</ele><time>2026-04-08T09:41:43.998Z</time></trkpt><trkpt lat="41.9299158" lon="13.6155171"><ele>1083.5714285714287</ele><time>2026-04-08T09:41:51.067Z</time></trkpt><trkpt lat="41.9299166" lon="13.6154301"><ele>1084.1428571428573</ele><time>2026-04-08T09:41:57.066Z</time></trkpt><trkpt lat="41.9299087" lon="13.6153409"><ele>1084.7142857142858</ele><time>2026-04-08T09:42:03.068Z</time></trkpt><trkpt lat="41.9298949" lon="13.6152496"><ele>1085.2857142857142</ele><time>2026-04-08T09:42:09.041Z</time></trkpt><trkpt lat="41.9298678" lon="13.6151693"><ele>1085.8571428571427</ele><time>2026-04-08T09:42:15.079Z</time></trkpt><trkpt lat="41.9298341" lon="13.6150845"><ele>1086.4285714285713</ele><time>2026-04-08T09:42:22.067Z</time></trkpt><trkpt lat="41.9297918" lon="13.6150202"><ele>1087.0</ele><time>2026-04-08T09:42:28.071Z</time></trkpt><trkpt lat="41.9297353" lon="13.6149581"><ele>1087.0</ele><time>2026-04-08T09:42:35.067Z</time></trkpt><trkpt lat="41.9296744" lon="13.614925"><ele>1087.0</ele><time>2026-04-08T09:42:41.05Z</time></trkpt><trkpt lat="41.9296141" lon="13.6148812"><ele>1087.0</ele><time>2026-04-08T09:42:47.087Z</time></trkpt><trkpt lat="41.9295605" lon="13.6148233"><ele>1087.0</ele><time>2026-04-08T09:42:54.064Z</time></trkpt><trkpt lat="41.9294985" lon="13.6147902"><ele>1087.0</ele><time>2026-04-08T09:43:01.073Z</time></trkpt><trkpt lat="41.9294274" lon="13.6147888"><ele>1087.0</ele><time>2026-04-08T09:43:08.021Z</time></trkpt><trkpt lat="41.9293628" lon="13.6148054"><ele>1087.0</ele><time>2026-04-08T09:43:13.976Z</time></trkpt><trkpt lat="41.9292981" lon="13.6147916"><ele>1087.0</ele><time>2026-04-08T09:43:20.073Z</time></trkpt><trkpt lat="41.9292315" lon="13.6148158"><ele>1087.0</ele><time>2026-04-08T09:43:27.067Z</time></trkpt><trkpt lat="41.9291784" lon="13.6148652"><ele>1087.0</ele><time>2026-04-08T09:43:34.078Z</time></trkpt><trkpt lat="41.9291138" lon="13.6149031"><ele>1087.0</ele><time>2026-04-08T09:43:42.069Z</time></trkpt><trkpt lat="41.9290417" lon="13.6149061"><ele>1087.0</ele><time>2026-04-08T09:43:49.079Z</time></trkpt><trkpt lat="41.9289913" lon="13.6149589"><ele>1087.0</ele><time>2026-04-08T09:43:55.101Z</time></trkpt><trkpt lat="41.9289448" lon="13.6150248"><ele>1087.0</ele><time>2026-04-08T09:44:01.997Z</time></trkpt><trkpt lat="41.928879" lon="13.6150348"><ele>1087.5714285714284</ele><time>2026-04-08T09:44:08.079Z</time></trkpt><trkpt lat="41.9288134" lon="13.6150059"><ele>1088.142857142857</ele><time>2026-04-08T09:44:15.069Z</time></trkpt><trkpt lat="41.9287486" lon="13.6150492"><ele>1088.7142857142858</ele><time>2026-04-08T09:44:22.066Z</time></trkpt><trkpt lat="41.9287375" lon="13.6151363"><ele>1089.2857142857142</ele><time>2026-04-08T09:44:32.113Z</time></trkpt><trkpt lat="41.9287749" lon="13.6152071"><ele>1089.857142857143</ele><time>2026-04-08T09:44:43.093Z</time></trkpt><trkpt lat="41.9287597" lon="13.6152904"><ele>1090.4285714285713</ele><time>2026-04-08T09:44:51.068Z</time></trkpt><trkpt lat="41.9287088" lon="13.6153496"><ele>1091.0</ele><time>2026-04-08T09:45:01.103Z</time></trkpt><trkpt lat="41.9286533" lon="13.6154023"><ele>1091.0</ele><time>2026-04-08T09:45:34.069Z</time></trkpt><trkpt lat="41.9286078" lon="13.6154631"><ele>1091.0</ele><time>2026-04-08T09:45:41.068Z</time></trkpt><trkpt lat="41.9285737" lon="13.6155416"><ele>1091.0</ele><time>2026-04-08T09:45:49.02Z</time></trkpt><trkpt lat="41.9285246" lon="13.6156038"><ele>1091.0</ele><time>2026-04-08T09:45:57.068Z</time></trkpt><trkpt lat="41.9284764" lon="13.6156634"><ele>1091.0</ele><time>2026-04-08T09:46:04.996Z</time></trkpt><trkpt lat="41.9284291" lon="13.6157207"><ele>1091.0</ele><time>2026-04-08T09:46:13.068Z</time></trkpt><trkpt lat="41.9283807" lon="13.6157797"><ele>1091.0</ele><time>2026-04-08T09:46:22.09Z</time></trkpt><trkpt lat="41.9283353" lon="13.6158418"><ele>1093.0</ele><time>2026-04-08T09:46:31.067Z</time></trkpt><trkpt lat="41.9282733" lon="13.615873"><ele>1095.0</ele><time>2026-04-08T09:46:39.098Z</time></trkpt><trkpt lat="41.9282309" lon="13.6159382"><ele>1097.0</ele><time>2026-04-08T09:48:07.069Z</time></trkpt><trkpt lat="41.9281707" lon="13.6159927"><ele>1099.0</ele><time>2026-04-08T09:48:14.077Z</time></trkpt><trkpt lat="41.9281074" lon="13.6160368"><ele>1101.0</ele><time>2026-04-08T09:48:22.07Z</time></trkpt><trkpt lat="41.9280777" lon="13.6161183"><ele>1103.0</ele><time>2026-04-08T09:48:29.071Z</time></trkpt><trkpt lat="41.9280325" lon="13.6161805"><ele>1105.0</ele><time>2026-04-08T09:48:37.071Z</time></trkpt><trkpt lat="41.9279769" lon="13.6162312"><ele>1106.4285714285713</ele><time>2026-04-08T09:48:46.056Z</time></trkpt><trkpt lat="41.9279156" lon="13.6162625"><ele>1107.857142857143</ele><time>2026-04-08T09:48:55.066Z</time></trkpt><trkpt lat="41.927856" lon="13.6163032"><ele>1109.2857142857142</ele><time>2026-04-08T09:49:32.068Z</time></trkpt><trkpt lat="41.9278024" lon="13.6163493"><ele>1110.7142857142858</ele><time>2026-04-08T09:49:39.075Z</time></trkpt><trkpt lat="41.9277472" lon="13.6164024"><ele>1112.142857142857</ele><time>2026-04-08T09:49:48.034Z</time></trkpt><trkpt lat="41.9277067" lon="13.6164759"><ele>1113.5714285714284</ele><time>2026-04-08T09:49:56.098Z</time></trkpt><trkpt lat="41.9276517" lon="13.6165288"><ele>1115.0</ele><time>2026-04-08T09:50:04.999Z</time></trkpt><trkpt lat="41.9275886" lon="13.6165303"><ele>1116.7142857142858</ele><time>2026-04-08T09:50:16.067Z</time></trkpt><trkpt lat="41.9275349" lon="13.6165808"><ele>1118.4285714285713</ele><time>2026-04-08T09:50:23.066Z</time></trkpt><trkpt lat="41.9274845" lon="13.6166323"><ele>1120.142857142857</ele><time>2026-04-08T09:50:31.112Z</time></trkpt><trkpt lat="41.9274244" lon="13.6166701"><ele>1121.857142857143</ele><time>2026-04-08T09:50:40.071Z</time></trkpt><trkpt lat="41.9273626" lon="13.6166869"><ele>1123.5714285714284</ele><time>2026-04-08T09:51:51.067Z</time></trkpt><trkpt lat="41.9273027" lon="13.6167268"><ele>1125.2857142857142</ele><time>2026-04-08T09:51:58.069Z</time></trkpt><trkpt lat="41.9272417" lon="13.6167591"><ele>1127.0</ele><time>2026-04-08T09:52:04.078Z</time></trkpt><trkpt lat="41.9271771" lon="13.6167722"><ele>1127.0</ele><time>2026-04-08T09:52:11.067Z</time></trkpt><trkpt lat="41.9271083" lon="13.6167935"><ele>1127.0</ele><time>2026-04-08T09:52:20.075Z</time></trkpt><trkpt lat="41.9270431" lon="13.6167773"><ele>1127.0</ele><time>2026-04-08T09:52:28.065Z</time></trkpt><trkpt lat="41.9269783" lon="13.6167549"><ele>1127.0</ele><time>2026-04-08T09:52:35.066Z</time></trkpt><trkpt lat="41.926911" lon="13.6167593"><ele>1127.0</ele><time>2026-04-08T09:52:42.067Z</time></trkpt><trkpt lat="41.9268372" lon="13.6167551"><ele>1127.0</ele><time>2026-04-08T09:52:50.115Z</time></trkpt><trkpt lat="41.9267738" lon="13.6167527"><ele>1127.0</ele><time>2026-04-08T09:52:57.1Z</time></trkpt><trkpt lat="41.9267116" lon="13.6167696"><ele>1128.142857142857</ele><time>2026-04-08T09:53:04.064Z</time></trkpt><trkpt lat="41.9266433" lon="13.6167583"><ele>1129.2857142857142</ele><time>2026-04-08T09:53:11.065Z</time></trkpt><trkpt lat="41.9265755" lon="13.6167686"><ele>1130.4285714285716</ele><time>2026-04-08T09:53:18.067Z</time></trkpt><trkpt lat="41.9265074" lon="13.6167653"><ele>1131.5714285714284</ele><time>2026-04-08T09:53:25.036Z</time></trkpt><trkpt lat="41.9264442" lon="13.6167544"><ele>1132.7142857142858</ele><time>2026-04-08T09:53:31.067Z</time></trkpt><trkpt lat="41.9263716" lon="13.6167484"><ele>1133.857142857143</ele><time>2026-04-08T09:53:37.978Z</time></trkpt><trkpt lat="41.9263004" lon="13.6167417"><ele>1135.0</ele><time>2026-04-08T09:53:44.088Z</time></trkpt><trkpt lat="41.9262227" lon="13.6167403"><ele>1135.0</ele><time>2026-04-08T09:54:00.03Z</time></trkpt><trkpt lat="41.9261573" lon="13.6167529"><ele>1135.0</ele><time>2026-04-08T09:54:04.068Z</time></trkpt><trkpt lat="41.9260905" lon="13.6167818"><ele>1135.0</ele><time>2026-04-08T09:54:09.069Z</time></trkpt><trkpt lat="41.9260336" lon="13.6168395"><ele>1135.0</ele><time>2026-04-08T09:54:15.011Z</time></trkpt><trkpt lat="41.9259976" lon="13.6169142"><ele>1135.0</ele><time>2026-04-08T09:54:21.067Z</time></trkpt><trkpt lat="41.9259486" lon="13.6169716"><ele>1135.0</ele><time>2026-04-08T09:54:27.066Z</time></trkpt><trkpt lat="41.9258923" lon="13.6170228"><ele>1135.0</ele><time>2026-04-08T09:54:33.118Z</time></trkpt><trkpt lat="41.9258374" lon="13.6170732"><ele>1134.857142857143</ele><time>2026-04-08T09:54:39.974Z</time></trkpt><trkpt lat="41.9258086" lon="13.617152"><ele>1134.7142857142858</ele><time>2026-04-08T09:54:47.077Z</time></trkpt><trkpt lat="41.9258032" lon="13.6172438"><ele>1134.5714285714284</ele><time>2026-04-08T09:54:54.069Z</time></trkpt><trkpt lat="41.9257872" lon="13.6173356"><ele>1134.4285714285716</ele><time>2026-04-08T09:55:03.069Z</time></trkpt><trkpt lat="41.9257517" lon="13.6174055"><ele>1134.2857142857142</ele><time>2026-04-08T09:55:09.065Z</time></trkpt><trkpt lat="41.9256996" lon="13.6174701"><ele>1134.142857142857</ele><time>2026-04-08T09:55:16.065Z</time></trkpt><trkpt lat="41.9256454" lon="13.6175278"><ele>1134.0</ele><time>2026-04-08T09:55:26.075Z</time></trkpt><trkpt lat="41.9255991" lon="13.6175852"><ele>1134.0</ele><time>2026-04-08T09:55:33.07Z</time></trkpt><trkpt lat="41.9255564" lon="13.6176585"><ele>1134.0</ele><time>2026-04-08T09:55:39.09Z</time></trkpt><trkpt lat="41.9255311" lon="13.6177496"><ele>1134.0</ele><time>2026-04-08T09:55:46.07Z</time></trkpt><trkpt lat="41.9255214" lon="13.6178411"><ele>1134.0</ele><time>2026-04-08T09:55:53.114Z</time></trkpt><trkpt lat="41.9255826" lon="13.6178795"><ele>1134.0</ele><time>2026-04-08T09:56:00.069Z</time></trkpt><trkpt lat="41.9256341" lon="13.6179297"><ele>1134.0</ele><time>2026-04-08T09:56:05.998Z</time></trkpt><trkpt lat="41.9256843" lon="13.6179915"><ele>1134.0</ele><time>2026-04-08T09:56:12.09Z</time></trkpt><trkpt lat="41.9257006" lon="13.6180781"><ele>1133.4285714285713</ele><time>2026-04-08T09:56:18.092Z</time></trkpt><trkpt lat="41.9256927" lon="13.61817"><ele>1132.857142857143</ele><time>2026-04-08T09:56:24.068Z</time></trkpt><trkpt lat="41.9256775" lon="13.6182525"><ele>1132.2857142857142</ele><time>2026-04-08T09:56:31.067Z</time></trkpt><trkpt lat="41.925671" lon="13.6183404"><ele>1131.7142857142858</ele><time>2026-04-08T09:56:40.066Z</time></trkpt><trkpt lat="41.9256409" lon="13.6184264"><ele>1131.142857142857</ele><time>2026-04-08T09:56:48.11Z</time></trkpt><trkpt lat="41.9255899" lon="13.6184932"><ele>1130.5714285714284</ele><time>2026-04-08T09:57:11.067Z</time></trkpt><trkpt lat="41.925541" lon="13.6185612"><ele>1130.0</ele><time>2026-04-08T09:57:17.087Z</time></trkpt><trkpt lat="41.9254878" lon="13.618625"><ele>1129.9999999999998</ele><time>2026-04-08T09:57:24.096Z</time></trkpt><trkpt lat="41.9254316" lon="13.6186668"><ele>1130.0</ele><time>2026-04-08T09:57:30.068Z</time></trkpt><trkpt lat="41.925381" lon="13.6187197"><ele>1130.0</ele><time>2026-04-08T09:57:36.067Z</time></trkpt><trkpt lat="41.9253266" lon="13.6187831"><ele>1130.0</ele><time>2026-04-08T09:57:43.066Z</time></trkpt><trkpt lat="41.9252801" lon="13.6188458"><ele>1130.0</ele><time>2026-04-08T09:57:49.084Z</time></trkpt><trkpt lat="41.9252337" lon="13.6189046"><ele>1129.9999999999998</ele><time>2026-04-08T09:57:55.054Z</time></trkpt><trkpt lat="41.9251822" lon="13.61896"><ele>1130.0</ele><time>2026-04-08T09:58:01.069Z</time></trkpt><trkpt lat="41.925125" lon="13.6190003"><ele>1129.9999999999998</ele><time>2026-04-08T09:58:07.094Z</time></trkpt><trkpt lat="41.9250683" lon="13.6190486"><ele>1130.0</ele><time>2026-04-08T09:58:13.066Z</time></trkpt><trkpt lat="41.9250164" lon="13.6191105"><ele>1130.0</ele><time>2026-04-08T09:58:20.073Z</time></trkpt><trkpt lat="41.9249627" lon="13.6191702"><ele>1130.0</ele><time>2026-04-08T09:58:27.069Z</time></trkpt><trkpt lat="41.9249037" lon="13.6192111"><ele>1130.0</ele><time>2026-04-08T09:58:33.064Z</time></trkpt><trkpt lat="41.9248451" lon="13.6192517"><ele>1129.9999999999998</ele><time>2026-04-08T09:58:39.089Z</time></trkpt><trkpt lat="41.9247819" lon="13.6192877"><ele>1130.0</ele><time>2026-04-08T09:58:45.07Z</time></trkpt><trkpt lat="41.9247156" lon="13.6193192"><ele>1131.4285714285713</ele><time>2026-04-08T09:58:52.068Z</time></trkpt><trkpt lat="41.9246307" lon="13.61936"><ele>1132.857142857143</ele><time>2026-04-08T09:59:11.084Z</time></trkpt><trkpt lat="41.9245645" lon="13.6193769"><ele>1134.2857142857142</ele><time>2026-04-08T09:59:16.089Z</time></trkpt><trkpt lat="41.9245011" lon="13.6194078"><ele>1135.7142857142858</ele><time>2026-04-08T09:59:21.997Z</time></trkpt><trkpt lat="41.9244391" lon="13.6194497"><ele>1137.142857142857</ele><time>2026-04-08T09:59:29.04Z</time></trkpt><trkpt lat="41.9243702" lon="13.6194793"><ele>1138.5714285714284</ele><time>2026-04-08T09:59:37.018Z</time></trkpt><trkpt lat="41.9243039" lon="13.6195177"><ele>1140.0</ele><time>2026-04-08T09:59:44.086Z</time></trkpt><trkpt lat="41.9242355" lon="13.619526"><ele>1142.7142857142858</ele><time>2026-04-08T09:59:52.009Z</time></trkpt><trkpt lat="41.9241679" lon="13.6195143"><ele>1145.4285714285716</ele><time>2026-04-08T10:00:02.096Z</time></trkpt><trkpt lat="41.9241032" lon="13.619509"><ele>1148.1428571428573</ele><time>2026-04-08T10:00:10.064Z</time></trkpt><trkpt lat="41.9240396" lon="13.6194962"><ele>1150.857142857143</ele><time>2026-04-08T10:00:17.088Z</time></trkpt><trkpt lat="41.9239796" lon="13.6195382"><ele>1153.5714285714287</ele><time>2026-04-08T10:00:25.065Z</time></trkpt><trkpt lat="41.9239162" lon="13.6195546"><ele>1156.2857142857144</ele><time>2026-04-08T10:00:33.087Z</time></trkpt><trkpt lat="41.9238489" lon="13.6195823"><ele>1159.0</ele><time>2026-04-08T10:01:26.069Z</time></trkpt><trkpt lat="41.9237852" lon="13.6196091"><ele>1159.0000000000002</ele><time>2026-04-08T10:01:33.067Z</time></trkpt><trkpt lat="41.9237262" lon="13.6196389"><ele>1159.0</ele><time>2026-04-08T10:01:38.993Z</time></trkpt><trkpt lat="41.9236648" lon="13.6196119"><ele>1159.0</ele><time>2026-04-08T10:02:57.074Z</time></trkpt><trkpt lat="41.9236155" lon="13.6195461"><ele>1159.0</ele><time>2026-04-08T10:03:06.064Z</time></trkpt><trkpt lat="41.9236053" lon="13.6194529"><ele>1159.0</ele><time>2026-04-08T10:03:13.072Z</time></trkpt><trkpt lat="41.9236174" lon="13.6193666"><ele>1159.0000000000002</ele><time>2026-04-08T10:03:20.091Z</time></trkpt><trkpt lat="41.9235817" lon="13.6192892"><ele>1159.0</ele><time>2026-04-08T10:03:29Z</time></trkpt><trkpt lat="41.9235168" lon="13.6192601"><ele>1159.857142857143</ele><time>2026-04-08T10:03:38.065Z</time></trkpt><trkpt lat="41.9234577" lon="13.6192217"><ele>1160.7142857142858</ele><time>2026-04-08T10:03:47.081Z</time></trkpt><trkpt lat="41.9234599" lon="13.6191293"><ele>1161.5714285714284</ele><time>2026-04-08T10:04:26.066Z</time></trkpt><trkpt lat="41.9234132" lon="13.6190694"><ele>1162.4285714285716</ele><time>2026-04-08T10:04:34.068Z</time></trkpt><trkpt lat="41.9233739" lon="13.6189944"><ele>1163.2857142857142</ele><time>2026-04-08T10:04:42.067Z</time></trkpt><trkpt lat="41.9233421" lon="13.6189198"><ele>1164.142857142857</ele><time>2026-04-08T10:04:50.068Z</time></trkpt><trkpt lat="41.9233093" lon="13.6188353"><ele>1165.0</ele><time>2026-04-08T10:04:59.067Z</time></trkpt><trkpt lat="41.9232606" lon="13.6187735"><ele>1164.9999999999998</ele><time>2026-04-08T10:05:07.072Z</time></trkpt><trkpt lat="41.9232201" lon="13.6186992"><ele>1165.0</ele><time>2026-04-08T10:05:55.066Z</time></trkpt><trkpt lat="41.923175" lon="13.6186322"><ele>1165.0</ele><time>2026-04-08T10:06:04.065Z</time></trkpt><trkpt lat="41.9231401" lon="13.6185602"><ele>1165.0</ele><time>2026-04-08T10:06:12.07Z</time></trkpt><trkpt lat="41.9231434" lon="13.618474"><ele>1165.0</ele><time>2026-04-08T10:06:20.066Z</time></trkpt><trkpt lat="41.9231367" lon="13.6183837"><ele>1164.9999999999998</ele><time>2026-04-08T10:06:28.068Z</time></trkpt><trkpt lat="41.9231132" lon="13.6183007"><ele>1165.0</ele><time>2026-04-08T10:06:36.064Z</time></trkpt><trkpt lat="41.9230983" lon="13.6182144"><ele>1166.4285714285713</ele><time>2026-04-08T10:06:45.072Z</time></trkpt><trkpt lat="41.9231072" lon="13.6181169"><ele>1167.857142857143</ele><time>2026-04-08T10:07:11.063Z</time></trkpt><trkpt lat="41.9230964" lon="13.6180298"><ele>1169.2857142857142</ele><time>2026-04-08T10:07:19.063Z</time></trkpt><trkpt lat="41.9230851" lon="13.6179309"><ele>1170.7142857142858</ele><time>2026-04-08T10:07:26.058Z</time></trkpt><trkpt lat="41.9230626" lon="13.6178473"><ele>1172.142857142857</ele><time>2026-04-08T10:07:33.066Z</time></trkpt><trkpt lat="41.9230983" lon="13.6177616"><ele>1173.5714285714284</ele><time>2026-04-08T10:07:40.036Z</time></trkpt><trkpt lat="41.9231345" lon="13.6176867"><ele>1175.0</ele><time>2026-04-08T10:07:47.068Z</time></trkpt><trkpt lat="41.9231659" lon="13.6176023"><ele>1175.7142857142858</ele><time>2026-04-08T10:07:54.094Z</time></trkpt><trkpt lat="41.9232122" lon="13.6175258"><ele>1176.4285714285716</ele><time>2026-04-08T10:08:01.012Z</time></trkpt><trkpt lat="41.9232676" lon="13.6174636"><ele>1177.1428571428573</ele><time>2026-04-08T10:08:07.058Z</time></trkpt><trkpt lat="41.9233025" lon="13.617382"><ele>1177.857142857143</ele><time>2026-04-08T10:08:13.097Z</time></trkpt><trkpt lat="41.923315" lon="13.6172868"><ele>1178.5714285714287</ele><time>2026-04-08T10:08:20.062Z</time></trkpt><trkpt lat="41.9233356" lon="13.6172059"><ele>1179.2857142857144</ele><time>2026-04-08T10:08:26.09Z</time></trkpt><trkpt lat="41.9233549" lon="13.6171157"><ele>1180.0</ele><time>2026-04-08T10:08:33.063Z</time></trkpt><trkpt lat="41.9233431" lon="13.6170189"><ele>1180.4285714285716</ele><time>2026-04-08T10:08:40.075Z</time></trkpt><trkpt lat="41.9233238" lon="13.6169375"><ele>1180.857142857143</ele><time>2026-04-08T10:08:46.063Z</time></trkpt><trkpt lat="41.9232959" lon="13.6168525"><ele>1181.2857142857142</ele><time>2026-04-08T10:08:52.067Z</time></trkpt><trkpt lat="41.9232691" lon="13.6167749"><ele>1181.7142857142858</ele><time>2026-04-08T10:08:57.999Z</time></trkpt><trkpt lat="41.9232392" lon="13.6166863"><ele>1182.142857142857</ele><time>2026-04-08T10:09:05.065Z</time></trkpt><trkpt lat="41.923197" lon="13.6166069"><ele>1182.5714285714287</ele><time>2026-04-08T10:09:12.071Z</time></trkpt><trkpt lat="41.9231765" lon="13.6165188"><ele>1183.0</ele><time>2026-04-08T10:09:20.076Z</time></trkpt><trkpt lat="41.9231664" lon="13.616434"><ele>1183.0</ele><time>2026-04-08T10:09:26.935Z</time></trkpt><trkpt lat="41.9231444" lon="13.6163441"><ele>1183.0</ele><time>2026-04-08T10:09:35.016Z</time></trkpt><trkpt lat="41.9230915" lon="13.6162911"><ele>1183.0</ele><time>2026-04-08T10:09:43.066Z</time></trkpt><trkpt lat="41.923034" lon="13.6162442"><ele>1183.0</ele><time>2026-04-08T10:09:50.102Z</time></trkpt><trkpt lat="41.922997" lon="13.6161737"><ele>1183.0</ele><time>2026-04-08T10:09:57.064Z</time></trkpt><trkpt lat="41.9229494" lon="13.6161177"><ele>1183.0</ele><time>2026-04-08T10:10:03.081Z</time></trkpt><trkpt lat="41.9229057" lon="13.6160496"><ele>1183.0</ele><time>2026-04-08T10:10:47.062Z</time></trkpt><trkpt lat="41.9228564" lon="13.615989"><ele>1184.4285714285713</ele><time>2026-04-08T10:10:55.063Z</time></trkpt><trkpt lat="41.9228171" lon="13.6159207"><ele>1185.857142857143</ele><time>2026-04-08T10:11:02.064Z</time></trkpt><trkpt lat="41.9227653" lon="13.6158686"><ele>1187.2857142857142</ele><time>2026-04-08T10:11:09.085Z</time></trkpt><trkpt lat="41.9227385" lon="13.6157785"><ele>1188.7142857142858</ele><time>2026-04-08T10:11:17.118Z</time></trkpt><trkpt lat="41.9227157" lon="13.6156907"><ele>1190.142857142857</ele><time>2026-04-08T10:11:25.082Z</time></trkpt><trkpt lat="41.9226834" lon="13.6156077"><ele>1191.5714285714284</ele><time>2026-04-08T10:11:34.066Z</time></trkpt><trkpt lat="41.9226306" lon="13.6155556"><ele>1193.0</ele><time>2026-04-08T10:11:41.08Z</time></trkpt><trkpt lat="41.9225803" lon="13.6154986"><ele>1193.2857142857142</ele><time>2026-04-08T10:12:07.068Z</time></trkpt><trkpt lat="41.9225374" lon="13.6154237"><ele>1193.5714285714284</ele><time>2026-04-08T10:12:14.081Z</time></trkpt><trkpt lat="41.9225019" lon="13.6153408"><ele>1193.8571428571427</ele><time>2026-04-08T10:12:21.065Z</time></trkpt><trkpt lat="41.9224608" lon="13.6152693"><ele>1194.142857142857</ele><time>2026-04-08T10:12:29.072Z</time></trkpt><trkpt lat="41.9223941" lon="13.6152255"><ele>1194.4285714285716</ele><time>2026-04-08T10:12:49.094Z</time></trkpt><trkpt lat="41.9223287" lon="13.6152286"><ele>1194.7142857142856</ele><time>2026-04-08T10:13:05.091Z</time></trkpt><trkpt lat="41.9222639" lon="13.6152606"><ele>1195.0</ele><time>2026-04-08T10:13:16.065Z</time></trkpt><trkpt lat="41.9221979" lon="13.6152813"><ele>1195.0</ele><time>2026-04-08T10:13:23.067Z</time></trkpt><trkpt lat="41.9221318" lon="13.6153304"><ele>1195.0</ele><time>2026-04-08T10:13:41.064Z</time></trkpt><trkpt lat="41.9221169" lon="13.6152452"><ele>1195.0</ele><time>2026-04-08T10:14:52.073Z</time></trkpt><trkpt lat="41.9220903" lon="13.6151668"><ele>1195.0</ele><time>2026-04-08T10:15:04.066Z</time></trkpt><trkpt lat="41.922152" lon="13.6151948"><ele>1195.0</ele><time>2026-04-08T10:16:50.062Z</time></trkpt><trkpt lat="41.922193" lon="13.6151201"><ele>1195.0</ele><time>2026-04-08T10:16:57.064Z</time></trkpt><trkpt lat="41.9222356" lon="13.6150545"><ele>1195.0</ele><time>2026-04-08T10:17:03.067Z</time></trkpt><trkpt lat="41.9222686" lon="13.6149754"><ele>1196.2857142857142</ele><time>2026-04-08T10:17:08.991Z</time></trkpt><trkpt lat="41.9222655" lon="13.614889"><ele>1197.5714285714287</ele><time>2026-04-08T10:17:21.096Z</time></trkpt><trkpt lat="41.9222805" lon="13.6148041"><ele>1198.857142857143</ele><time>2026-04-08T10:17:27.062Z</time></trkpt><trkpt lat="41.9223067" lon="13.6147267"><ele>1200.142857142857</ele><time>2026-04-08T10:17:33.077Z</time></trkpt><trkpt lat="41.9223389" lon="13.6146404"><ele>1201.4285714285716</ele><time>2026-04-08T10:17:40.063Z</time></trkpt><trkpt lat="41.9223903" lon="13.6145712"><ele>1202.7142857142858</ele><time>2026-04-08T10:17:47.064Z</time></trkpt><trkpt lat="41.9224227" lon="13.6144918"><ele>1204.0</ele><time>2026-04-08T10:17:54.064Z</time></trkpt><trkpt lat="41.9224619" lon="13.61442"><ele>1204.4285714285713</ele><time>2026-04-08T10:18:01.062Z</time></trkpt><trkpt lat="41.9225082" lon="13.6143468"><ele>1204.857142857143</ele><time>2026-04-08T10:18:08.994Z</time></trkpt><trkpt lat="41.9225501" lon="13.6142832"><ele>1205.2857142857142</ele><time>2026-04-08T10:18:16.061Z</time></trkpt><trkpt lat="41.9226082" lon="13.6142376"><ele>1205.7142857142858</ele><time>2026-04-08T10:18:23.088Z</time></trkpt><trkpt lat="41.9226491" lon="13.6141608"><ele>1206.142857142857</ele><time>2026-04-08T10:18:30.071Z</time></trkpt><trkpt lat="41.9226827" lon="13.6140829"><ele>1206.5714285714284</ele><time>2026-04-08T10:18:37.04Z</time></trkpt><trkpt lat="41.9227229" lon="13.6140148"><ele>1207.0</ele><time>2026-04-08T10:18:44.065Z</time></trkpt><trkpt lat="41.9227684" lon="13.6139555"><ele>1207.2857142857142</ele><time>2026-04-08T10:18:51.064Z</time></trkpt><trkpt lat="41.9228231" lon="13.613902"><ele>1207.5714285714284</ele><time>2026-04-08T10:18:58.066Z</time></trkpt><trkpt lat="41.9228733" lon="13.6138447"><ele>1207.8571428571427</ele><time>2026-04-08T10:19:04.873Z</time></trkpt><trkpt lat="41.922921" lon="13.6137811"><ele>1208.142857142857</ele><time>2026-04-08T10:19:13.064Z</time></trkpt><trkpt lat="41.922953" lon="13.6136948"><ele>1208.4285714285716</ele><time>2026-04-08T10:19:21.053Z</time></trkpt><trkpt lat="41.9230057" lon="13.6136455"><ele>1208.7142857142856</ele><time>2026-04-08T10:19:28.062Z</time></trkpt><trkpt lat="41.9230429" lon="13.6135659"><ele>1209.0</ele><time>2026-04-08T10:19:35.063Z</time></trkpt><trkpt lat="41.9231078" lon="13.6135283"><ele>1209.0</ele><time>2026-04-08T10:19:42.078Z</time></trkpt><trkpt lat="41.9231723" lon="13.613493"><ele>1209.0</ele><time>2026-04-08T10:19:50.095Z</time></trkpt><trkpt lat="41.9231975" lon="13.6134051"><ele>1209.0</ele><time>2026-04-08T10:19:59.084Z</time></trkpt><trkpt lat="41.923223" lon="13.6133243"><ele>1209.0</ele><time>2026-04-08T10:20:08.076Z</time></trkpt><trkpt lat="41.9232064" lon="13.6132335"><ele>1209.0</ele><time>2026-04-08T10:20:17.096Z</time></trkpt><trkpt lat="41.9231992" lon="13.6131396"><ele>1209.0</ele><time>2026-04-08T10:20:25.063Z</time></trkpt><trkpt lat="41.9231582" lon="13.6130736"><ele>1209.0</ele><time>2026-04-08T10:20:33.062Z</time></trkpt><trkpt lat="41.9231098" lon="13.6130047"><ele>1209.0</ele><time>2026-04-08T10:20:44.065Z</time></trkpt><trkpt lat="41.9231282" lon="13.6129116"><ele>1209.0</ele><time>2026-04-08T10:24:49.06Z</time></trkpt><trkpt lat="41.9230874" lon="13.6129919"><ele>1209.0</ele><time>2026-04-08T10:25:05.062Z</time></trkpt><trkpt lat="41.9230752" lon="13.6130839"><ele>1209.0</ele><time>2026-04-08T10:26:05.062Z</time></trkpt><trkpt lat="41.9230138" lon="13.6131331"><ele>1209.0</ele><time>2026-04-08T10:26:13.059Z</time></trkpt><trkpt lat="41.9229514" lon="13.6131022"><ele>1209.0</ele><time>2026-04-08T10:26:21.064Z</time></trkpt><trkpt lat="41.9229312" lon="13.6131838"><ele>1209.0</ele><time>2026-04-08T10:27:05.028Z</time></trkpt><trkpt lat="41.9228782" lon="13.6132408"><ele>1209.0</ele><time>2026-04-08T10:27:13.045Z</time></trkpt><trkpt lat="41.9228195" lon="13.6132799"><ele>1209.0</ele><time>2026-04-08T10:27:20.061Z</time></trkpt><trkpt lat="41.9227512" lon="13.6132926"><ele>1209.0</ele><time>2026-04-08T10:27:28.054Z</time></trkpt><trkpt lat="41.9228143" lon="13.6132929"><ele>1209.0</ele><time>2026-04-08T10:28:29.063Z</time></trkpt><trkpt lat="41.9228755" lon="13.6132529"><ele>1209.0</ele><time>2026-04-08T10:28:41.06Z</time></trkpt><trkpt lat="41.9229431" lon="13.6132687"><ele>1209.0</ele><time>2026-04-08T10:28:50.065Z</time></trkpt><trkpt lat="41.9229468" lon="13.6133541"><ele>1209.0</ele><time>2026-04-08T10:29:01.065Z</time></trkpt><trkpt lat="41.9229729" lon="13.6134342"><ele>1209.0</ele><time>2026-04-08T10:29:11.062Z</time></trkpt><trkpt lat="41.9229186" lon="13.613481"><ele>1209.0</ele><time>2026-04-08T10:29:18.06Z</time></trkpt><trkpt lat="41.9228852" lon="13.6135537"><ele>1209.0</ele><time>2026-04-08T10:29:26.063Z</time></trkpt><trkpt lat="41.9228195" lon="13.6135858"><ele>1209.0</ele><time>2026-04-08T10:29:33.06Z</time></trkpt><trkpt lat="41.9227563" lon="13.6136014"><ele>1209.0</ele><time>2026-04-08T10:29:42.059Z</time></trkpt><trkpt lat="41.922689" lon="13.6136086"><ele>1209.0</ele><time>2026-04-08T10:29:51.062Z</time></trkpt><trkpt lat="41.9226268" lon="13.6135887"><ele>1209.0</ele><time>2026-04-08T10:30:01.063Z</time></trkpt><trkpt lat="41.9225881" lon="13.6135121"><ele>1206.6666666666667</ele><time>2026-04-08T10:30:09.063Z</time></trkpt><trkpt lat="41.9225406" lon="13.6135741"><ele>1204.3333333333333</ele><time>2026-04-08T10:30:24.101Z</time></trkpt><trkpt lat="41.9224798" lon="13.613616"><ele>1202.0</ele><time>2026-04-08T10:30:33.063Z</time></trkpt><trkpt lat="41.922399" lon="13.6135157"><ele>1199.6666666666665</ele><time>2026-04-08T10:31:31.062Z</time></trkpt><trkpt lat="41.9223346" lon="13.6135145"><ele>1197.3333333333333</ele><time>2026-04-08T10:31:40.068Z</time></trkpt><trkpt lat="41.9224183" lon="13.6134302"><ele>1195.0</ele><time>2026-04-08T10:31:57.062Z</time></trkpt><trkpt lat="41.9224594" lon="13.613362"><ele>1195.0</ele><time>2026-04-08T10:32:07.082Z</time></trkpt><trkpt lat="41.9225951" lon="13.6133453"><ele>1195.0</ele><time>2026-04-08T10:34:15.059Z</time></trkpt><trkpt lat="41.9225045" lon="13.6134113"><ele>1195.0</ele><time>2026-04-08T10:35:57.086Z</time></trkpt><trkpt lat="41.9224418" lon="13.6133747"><ele>1195.0</ele><time>2026-04-08T10:36:15.061Z</time></trkpt><trkpt lat="41.9223994" lon="13.6134445"><ele>1195.0</ele><time>2026-04-08T10:36:24.058Z</time></trkpt><trkpt lat="41.9224167" lon="13.6135917"><ele>1196.7142857142856</ele><time>2026-04-08T10:38:14.059Z</time></trkpt><trkpt lat="41.9224254" lon="13.6136778"><ele>1198.4285714285716</ele><time>2026-04-08T10:39:02.06Z</time></trkpt><trkpt lat="41.9224112" lon="13.6137629"><ele>1200.142857142857</ele><time>2026-04-08T10:39:10.058Z</time></trkpt><trkpt lat="41.9223892" lon="13.6138457"><ele>1201.8571428571427</ele><time>2026-04-08T10:39:16.985Z</time></trkpt><trkpt lat="41.9223208" lon="13.6138743"><ele>1203.5714285714284</ele><time>2026-04-08T10:39:24.06Z</time></trkpt><trkpt lat="41.9222499" lon="13.6138751"><ele>1205.2857142857142</ele><time>2026-04-08T10:39:32.085Z</time></trkpt><trkpt lat="41.922195" lon="13.6138295"><ele>1207.0</ele><time>2026-04-08T10:39:40.062Z</time></trkpt><trkpt lat="41.9221367" lon="13.6137847"><ele>1206.9999999999998</ele><time>2026-04-08T10:39:49.09Z</time></trkpt><trkpt lat="41.9221702" lon="13.6138588"><ele>1207.0</ele><time>2026-04-08T10:40:02.071Z</time></trkpt><trkpt lat="41.922171" lon="13.6139477"><ele>1207.0</ele><time>2026-04-08T10:40:07.102Z</time></trkpt><trkpt lat="41.9221757" lon="13.6140368"><ele>1207.0</ele><time>2026-04-08T10:40:13.06Z</time></trkpt><trkpt lat="41.9221859" lon="13.6141305"><ele>1207.0</ele><time>2026-04-08T10:44:43.059Z</time></trkpt><trkpt lat="41.9221296" lon="13.6141788"><ele>1206.9999999999998</ele><time>2026-04-08T10:44:49.07Z</time></trkpt><trkpt lat="41.9220854" lon="13.6142628"><ele>1207.0</ele><time>2026-04-08T10:44:55.061Z</time></trkpt><trkpt lat="41.9220472" lon="13.6143346"><ele>1206.9999999999998</ele><time>2026-04-08T10:45:01.06Z</time></trkpt><trkpt lat="41.9220588" lon="13.6144215"><ele>1207.0</ele><time>2026-04-08T10:45:08.088Z</time></trkpt><trkpt lat="41.9220602" lon="13.6145098"><ele>1207.0</ele><time>2026-04-08T10:45:18.055Z</time></trkpt><trkpt lat="41.9220201" lon="13.6145776"><ele>1207.0</ele><time>2026-04-08T10:45:23.117Z</time></trkpt><trkpt lat="41.9219657" lon="13.6146384"><ele>1207.0</ele><time>2026-04-08T10:45:30.061Z</time></trkpt><trkpt lat="41.9219337" lon="13.6147242"><ele>1206.9999999999998</ele><time>2026-04-08T10:47:41.056Z</time></trkpt><trkpt lat="41.9218735" lon="13.6147645"><ele>1207.0</ele><time>2026-04-08T10:47:47.013Z</time></trkpt><trkpt lat="41.9218061" lon="13.6147799"><ele>1206.8571428571427</ele><time>2026-04-08T10:47:54.057Z</time></trkpt><trkpt lat="41.9217391" lon="13.614809"><ele>1206.7142857142858</ele><time>2026-04-08T10:48:01.029Z</time></trkpt><trkpt lat="41.9216749" lon="13.6148208"><ele>1206.5714285714284</ele><time>2026-04-08T10:48:07.091Z</time></trkpt><trkpt lat="41.9216038" lon="13.6148061"><ele>1206.4285714285713</ele><time>2026-04-08T10:48:13.012Z</time></trkpt><trkpt lat="41.921535" lon="13.6148196"><ele>1206.2857142857142</ele><time>2026-04-08T10:48:19.064Z</time></trkpt><trkpt lat="41.9214702" lon="13.6148512"><ele>1206.142857142857</ele><time>2026-04-08T10:48:25.066Z</time></trkpt><trkpt lat="41.9214013" lon="13.6148524"><ele>1206.0</ele><time>2026-04-08T10:48:32.03Z</time></trkpt><trkpt lat="41.9213405" lon="13.6148829"><ele>1206.0</ele><time>2026-04-08T10:48:37.976Z</time></trkpt><trkpt lat="41.9212776" lon="13.6148912"><ele>1206.0</ele><time>2026-04-08T10:48:45.06Z</time></trkpt><trkpt lat="41.9212213" lon="13.6149299"><ele>1206.0</ele><time>2026-04-08T10:48:52.068Z</time></trkpt><trkpt lat="41.9211605" lon="13.6149717"><ele>1206.0</ele><time>2026-04-08T10:49:00.057Z</time></trkpt><trkpt lat="41.9211005" lon="13.6150087"><ele>1206.0</ele><time>2026-04-08T10:49:09.071Z</time></trkpt><trkpt lat="41.9210251" lon="13.6150187"><ele>1206.0</ele><time>2026-04-08T10:49:17.056Z</time></trkpt><trkpt lat="41.9209558" lon="13.614999"><ele>1206.0</ele><time>2026-04-08T10:49:23.059Z</time></trkpt><trkpt lat="41.9208959" lon="13.6150498"><ele>1207.2857142857144</ele><time>2026-04-08T10:49:32.057Z</time></trkpt><trkpt lat="41.9208433" lon="13.6150981"><ele>1208.5714285714284</ele><time>2026-04-08T10:49:40.063Z</time></trkpt><trkpt lat="41.9207932" lon="13.61515"><ele>1209.857142857143</ele><time>2026-04-08T10:49:48.057Z</time></trkpt><trkpt lat="41.9207358" lon="13.6152069"><ele>1211.1428571428573</ele><time>2026-04-08T10:49:56.06Z</time></trkpt><trkpt lat="41.9206995" lon="13.6152817"><ele>1212.4285714285716</ele><time>2026-04-08T10:50:40.059Z</time></trkpt><trkpt lat="41.9206768" lon="13.6153706"><ele>1213.7142857142858</ele><time>2026-04-08T10:50:49.085Z</time></trkpt><trkpt lat="41.9206766" lon="13.61546"><ele>1215.0</ele><time>2026-04-08T10:50:59.062Z</time></trkpt><trkpt lat="41.9206386" lon="13.6155365"><ele>1216.1428571428573</ele><time>2026-04-08T10:51:09.056Z</time></trkpt><trkpt lat="41.9205975" lon="13.615601"><ele>1217.2857142857142</ele><time>2026-04-08T10:51:16.016Z</time></trkpt><trkpt lat="41.9205542" lon="13.61567"><ele>1218.4285714285716</ele><time>2026-04-08T10:51:24.101Z</time></trkpt><trkpt lat="41.9205562" lon="13.6157624"><ele>1219.5714285714287</ele><time>2026-04-08T10:52:04.058Z</time></trkpt><trkpt lat="41.9205523" lon="13.6158484"><ele>1220.7142857142858</ele><time>2026-04-08T10:52:11.061Z</time></trkpt><trkpt lat="41.9205347" lon="13.6159346"><ele>1221.857142857143</ele><time>2026-04-08T10:52:18.973Z</time></trkpt><trkpt lat="41.9205089" lon="13.6160221"><ele>1223.0</ele><time>2026-04-08T10:52:39.061Z</time></trkpt><trkpt lat="41.9204761" lon="13.6161019"><ele>1224.5714285714284</ele><time>2026-04-08T10:52:50.055Z</time></trkpt><trkpt lat="41.9204508" lon="13.6161832"><ele>1226.1428571428573</ele><time>2026-04-08T10:52:59.083Z</time></trkpt><trkpt lat="41.9204375" lon="13.616269"><ele>1227.7142857142858</ele><time>2026-04-08T10:53:08.057Z</time></trkpt><trkpt lat="41.9204225" lon="13.6163618"><ele>1229.2857142857142</ele><time>2026-04-08T10:53:17.109Z</time></trkpt><trkpt lat="41.9203988" lon="13.6164428"><ele>1230.8571428571427</ele><time>2026-04-08T10:53:24.057Z</time></trkpt><trkpt lat="41.9204057" lon="13.6165396"><ele>1232.4285714285716</ele><time>2026-04-08T10:53:52.056Z</time></trkpt><trkpt lat="41.9203828" lon="13.6166235"><ele>1234.0</ele><time>2026-04-08T10:53:58.058Z</time></trkpt><trkpt lat="41.9203561" lon="13.6167057"><ele>1234.0</ele><time>2026-04-08T10:54:06.054Z</time></trkpt><trkpt lat="41.9203187" lon="13.6167767"><ele>1234.0</ele><time>2026-04-08T10:54:14.055Z</time></trkpt><trkpt lat="41.9202752" lon="13.6168384"><ele>1234.0</ele><time>2026-04-08T10:54:22.093Z</time></trkpt><trkpt lat="41.9202283" lon="13.6169175"><ele>1234.0</ele><time>2026-04-08T10:54:53.084Z</time></trkpt><trkpt lat="41.9201663" lon="13.6169483"><ele>1234.0</ele><time>2026-04-08T10:55:03.056Z</time></trkpt><trkpt lat="41.9201057" lon="13.6169718"><ele>1234.0</ele><time>2026-04-08T10:55:12.1Z</time></trkpt><trkpt lat="41.9200511" lon="13.6170163"><ele>1234.0</ele><time>2026-04-08T10:55:21.112Z</time></trkpt><trkpt lat="41.9199908" lon="13.6170529"><ele>1235.0</ele><time>2026-04-08T10:55:31.969Z</time></trkpt><trkpt lat="41.9199359" lon="13.617117"><ele>1236.0</ele><time>2026-04-08T10:55:40.007Z</time></trkpt><trkpt lat="41.9198967" lon="13.6171845"><ele>1237.0</ele><time>2026-04-08T10:55:46.054Z</time></trkpt><trkpt lat="41.9198473" lon="13.6172483"><ele>1238.0</ele><time>2026-04-08T10:55:52.055Z</time></trkpt><trkpt lat="41.9197872" lon="13.6172873"><ele>1239.0</ele><time>2026-04-08T10:55:58.053Z</time></trkpt><trkpt lat="41.9197293" lon="13.6173261"><ele>1240.0</ele><time>2026-04-08T10:56:06.055Z</time></trkpt><trkpt lat="41.9197368" lon="13.617422"><ele>1241.0</ele><time>2026-04-08T10:56:13.074Z</time></trkpt><trkpt lat="41.9197362" lon="13.6175139"><ele>1241.0</ele><time>2026-04-08T10:56:21.059Z</time></trkpt><trkpt lat="41.9196727" lon="13.6175515"><ele>1241.0</ele><time>2026-04-08T10:56:28.067Z</time></trkpt><trkpt lat="41.919687" lon="13.6176363"><ele>1241.0</ele><time>2026-04-08T10:56:37.057Z</time></trkpt><trkpt lat="41.9196982" lon="13.6177246"><ele>1241.0</ele><time>2026-04-08T10:56:45.071Z</time></trkpt><trkpt lat="41.9196709" lon="13.6178054"><ele>1241.0</ele><time>2026-04-08T10:56:53.056Z</time></trkpt><trkpt lat="41.9196068" lon="13.6178266"><ele>1241.0</ele><time>2026-04-08T10:57:43.058Z</time></trkpt><trkpt lat="41.9195426" lon="13.6178607"><ele>1241.0</ele><time>2026-04-08T10:57:50.069Z</time></trkpt><trkpt lat="41.9194762" lon="13.6178865"><ele>1241.5714285714287</ele><time>2026-04-08T10:57:57.055Z</time></trkpt><trkpt lat="41.919406" lon="13.6179006"><ele>1242.142857142857</ele><time>2026-04-08T10:58:05.061Z</time></trkpt><trkpt lat="41.9193389" lon="13.6179045"><ele>1242.7142857142858</ele><time>2026-04-08T10:58:11.969Z</time></trkpt><trkpt lat="41.9192671" lon="13.617894"><ele>1243.2857142857142</ele><time>2026-04-08T10:58:19.057Z</time></trkpt><trkpt lat="41.9191936" lon="13.6179016"><ele>1243.857142857143</ele><time>2026-04-08T10:58:25.056Z</time></trkpt><trkpt lat="41.9191345" lon="13.6179481"><ele>1244.4285714285713</ele><time>2026-04-08T10:58:32.034Z</time></trkpt><trkpt lat="41.9191191" lon="13.6180349"><ele>1245.0</ele><time>2026-04-08T10:58:39.07Z</time></trkpt><trkpt lat="41.9190931" lon="13.6181232"><ele>1245.142857142857</ele><time>2026-04-08T10:58:46.056Z</time></trkpt><trkpt lat="41.9190714" lon="13.6182152"><ele>1245.2857142857142</ele><time>2026-04-08T10:58:53.056Z</time></trkpt><trkpt lat="41.9190765" lon="13.6183076"><ele>1245.4285714285716</ele><time>2026-04-08T10:59:00.055Z</time></trkpt><trkpt lat="41.9190615" lon="13.6183911"><ele>1245.5714285714284</ele><time>2026-04-08T10:59:06.098Z</time></trkpt><trkpt lat="41.9189915" lon="13.6184046"><ele>1245.7142857142858</ele><time>2026-04-08T10:59:14.086Z</time></trkpt><trkpt lat="41.9189239" lon="13.6183923"><ele>1245.857142857143</ele><time>2026-04-08T10:59:21.969Z</time></trkpt><trkpt lat="41.9188569" lon="13.6183981"><ele>1246.0</ele><time>2026-04-08T10:59:29.078Z</time></trkpt><trkpt lat="41.918787" lon="13.6183943"><ele>1246.0</ele><time>2026-04-08T10:59:39.058Z</time></trkpt><trkpt lat="41.9187173" lon="13.618416"><ele>1246.0</ele><time>2026-04-08T10:59:48.056Z</time></trkpt><trkpt lat="41.9186511" lon="13.6184303"><ele>1246.0</ele><time>2026-04-08T10:59:55.056Z</time></trkpt><trkpt lat="41.9185813" lon="13.6184491"><ele>1246.0</ele><time>2026-04-08T11:00:03.056Z</time></trkpt><trkpt lat="41.9185116" lon="13.6184614"><ele>1246.0</ele><time>2026-04-08T11:00:10.99Z</time></trkpt><trkpt lat="41.9184456" lon="13.6184792"><ele>1246.0</ele><time>2026-04-08T11:00:19.053Z</time></trkpt><trkpt lat="41.9183792" lon="13.6184524"><ele>1246.0</ele><time>2026-04-08T11:00:28.056Z</time></trkpt><trkpt lat="41.9183155" lon="13.6184236"><ele>1244.5714285714287</ele><time>2026-04-08T11:00:36.99Z</time></trkpt><trkpt lat="41.9182894" lon="13.618502"><ele>1243.142857142857</ele><time>2026-04-08T11:00:46.956Z</time></trkpt><trkpt lat="41.9182394" lon="13.6185567"><ele>1241.7142857142858</ele><time>2026-04-08T11:00:56.059Z</time></trkpt><trkpt lat="41.9181722" lon="13.6185911"><ele>1240.2857142857142</ele><time>2026-04-08T11:02:10.074Z</time></trkpt><trkpt lat="41.9181295" lon="13.6185258"><ele>1238.857142857143</ele><time>2026-04-08T11:02:17.054Z</time></trkpt><trkpt lat="41.918099" lon="13.6184368"><ele>1237.4285714285716</ele><time>2026-04-08T11:02:24.061Z</time></trkpt><trkpt lat="41.9180895" lon="13.6183438"><ele>1236.0</ele><time>2026-04-08T11:02:30.056Z</time></trkpt><trkpt lat="41.9180969" lon="13.6182495"><ele>1236.0000000000002</ele><time>2026-04-08T11:02:37.057Z</time></trkpt><trkpt lat="41.9180833" lon="13.618155"><ele>1236.0</ele><time>2026-04-08T11:02:42.973Z</time></trkpt><trkpt lat="41.9180573" lon="13.6180775"><ele>1236.0</ele><time>2026-04-08T11:02:50.06Z</time></trkpt><trkpt lat="41.9180516" lon="13.6179916"><ele>1236.0</ele><time>2026-04-08T11:02:56.096Z</time></trkpt><trkpt lat="41.918045" lon="13.6179058"><ele>1236.0</ele><time>2026-04-08T11:03:02.053Z</time></trkpt><trkpt lat="41.9180407" lon="13.6178067"><ele>1236.0000000000002</ele><time>2026-04-08T11:03:09.014Z</time></trkpt><trkpt lat="41.9180345" lon="13.6177208"><ele>1236.0</ele><time>2026-04-08T11:03:15.078Z</time></trkpt><trkpt lat="41.9180288" lon="13.6176343"><ele>1235.2857142857144</ele><time>2026-04-08T11:03:21.057Z</time></trkpt><trkpt lat="41.9179965" lon="13.6175436"><ele>1234.5714285714287</ele><time>2026-04-08T11:03:28.058Z</time></trkpt><trkpt lat="41.9180016" lon="13.6174586"><ele>1233.857142857143</ele><time>2026-04-08T11:03:34.092Z</time></trkpt><trkpt lat="41.9180268" lon="13.6173749"><ele>1233.1428571428573</ele><time>2026-04-08T11:03:42.055Z</time></trkpt><trkpt lat="41.9180607" lon="13.6173002"><ele>1232.4285714285716</ele><time>2026-04-08T11:03:50.098Z</time></trkpt><trkpt lat="41.9180434" lon="13.6172103"><ele>1231.7142857142858</ele><time>2026-04-08T11:03:57.059Z</time></trkpt><trkpt lat="41.9180163" lon="13.6171331"><ele>1231.0</ele><time>2026-04-08T11:04:03.076Z</time></trkpt><trkpt lat="41.9179899" lon="13.6170465"><ele>1229.857142857143</ele><time>2026-04-08T11:04:10.035Z</time></trkpt><trkpt lat="41.9179845" lon="13.6169569"><ele>1228.7142857142858</ele><time>2026-04-08T11:04:18.069Z</time></trkpt><trkpt lat="41.9179717" lon="13.6168713"><ele>1227.5714285714284</ele><time>2026-04-08T11:04:25.058Z</time></trkpt><trkpt lat="41.9179537" lon="13.6167894"><ele>1226.4285714285716</ele><time>2026-04-08T11:04:31.117Z</time></trkpt><trkpt lat="41.9179688" lon="13.616705"><ele>1225.2857142857144</ele><time>2026-04-08T11:04:40.058Z</time></trkpt><trkpt lat="41.9179548" lon="13.6166152"><ele>1224.142857142857</ele><time>2026-04-08T11:04:49.932Z</time></trkpt><trkpt lat="41.9179609" lon="13.616527"><ele>1223.0</ele><time>2026-04-08T11:04:59.054Z</time></trkpt><trkpt lat="41.9179446" lon="13.6164403"><ele>1223.0</ele><time>2026-04-08T11:05:09.016Z</time></trkpt><trkpt lat="41.9179319" lon="13.616356"><ele>1223.0</ele><time>2026-04-08T11:05:20.057Z</time></trkpt><trkpt lat="41.9179323" lon="13.6162711"><ele>1223.0</ele><time>2026-04-08T11:05:28.102Z</time></trkpt><trkpt lat="41.9179076" lon="13.6161908"><ele>1223.0</ele><time>2026-04-08T11:05:37.058Z</time></trkpt><trkpt lat="41.9178791" lon="13.6161065"><ele>1223.0</ele><time>2026-04-08T11:05:47.054Z</time></trkpt><trkpt lat="41.9178626" lon="13.6160227"><ele>1223.0</ele><time>2026-04-08T11:05:56.076Z</time></trkpt><trkpt lat="41.9178423" lon="13.6159415"><ele>1223.0</ele><time>2026-04-08T11:06:06.055Z</time></trkpt><trkpt lat="41.9178514" lon="13.6158352"><ele>1221.0</ele><time>2026-04-08T11:06:32.097Z</time></trkpt><trkpt lat="41.9178503" lon="13.6157493"><ele>1219.0</ele><time>2026-04-08T11:06:39.067Z</time></trkpt><trkpt lat="41.9178425" lon="13.615664"><ele>1217.0</ele><time>2026-04-08T11:06:47.091Z</time></trkpt><trkpt lat="41.9178336" lon="13.61557"><ele>1215.0</ele><time>2026-04-08T11:06:55.056Z</time></trkpt><trkpt lat="41.9178138" lon="13.6154857"><ele>1213.0</ele><time>2026-04-08T11:07:04.095Z</time></trkpt><trkpt lat="41.9177622" lon="13.6154322"><ele>1211.0</ele><time>2026-04-08T11:07:17.076Z</time></trkpt><trkpt lat="41.9176984" lon="13.6154423"><ele>1209.0</ele><time>2026-04-08T11:07:28.056Z</time></trkpt><trkpt lat="41.917666" lon="13.615367"><ele>1206.4285714285713</ele><time>2026-04-08T11:07:37.073Z</time></trkpt><trkpt lat="41.9176767" lon="13.6152817"><ele>1203.857142857143</ele><time>2026-04-08T11:07:45.056Z</time></trkpt><trkpt lat="41.9176773" lon="13.6151951"><ele>1201.2857142857142</ele><time>2026-04-08T11:07:54.053Z</time></trkpt><trkpt lat="41.9176326" lon="13.6151309"><ele>1198.7142857142858</ele><time>2026-04-08T11:08:06.077Z</time></trkpt><trkpt lat="41.9176402" lon="13.6150416"><ele>1196.142857142857</ele><time>2026-04-08T11:08:19.056Z</time></trkpt><trkpt lat="41.9176091" lon="13.6149666"><ele>1193.5714285714287</ele><time>2026-04-08T11:08:28.054Z</time></trkpt><trkpt lat="41.9175658" lon="13.6149022"><ele>1191.0</ele><time>2026-04-08T11:08:37.968Z</time></trkpt><trkpt lat="41.9175068" lon="13.6148691"><ele>1188.5714285714287</ele><time>2026-04-08T11:08:47.052Z</time></trkpt><trkpt lat="41.9174742" lon="13.6147941"><ele>1186.142857142857</ele><time>2026-04-08T11:08:55.078Z</time></trkpt><trkpt lat="41.9174471" lon="13.6147112"><ele>1183.7142857142858</ele><time>2026-04-08T11:09:02.973Z</time></trkpt><trkpt lat="41.9174428" lon="13.6146264"><ele>1181.2857142857142</ele><time>2026-04-08T11:09:13.089Z</time></trkpt><trkpt lat="41.9174019" lon="13.6145602"><ele>1178.857142857143</ele><time>2026-04-08T11:09:26.068Z</time></trkpt><trkpt lat="41.917377" lon="13.6144803"><ele>1176.4285714285716</ele><time>2026-04-08T11:09:40.058Z</time></trkpt><trkpt lat="41.9173544" lon="13.6143961"><ele>1174.0</ele><time>2026-04-08T11:09:51.059Z</time></trkpt><trkpt lat="41.9173363" lon="13.6143117"><ele>1170.7142857142858</ele><time>2026-04-08T11:10:00.077Z</time></trkpt><trkpt lat="41.9172811" lon="13.6142606"><ele>1167.4285714285716</ele><time>2026-04-08T11:10:10.057Z</time></trkpt><trkpt lat="41.9172183" lon="13.6142976"><ele>1164.142857142857</ele><time>2026-04-08T11:10:22.068Z</time></trkpt><trkpt lat="41.9171612" lon="13.6142503"><ele>1160.857142857143</ele><time>2026-04-08T11:10:34.086Z</time></trkpt><trkpt lat="41.9171864" lon="13.6141678"><ele>1157.5714285714284</ele><time>2026-04-08T11:10:39.055Z</time></trkpt><trkpt lat="41.9171454" lon="13.6141035"><ele>1154.2857142857142</ele><time>2026-04-08T11:10:53.057Z</time></trkpt><trkpt lat="41.9170948" lon="13.6140507"><ele>1151.0</ele><time>2026-04-08T11:11:11.054Z</time></trkpt><trkpt lat="41.9170558" lon="13.6139821"><ele>1150.9999999999998</ele><time>2026-04-08T11:11:25.054Z</time></trkpt><trkpt lat="41.9170337" lon="13.6138981"><ele>1151.0</ele><time>2026-04-08T11:11:35.068Z</time></trkpt><trkpt lat="41.91698" lon="13.6138427"><ele>1151.0</ele><time>2026-04-08T11:11:45.052Z</time></trkpt><trkpt lat="41.916934" lon="13.6137803"><ele>1151.0</ele><time>2026-04-08T11:11:55.054Z</time></trkpt><trkpt lat="41.9168927" lon="13.6137149"><ele>1151.0</ele><time>2026-04-08T11:12:06.993Z</time></trkpt><trkpt lat="41.9168537" lon="13.6136452"><ele>1150.9999999999998</ele><time>2026-04-08T11:12:17.054Z</time></trkpt><trkpt lat="41.9168181" lon="13.6135652"><ele>1151.0</ele><time>2026-04-08T11:12:28.054Z</time></trkpt><trkpt lat="41.9167562" lon="13.6135261"><ele>1145.8571428571427</ele><time>2026-04-08T11:12:37.054Z</time></trkpt><trkpt lat="41.9166898" lon="13.6135078"><ele>1140.7142857142858</ele><time>2026-04-08T11:12:46.969Z</time></trkpt><trkpt lat="41.9166721" lon="13.6134255"><ele>1135.5714285714284</ele><time>2026-04-08T11:12:59.079Z</time></trkpt><trkpt lat="41.9166414" lon="13.613344"><ele>1130.4285714285713</ele><time>2026-04-08T11:13:09.052Z</time></trkpt><trkpt lat="41.9166007" lon="13.6132738"><ele>1125.2857142857142</ele><time>2026-04-08T11:13:19.108Z</time></trkpt><trkpt lat="41.9165412" lon="13.6132284"><ele>1120.142857142857</ele><time>2026-04-08T11:13:29.97Z</time></trkpt><trkpt lat="41.9164782" lon="13.6132301"><ele>1115.0</ele><time>2026-04-08T11:13:38.056Z</time></trkpt><trkpt lat="41.916426" lon="13.6131797"><ele>1115.0</ele><time>2026-04-08T11:13:47.075Z</time></trkpt><trkpt lat="41.9163674" lon="13.6131286"><ele>1115.0</ele><time>2026-04-08T11:14:00.068Z</time></trkpt><trkpt lat="41.9163218" lon="13.6130687"><ele>1115.0</ele><time>2026-04-08T11:14:10.053Z</time></trkpt><trkpt lat="41.9162747" lon="13.6130002"><ele>1115.0</ele><time>2026-04-08T11:14:20.072Z</time></trkpt><trkpt lat="41.9162215" lon="13.6129312"><ele>1115.0</ele><time>2026-04-08T11:14:34.064Z</time></trkpt><trkpt lat="41.9161728" lon="13.6128764"><ele>1115.0</ele><time>2026-04-08T11:14:44.053Z</time></trkpt><trkpt lat="41.916118" lon="13.6128166"><ele>1115.0</ele><time>2026-04-08T11:14:53.08Z</time></trkpt><trkpt lat="41.9160718" lon="13.6127529"><ele>1112.857142857143</ele><time>2026-04-08T11:15:02.031Z</time></trkpt><trkpt lat="41.9160126" lon="13.6127211"><ele>1110.7142857142856</ele><time>2026-04-08T11:15:17.054Z</time></trkpt><trkpt lat="41.9159438" lon="13.6126961"><ele>1108.5714285714284</ele><time>2026-04-08T11:15:33.011Z</time></trkpt><trkpt lat="41.9159224" lon="13.6126142"><ele>1106.4285714285713</ele><time>2026-04-08T11:15:42.082Z</time></trkpt><trkpt lat="41.9158551" lon="13.6126002"><ele>1104.2857142857142</ele><time>2026-04-08T11:15:57.073Z</time></trkpt><trkpt lat="41.9157953" lon="13.6125672"><ele>1102.142857142857</ele><time>2026-04-08T11:16:09.056Z</time></trkpt><trkpt lat="41.9157596" lon="13.6124961"><ele>1100.0</ele><time>2026-04-08T11:16:17.053Z</time></trkpt><trkpt lat="41.9157238" lon="13.6124247"><ele>1096.2857142857142</ele><time>2026-04-08T11:16:27.058Z</time></trkpt><trkpt lat="41.9156901" lon="13.6123481"><ele>1092.5714285714284</ele><time>2026-04-08T11:16:36.068Z</time></trkpt><trkpt lat="41.9156359" lon="13.6122937"><ele>1088.8571428571427</ele><time>2026-04-08T11:16:46.074Z</time></trkpt><trkpt lat="41.9155711" lon="13.6122751"><ele>1085.142857142857</ele><time>2026-04-08T11:16:59.054Z</time></trkpt><trkpt lat="41.9155306" lon="13.6122076"><ele>1081.4285714285713</ele><time>2026-04-08T11:17:09.071Z</time></trkpt><trkpt lat="41.9154737" lon="13.612152"><ele>1077.7142857142856</ele><time>2026-04-08T11:17:27.948Z</time></trkpt><trkpt lat="41.9154421" lon="13.6120788"><ele>1074.0</ele><time>2026-04-08T11:17:38.089Z</time></trkpt><trkpt lat="41.9153868" lon="13.6120361"><ele>1073.9999999999998</ele><time>2026-04-08T11:17:48.055Z</time></trkpt><trkpt lat="41.9153224" lon="13.6120344"><ele>1074.0</ele><time>2026-04-08T11:17:58.053Z</time></trkpt><trkpt lat="41.9152587" lon="13.6120254"><ele>1074.0</ele><time>2026-04-08T11:18:09.051Z</time></trkpt><trkpt lat="41.9152096" lon="13.6119723"><ele>1074.0</ele><time>2026-04-08T11:18:20.052Z</time></trkpt><trkpt lat="41.9151564" lon="13.6119108"><ele>1074.0</ele><time>2026-04-08T11:18:30.051Z</time></trkpt><trkpt lat="41.9151042" lon="13.6118635"><ele>1073.9999999999998</ele><time>2026-04-08T11:18:39.99Z</time></trkpt><trkpt lat="41.9150475" lon="13.6118145"><ele>1074.0</ele><time>2026-04-08T11:18:52.051Z</time></trkpt><trkpt lat="41.9150345" lon="13.6117262"><ele>1072.2857142857142</ele><time>2026-04-08T11:19:01.976Z</time></trkpt><trkpt lat="41.9150568" lon="13.6116406"><ele>1070.5714285714284</ele><time>2026-04-08T11:19:11.102Z</time></trkpt><trkpt lat="41.9150925" lon="13.6115674"><ele>1068.857142857143</ele><time>2026-04-08T11:19:36.95Z</time></trkpt><trkpt lat="41.9150392" lon="13.6114961"><ele>1067.142857142857</ele><time>2026-04-08T11:19:44.07Z</time></trkpt><trkpt lat="41.9149875" lon="13.6114451"><ele>1065.4285714285716</ele><time>2026-04-08T11:19:49.051Z</time></trkpt><trkpt lat="41.9149566" lon="13.6113624"><ele>1063.7142857142858</ele><time>2026-04-08T11:19:57.055Z</time></trkpt><trkpt lat="41.9149071" lon="13.6113071"><ele>1062.0</ele><time>2026-04-08T11:20:06.053Z</time></trkpt><trkpt lat="41.91488" lon="13.6112292"><ele>1059.0</ele><time>2026-04-08T11:20:16.051Z</time></trkpt><trkpt lat="41.9148152" lon="13.6112349"><ele>1056.0</ele><time>2026-04-08T11:20:31.058Z</time></trkpt><trkpt lat="41.9147793" lon="13.6111519"><ele>1053.0</ele><time>2026-04-08T11:20:38.052Z</time></trkpt><trkpt lat="41.9147451" lon="13.6110783"><ele>1050.0</ele><time>2026-04-08T11:20:45.051Z</time></trkpt><trkpt lat="41.914699" lon="13.611007"><ele>1047.0</ele><time>2026-04-08T11:20:53.055Z</time></trkpt><trkpt lat="41.9146417" lon="13.6109615"><ele>1044.0</ele><time>2026-04-08T11:21:00.969Z</time></trkpt><trkpt lat="41.9146201" lon="13.6108754"><ele>1041.0</ele><time>2026-04-08T11:21:08.031Z</time></trkpt><trkpt lat="41.9145918" lon="13.610799"><ele>1038.5714285714287</ele><time>2026-04-08T11:21:18.055Z</time></trkpt><trkpt lat="41.9145351" lon="13.6107465"><ele>1036.1428571428573</ele><time>2026-04-08T11:21:31.056Z</time></trkpt><trkpt lat="41.9144812" lon="13.6106935"><ele>1033.7142857142858</ele><time>2026-04-08T11:21:39.975Z</time></trkpt><trkpt lat="41.9144289" lon="13.6106447"><ele>1031.2857142857142</ele><time>2026-04-08T11:21:49.033Z</time></trkpt><trkpt lat="41.9143797" lon="13.6105838"><ele>1028.8571428571427</ele><time>2026-04-08T11:21:58.051Z</time></trkpt><trkpt lat="41.9143302" lon="13.6105256"><ele>1026.4285714285713</ele><time>2026-04-08T11:22:05.955Z</time></trkpt><trkpt lat="41.9142853" lon="13.6104586"><ele>1024.0</ele><time>2026-04-08T11:22:14.09Z</time></trkpt><trkpt lat="41.9142266" lon="13.6104211"><ele>1022.4285714285713</ele><time>2026-04-08T11:22:25.988Z</time></trkpt><trkpt lat="41.9141743" lon="13.6103709"><ele>1020.8571428571428</ele><time>2026-04-08T11:22:33.092Z</time></trkpt><trkpt lat="41.9141217" lon="13.6103218"><ele>1019.2857142857142</ele><time>2026-04-08T11:22:41.056Z</time></trkpt><trkpt lat="41.9140532" lon="13.6102923"><ele>1017.7142857142858</ele><time>2026-04-08T11:22:48.053Z</time></trkpt><trkpt lat="41.9140012" lon="13.6102375"><ele>1016.1428571428572</ele><time>2026-04-08T11:22:56.053Z</time></trkpt><trkpt lat="41.9139433" lon="13.6101996"><ele>1014.5714285714287</ele><time>2026-04-08T11:23:05.051Z</time></trkpt><trkpt lat="41.913889" lon="13.6101555"><ele>1013.0</ele><time>2026-04-08T11:23:12.095Z</time></trkpt><trkpt lat="41.9138385" lon="13.6101033"><ele>1009.7142857142858</ele><time>2026-04-08T11:23:21.051Z</time></trkpt><trkpt lat="41.9137852" lon="13.6101533"><ele>1006.4285714285716</ele><time>2026-04-08T11:23:29.054Z</time></trkpt><trkpt lat="41.9137198" lon="13.6101255"><ele>1003.1428571428571</ele><time>2026-04-08T11:23:36.068Z</time></trkpt><trkpt lat="41.913663" lon="13.6100624"><ele>999.8571428571429</ele><time>2026-04-08T11:23:42.052Z</time></trkpt><trkpt lat="41.9136086" lon="13.6100039"><ele>996.5714285714286</ele><time>2026-04-08T11:23:49.073Z</time></trkpt><trkpt lat="41.9135569" lon="13.6099327"><ele>993.2857142857142</ele><time>2026-04-08T11:23:55.055Z</time></trkpt><trkpt lat="41.9134953" lon="13.6098791"><ele>989.9999999999999</ele><time>2026-04-08T11:24:01.054Z</time></trkpt><trkpt lat="41.9134315" lon="13.609843"><ele>989.8571428571427</ele><time>2026-04-08T11:24:07.012Z</time></trkpt><trkpt lat="41.9133653" lon="13.6098241"><ele>989.7142857142857</ele><time>2026-04-08T11:24:14.011Z</time></trkpt><trkpt lat="41.9133053" lon="13.6097935"><ele>989.5714285714284</ele><time>2026-04-08T11:24:20.063Z</time></trkpt><trkpt lat="41.9132395" lon="13.6097866"><ele>989.4285714285713</ele><time>2026-04-08T11:24:28.052Z</time></trkpt><trkpt lat="41.9131823" lon="13.6097506"><ele>989.2857142857142</ele><time>2026-04-08T11:24:35.056Z</time></trkpt><trkpt lat="41.9131369" lon="13.6096829"><ele>989.1428571428571</ele><time>2026-04-08T11:24:41.052Z</time></trkpt><trkpt lat="41.913071" lon="13.6096667"><ele>989.0</ele><time>2026-04-08T11:24:47.057Z</time></trkpt><trkpt lat="41.9130136" lon="13.6096273"><ele>989.0</ele><time>2026-04-08T11:24:53.066Z</time></trkpt><trkpt lat="41.9129627" lon="13.6095635"><ele>988.9999999999999</ele><time>2026-04-08T11:24:59.052Z</time></trkpt><trkpt lat="41.9129" lon="13.6095543"><ele>989.0</ele><time>2026-04-08T11:25:04.934Z</time></trkpt><trkpt lat="41.912846" lon="13.6094967"><ele>989.0</ele><time>2026-04-08T11:25:12.082Z</time></trkpt><trkpt lat="41.9128028" lon="13.6094218"><ele>988.9999999999999</ele><time>2026-04-08T11:25:21.052Z</time></trkpt><trkpt lat="41.9127576" lon="13.6093585"><ele>989.0</ele><time>2026-04-08T11:25:28.08Z</time></trkpt><trkpt lat="41.9127031" lon="13.6093001"><ele>989.0</ele><time>2026-04-08T11:25:36.051Z</time></trkpt><trkpt lat="41.9126594" lon="13.6092325"><ele>985.4285714285713</ele><time>2026-04-08T11:25:45.051Z</time></trkpt><trkpt lat="41.9126147" lon="13.6091713"><ele>981.8571428571428</ele><time>2026-04-08T11:25:54.057Z</time></trkpt><trkpt lat="41.9125656" lon="13.6091094"><ele>978.2857142857142</ele><time>2026-04-08T11:26:03.055Z</time></trkpt><trkpt lat="41.9125079" lon="13.6090729"><ele>974.7142857142858</ele><time>2026-04-08T11:26:10.052Z</time></trkpt><trkpt lat="41.9124442" lon="13.6090424"><ele>971.1428571428572</ele><time>2026-04-08T11:26:18.088Z</time></trkpt><trkpt lat="41.9123885" lon="13.6089836"><ele>967.5714285714287</ele><time>2026-04-08T11:26:27.008Z</time></trkpt><trkpt lat="41.9123217" lon="13.6089581"><ele>964.0</ele><time>2026-04-08T11:26:35.094Z</time></trkpt><trkpt lat="41.9122586" lon="13.6089251"><ele>963.7142857142858</ele><time>2026-04-08T11:26:43.054Z</time></trkpt><trkpt lat="41.9121877" lon="13.6089301"><ele>963.4285714285716</ele><time>2026-04-08T11:26:52.052Z</time></trkpt><trkpt lat="41.9121179" lon="13.6089113"><ele>963.1428571428571</ele><time>2026-04-08T11:26:59.077Z</time></trkpt><trkpt lat="41.9120731" lon="13.6088507"><ele>962.8571428571429</ele><time>2026-04-08T11:27:10.053Z</time></trkpt><trkpt lat="41.9120623" lon="13.608763"><ele>962.5714285714286</ele><time>2026-04-08T11:27:18.032Z</time></trkpt><trkpt lat="41.9119986" lon="13.6088015"><ele>962.2857142857142</ele><time>2026-04-08T11:27:26.052Z</time></trkpt><trkpt lat="41.9119291" lon="13.608811"><ele>961.9999999999999</ele><time>2026-04-08T11:27:34.056Z</time></trkpt><trkpt lat="41.9118604" lon="13.6087972"><ele>961.9999999999999</ele><time>2026-04-08T11:27:44.049Z</time></trkpt><trkpt lat="41.9117933" lon="13.6087929"><ele>962.0</ele><time>2026-04-08T11:27:52.066Z</time></trkpt><trkpt lat="41.9117381" lon="13.6087431"><ele>961.9999999999999</ele><time>2026-04-08T11:28:03.009Z</time></trkpt><trkpt lat="41.9117384" lon="13.60865"><ele>961.9999999999999</ele><time>2026-04-08T11:28:10.077Z</time></trkpt><trkpt lat="41.911745" lon="13.6085592"><ele>962.0</ele><time>2026-04-08T11:28:17.052Z</time></trkpt><trkpt lat="41.9117349" lon="13.6084737"><ele>961.9999999999999</ele><time>2026-04-08T11:28:24.063Z</time></trkpt><trkpt lat="41.9117295" lon="13.608389"><ele>961.9999999999999</ele><time>2026-04-08T11:28:31.071Z</time></trkpt><trkpt lat="41.9117456" lon="13.6082963"><ele>959.9999999999999</ele><time>2026-04-08T11:28:39.009Z</time></trkpt><trkpt lat="41.9117484" lon="13.6082111"><ele>958.0</ele><time>2026-04-08T11:28:47.05Z</time></trkpt><trkpt lat="41.9116949" lon="13.6081538"><ele>955.9999999999999</ele><time>2026-04-08T11:28:56.059Z</time></trkpt><trkpt lat="41.9116297" lon="13.6081334"><ele>953.9999999999999</ele><time>2026-04-08T11:29:04.054Z</time></trkpt><trkpt lat="41.9115614" lon="13.6081142"><ele>952.0</ele><time>2026-04-08T11:29:13.064Z</time></trkpt><trkpt lat="41.9114996" lon="13.6080936"><ele>949.9999999999999</ele><time>2026-04-08T11:29:21.052Z</time></trkpt><trkpt lat="41.9114405" lon="13.6080537"><ele>947.9999999999999</ele><time>2026-04-08T11:29:30.069Z</time></trkpt><trkpt lat="41.9113789" lon="13.6080311"><ele>946.2857142857142</ele><time>2026-04-08T11:29:37.027Z</time></trkpt><trkpt lat="41.9113119" lon="13.6080312"><ele>944.5714285714286</ele><time>2026-04-08T11:29:45.062Z</time></trkpt><trkpt lat="41.9112501" lon="13.608004"><ele>942.8571428571429</ele><time>2026-04-08T11:29:56.051Z</time></trkpt><trkpt lat="41.9112192" lon="13.6079217"><ele>941.1428571428571</ele><time>2026-04-08T11:30:05.03Z</time></trkpt><trkpt lat="41.9112163" lon="13.6078296"><ele>939.4285714285716</ele><time>2026-04-08T11:30:12.055Z</time></trkpt><trkpt lat="41.9112022" lon="13.607741"><ele>937.7142857142858</ele><time>2026-04-08T11:30:19.071Z</time></trkpt><trkpt lat="41.9111883" lon="13.6076517"><ele>936.0</ele><time>2026-04-08T11:30:27.051Z</time></trkpt><trkpt lat="41.9111685" lon="13.6075689"><ele>934.4285714285714</ele><time>2026-04-08T11:30:34.062Z</time></trkpt><trkpt lat="41.9111457" lon="13.6074825"><ele>932.8571428571429</ele><time>2026-04-08T11:30:56.053Z</time></trkpt><trkpt lat="41.9111531" lon="13.6073958"><ele>931.2857142857143</ele><time>2026-04-08T11:31:03.052Z</time></trkpt><trkpt lat="41.9111592" lon="13.6073073"><ele>929.7142857142858</ele><time>2026-04-08T11:31:11.09Z</time></trkpt><trkpt lat="41.9111583" lon="13.6072174"><ele>928.1428571428571</ele><time>2026-04-08T11:31:20.051Z</time></trkpt><trkpt lat="41.9111644" lon="13.6071222"><ele>926.5714285714287</ele><time>2026-04-08T11:31:27.088Z</time></trkpt><trkpt lat="41.9111453" lon="13.6070386"><ele>925.0</ele><time>2026-04-08T11:31:34.052Z</time></trkpt><trkpt lat="41.9111292" lon="13.6069478"><ele>923.2857142857143</ele><time>2026-04-08T11:31:42.081Z</time></trkpt><trkpt lat="41.9111204" lon="13.6068514"><ele>921.5714285714284</ele><time>2026-04-08T11:31:49.052Z</time></trkpt><trkpt lat="41.9111102" lon="13.606763"><ele>919.8571428571428</ele><time>2026-04-08T11:31:57.028Z</time></trkpt><trkpt lat="41.9111083" lon="13.6066653"><ele>918.1428571428571</ele><time>2026-04-08T11:32:05.052Z</time></trkpt><trkpt lat="41.9111135" lon="13.606579"><ele>916.4285714285713</ele><time>2026-04-08T11:32:12.03Z</time></trkpt><trkpt lat="41.911133" lon="13.6064911"><ele>914.7142857142856</ele><time>2026-04-08T11:32:20.05Z</time></trkpt><trkpt lat="41.9111364" lon="13.6064032"><ele>912.9999999999999</ele><time>2026-04-08T11:32:29.07Z</time></trkpt><trkpt lat="41.9111505" lon="13.6063136"><ele>912.9999999999999</ele><time>2026-04-08T11:32:37.053Z</time></trkpt><trkpt lat="41.9111757" lon="13.6062347"><ele>913.0</ele><time>2026-04-08T11:32:47.082Z</time></trkpt><trkpt lat="41.9111736" lon="13.6061482"><ele>912.9999999999999</ele><time>2026-04-08T11:32:55.098Z</time></trkpt><trkpt lat="41.9111941" lon="13.6060594"><ele>912.9999999999999</ele><time>2026-04-08T11:33:02.975Z</time></trkpt><trkpt lat="41.9112397" lon="13.605997"><ele>913.0</ele><time>2026-04-08T11:33:12.052Z</time></trkpt><trkpt lat="41.911268" lon="13.605919"><ele>912.9999999999999</ele><time>2026-04-08T11:33:22.096Z</time></trkpt><trkpt lat="41.9113266" lon="13.6059595"><ele>912.9999999999999</ele><time>2026-04-08T11:33:31.052Z</time></trkpt><trkpt lat="41.9113889" lon="13.6059943"><ele>910.5714285714284</ele><time>2026-04-08T11:33:40.054Z</time></trkpt><trkpt lat="41.9114499" lon="13.606019"><ele>908.1428571428571</ele><time>2026-04-08T11:33:48.057Z</time></trkpt><trkpt lat="41.9114864" lon="13.6059485"><ele>905.7142857142857</ele><time>2026-04-08T11:33:59.051Z</time></trkpt><trkpt lat="41.9115341" lon="13.6058923"><ele>903.2857142857142</ele><time>2026-04-08T11:34:07.051Z</time></trkpt><trkpt lat="41.9114941" lon="13.6058178"><ele>900.8571428571429</ele><time>2026-04-08T11:34:42.09Z</time></trkpt><trkpt lat="41.9114356" lon="13.6057773"><ele>898.4285714285714</ele><time>2026-04-08T11:34:50.074Z</time></trkpt><trkpt lat="41.91137" lon="13.6057766"><ele>896.0</ele><time>2026-04-08T11:34:55.07Z</time></trkpt><trkpt lat="41.9113062" lon="13.6057588"><ele>896.0</ele><time>2026-04-08T11:35:01.967Z</time></trkpt><trkpt lat="41.9112639" lon="13.6056936"><ele>896.0</ele><time>2026-04-08T11:35:08.054Z</time></trkpt><trkpt lat="41.9112001" lon="13.6056747"><ele>896.0</ele><time>2026-04-08T11:35:14.088Z</time></trkpt><trkpt lat="41.9111275" lon="13.6056742"><ele>896.0</ele><time>2026-04-08T11:35:21.05Z</time></trkpt><trkpt lat="41.9110811" lon="13.6056048"><ele>896.0</ele><time>2026-04-08T11:35:27.928Z</time></trkpt><trkpt lat="41.9110424" lon="13.6055367"><ele>896.0</ele><time>2026-04-08T11:35:35.072Z</time></trkpt><trkpt lat="41.9109936" lon="13.6054823"><ele>896.0</ele><time>2026-04-08T11:35:42.06Z</time></trkpt><trkpt lat="41.910944" lon="13.6054168"><ele>896.0</ele><time>2026-04-08T11:35:52.051Z</time></trkpt><trkpt lat="41.9109136" lon="13.6053355"><ele>896.0</ele><time>2026-04-08T11:36:00.072Z</time></trkpt><trkpt lat="41.9108919" lon="13.6052501"><ele>896.0</ele><time>2026-04-08T11:36:12.052Z</time></trkpt><trkpt lat="41.9108674" lon="13.6051688"><ele>896.0</ele><time>2026-04-08T11:36:22.051Z</time></trkpt><trkpt lat="41.910867" lon="13.6050782"><ele>896.0</ele><time>2026-04-08T11:36:34.081Z</time></trkpt><trkpt lat="41.9108978" lon="13.6050026"><ele>896.0</ele><time>2026-04-08T11:36:44.008Z</time></trkpt><trkpt lat="41.9109486" lon="13.6049441"><ele>896.0</ele><time>2026-04-08T11:36:57.007Z</time></trkpt><trkpt lat="41.9109849" lon="13.6048716"><ele>893.7142857142857</ele><time>2026-04-08T11:37:12.03Z</time></trkpt><trkpt lat="41.9110222" lon="13.6048032"><ele>891.4285714285714</ele><time>2026-04-08T11:37:22.051Z</time></trkpt><trkpt lat="41.9110603" lon="13.6047333"><ele>889.1428571428571</ele><time>2026-04-08T11:37:31.05Z</time></trkpt><trkpt lat="41.9110333" lon="13.6046483"><ele>886.8571428571429</ele><time>2026-04-08T11:37:52.797Z</time></trkpt><trkpt lat="41.9109802" lon="13.604589"><ele>884.5714285714286</ele><time>2026-04-08T11:38:01.05Z</time></trkpt><trkpt lat="41.9109659" lon="13.6044976"><ele>882.2857142857142</ele><time>2026-04-08T11:38:08.035Z</time></trkpt><trkpt lat="41.9109246" lon="13.6044202"><ele>880.0</ele><time>2026-04-08T11:38:15.05Z</time></trkpt><trkpt lat="41.9108806" lon="13.6043562"><ele>877.7142857142857</ele><time>2026-04-08T11:38:21.049Z</time></trkpt><trkpt lat="41.9108212" lon="13.6042997"><ele>875.4285714285714</ele><time>2026-04-08T11:38:27.075Z</time></trkpt><trkpt lat="41.9107579" lon="13.6042757"><ele>873.1428571428571</ele><time>2026-04-08T11:38:33.05Z</time></trkpt><trkpt lat="41.9107111" lon="13.6042149"><ele>870.8571428571429</ele><time>2026-04-08T11:38:39.053Z</time></trkpt><trkpt lat="41.9106368" lon="13.6042185"><ele>868.5714285714286</ele><time>2026-04-08T11:38:46.054Z</time></trkpt><trkpt lat="41.9105634" lon="13.604213"><ele>866.2857142857142</ele><time>2026-04-08T11:38:52.05Z</time></trkpt><trkpt lat="41.9104944" lon="13.6042058"><ele>864.0</ele><time>2026-04-08T11:38:58.07Z</time></trkpt><trkpt lat="41.9104268" lon="13.6042104"><ele>864.0</ele><time>2026-04-08T11:39:04.095Z</time></trkpt><trkpt lat="41.910359" lon="13.6042031"><ele>864.0</ele><time>2026-04-08T11:39:10.049Z</time></trkpt><trkpt lat="41.910295" lon="13.6041891"><ele>864.0</ele><time>2026-04-08T11:39:16.035Z</time></trkpt><trkpt lat="41.9102228" lon="13.604184"><ele>864.0</ele><time>2026-04-08T11:39:23.051Z</time></trkpt><trkpt lat="41.9101556" lon="13.6042038"><ele>864.0</ele><time>2026-04-08T11:39:29.061Z</time></trkpt><trkpt lat="41.9100914" lon="13.6042283"><ele>864.0</ele><time>2026-04-08T11:39:35.095Z</time></trkpt><trkpt lat="41.9100242" lon="13.6042301"><ele>864.0</ele><time>2026-04-08T11:39:41.052Z</time></trkpt><trkpt lat="41.9099625" lon="13.6042657"><ele>863.8571428571429</ele><time>2026-04-08T11:39:47.027Z</time></trkpt><trkpt lat="41.909907" lon="13.6043091"><ele>863.7142857142857</ele><time>2026-04-08T11:39:53.049Z</time></trkpt><trkpt lat="41.909845" lon="13.6043378"><ele>863.5714285714287</ele><time>2026-04-08T11:39:59.052Z</time></trkpt><trkpt lat="41.9097806" lon="13.6043613"><ele>863.4285714285714</ele><time>2026-04-08T11:40:05.084Z</time></trkpt><trkpt lat="41.9097138" lon="13.6043853"><ele>863.2857142857143</ele><time>2026-04-08T11:40:11.048Z</time></trkpt><trkpt lat="41.9096484" lon="13.6044265"><ele>863.1428571428572</ele><time>2026-04-08T11:40:16.973Z</time></trkpt><trkpt lat="41.9095853" lon="13.6044675"><ele>863.0</ele><time>2026-04-08T11:40:23.049Z</time></trkpt><trkpt lat="41.9095419" lon="13.6045442"><ele>863.0000000000001</ele><time>2026-04-08T11:40:29.088Z</time></trkpt><trkpt lat="41.9095623" lon="13.6046436"><ele>863.0</ele><time>2026-04-08T11:40:36.07Z</time></trkpt><trkpt lat="41.9095697" lon="13.6047315"><ele>863.0</ele><time>2026-04-08T11:40:43.05Z</time></trkpt><trkpt lat="41.909581" lon="13.6048171"><ele>863.0</ele><time>2026-04-08T11:40:53.081Z</time></trkpt><trkpt lat="41.9095448" lon="13.6049016"><ele>863.0</ele><time>2026-04-08T11:41:05.055Z</time></trkpt><trkpt lat="41.9094991" lon="13.6049651"><ele>863.0000000000001</ele><time>2026-04-08T11:41:11.093Z</time></trkpt><trkpt lat="41.9094675" lon="13.605052"><ele>863.0</ele><time>2026-04-08T11:41:18.052Z</time></trkpt><trkpt lat="41.9094481" lon="13.6051346"><ele>863.0000000000001</ele><time>2026-04-08T11:41:25.052Z</time></trkpt><trkpt lat="41.9094593" lon="13.6052275"><ele>863.0</ele><time>2026-04-08T11:41:35.093Z</time></trkpt><trkpt lat="41.9094033" lon="13.6052951"><ele>863.0</ele><time>2026-04-08T11:41:42.049Z</time></trkpt><trkpt lat="41.9093432" lon="13.6053519"><ele>863.0</ele><time>2026-04-08T11:41:48.051Z</time></trkpt><trkpt lat="41.9092796" lon="13.6053991"><ele>863.0</ele><time>2026-04-08T11:41:54.06Z</time></trkpt><trkpt lat="41.9092144" lon="13.6054304"><ele>863.0000000000001</ele><time>2026-04-08T11:42:00.05Z</time></trkpt><trkpt lat="41.9091496" lon="13.6054706"><ele>863.0</ele><time>2026-04-08T11:42:06.05Z</time></trkpt><trkpt lat="41.9090967" lon="13.6055316"><ele>862.2857142857143</ele><time>2026-04-08T11:42:13.079Z</time></trkpt><trkpt lat="41.9090526" lon="13.6056076"><ele>861.5714285714286</ele><time>2026-04-08T11:42:21.056Z</time></trkpt><trkpt lat="41.9090119" lon="13.6056775"><ele>860.8571428571429</ele><time>2026-04-08T11:42:28.072Z</time></trkpt><trkpt lat="41.9089888" lon="13.6057658"><ele>860.1428571428571</ele><time>2026-04-08T11:42:37.055Z</time></trkpt><trkpt lat="41.9090279" lon="13.6058395"><ele>859.4285714285714</ele><time>2026-04-08T11:42:55.052Z</time></trkpt><trkpt lat="41.9090949" lon="13.6058587"><ele>858.7142857142858</ele><time>2026-04-08T11:43:01.948Z</time></trkpt><trkpt lat="41.9091601" lon="13.6058782"><ele>858.0</ele><time>2026-04-08T11:43:09.046Z</time></trkpt><trkpt lat="41.9092241" lon="13.6058906"><ele>860.1428571428571</ele><time>2026-04-08T11:43:15.065Z</time></trkpt><trkpt lat="41.9092859" lon="13.6059112"><ele>862.2857142857143</ele><time>2026-04-08T11:43:21.049Z</time></trkpt><trkpt lat="41.9093538" lon="13.6059279"><ele>864.4285714285713</ele><time>2026-04-08T11:43:28.053Z</time></trkpt><trkpt lat="41.9094243" lon="13.6059286"><ele>866.5714285714286</ele><time>2026-04-08T11:43:35.052Z</time></trkpt><trkpt lat="41.9094903" lon="13.6059224"><ele>868.7142857142857</ele><time>2026-04-08T11:43:42.05Z</time></trkpt><trkpt lat="41.9094782" lon="13.6058388"><ele>870.8571428571428</ele><time>2026-04-08T11:43:54.106Z</time></trkpt><trkpt lat="41.9094361" lon="13.6057611"><ele>873.0</ele><time>2026-04-08T11:44:13.051Z</time></trkpt><trkpt lat="41.9093838" lon="13.6057117"><ele>872.9999999999999</ele><time>2026-04-08T11:44:32.05Z</time></trkpt><trkpt lat="41.9094469" lon="13.6057547"><ele>873.0</ele><time>2026-04-08T11:45:18.116Z</time></trkpt><trkpt lat="41.9094629" lon="13.6058457"><ele>873.0</ele><time>2026-04-08T11:45:36.049Z</time></trkpt><trkpt lat="41.9095018" lon="13.6059172"><ele>873.0</ele><time>2026-04-08T11:45:46.05Z</time></trkpt><trkpt lat="41.9095604" lon="13.6059586"><ele>873.0</ele><time>2026-04-08T11:45:55.058Z</time></trkpt><trkpt lat="41.9096233" lon="13.6059932"><ele>872.9999999999999</ele><time>2026-04-08T11:46:05.115Z</time></trkpt><trkpt lat="41.9096797" lon="13.6060312"><ele>873.0</ele><time>2026-04-08T11:46:18.048Z</time></trkpt><trkpt lat="41.9096689" lon="13.6061165"><ele>872.9999999999999</ele><time>2026-04-08T11:46:29.069Z</time></trkpt><trkpt lat="41.909682" lon="13.6060336"><ele>873.0</ele><time>2026-04-08T11:46:55.097Z</time></trkpt><trkpt lat="41.9096109" lon="13.6060358"><ele>873.0</ele><time>2026-04-08T11:47:03.08Z</time></trkpt><trkpt lat="41.9095554" lon="13.6060811"><ele>873.0</ele><time>2026-04-08T11:47:11.015Z</time></trkpt><trkpt lat="41.909492" lon="13.6061282"><ele>873.0</ele><time>2026-04-08T11:47:53.046Z</time></trkpt><trkpt lat="41.9094353" lon="13.6060759"><ele>872.9999999999999</ele><time>2026-04-08T11:49:07.107Z</time></trkpt><trkpt lat="41.9093791" lon="13.6061271"><ele>873.0</ele><time>2026-04-08T11:49:15.049Z</time></trkpt><trkpt lat="41.909317" lon="13.6061604"><ele>872.4285714285713</ele><time>2026-04-08T11:49:22.086Z</time></trkpt><trkpt lat="41.9092561" lon="13.6061946"><ele>871.8571428571429</ele><time>2026-04-08T11:49:28.048Z</time></trkpt><trkpt lat="41.9091997" lon="13.6062378"><ele>871.2857142857142</ele><time>2026-04-08T11:49:34.061Z</time></trkpt><trkpt lat="41.9091365" lon="13.6062719"><ele>870.7142857142857</ele><time>2026-04-08T11:49:40.095Z</time></trkpt><trkpt lat="41.9090692" lon="13.6063128"><ele>870.1428571428571</ele><time>2026-04-08T11:49:47.05Z</time></trkpt><trkpt lat="41.9090162" lon="13.6063866"><ele>869.5714285714286</ele><time>2026-04-08T11:49:54.051Z</time></trkpt><trkpt lat="41.9089591" lon="13.606439"><ele>869.0</ele><time>2026-04-08T11:50:00.114Z</time></trkpt><trkpt lat="41.9089012" lon="13.6064943"><ele>869.0</ele><time>2026-04-08T11:50:07.067Z</time></trkpt><trkpt lat="41.9088454" lon="13.6065538"><ele>869.0</ele><time>2026-04-08T11:50:14.05Z</time></trkpt><trkpt lat="41.9087962" lon="13.6066067"><ele>869.0</ele><time>2026-04-08T11:50:20.048Z</time></trkpt><trkpt lat="41.9087387" lon="13.6066578"><ele>869.0</ele><time>2026-04-08T11:50:26.997Z</time></trkpt><trkpt lat="41.9086846" lon="13.6067057"><ele>869.0</ele><time>2026-04-08T11:50:33.95Z</time></trkpt><trkpt lat="41.9086298" lon="13.6067508"><ele>869.0</ele><time>2026-04-08T11:50:41.034Z</time></trkpt><trkpt lat="41.9086121" lon="13.6068321"><ele>869.0</ele><time>2026-04-08T11:50:47.05Z</time></trkpt><trkpt lat="41.9086006" lon="13.6069159"><ele>870.4285714285714</ele><time>2026-04-08T11:50:53.054Z</time></trkpt><trkpt lat="41.9085828" lon="13.6070066"><ele>871.8571428571428</ele><time>2026-04-08T11:51:00.049Z</time></trkpt><trkpt lat="41.9085548" lon="13.6070857"><ele>873.2857142857142</ele><time>2026-04-08T11:51:07.048Z</time></trkpt><trkpt lat="41.9085323" lon="13.6071724"><ele>874.7142857142858</ele><time>2026-04-08T11:51:14.048Z</time></trkpt><trkpt lat="41.908503" lon="13.6072497"><ele>876.1428571428571</ele><time>2026-04-08T11:51:21.05Z</time></trkpt><trkpt lat="41.908475" lon="13.6073412"><ele>877.5714285714286</ele><time>2026-04-08T11:51:27.995Z</time></trkpt><trkpt lat="41.9084274" lon="13.6074016"><ele>879.0</ele><time>2026-04-08T11:51:36.05Z</time></trkpt><trkpt lat="41.9084064" lon="13.6074871"><ele>875.8571428571429</ele><time>2026-04-08T11:52:15.046Z</time></trkpt><trkpt lat="41.9083929" lon="13.6075801"><ele>872.7142857142858</ele><time>2026-04-08T11:52:21.088Z</time></trkpt><trkpt lat="41.9083412" lon="13.6075299"><ele>869.5714285714286</ele><time>2026-04-08T11:52:31.072Z</time></trkpt><trkpt lat="41.9082978" lon="13.6074605"><ele>866.4285714285714</ele><time>2026-04-08T11:52:39.054Z</time></trkpt><trkpt lat="41.9082365" lon="13.6074809"><ele>863.2857142857142</ele><time>2026-04-08T11:54:11.045Z</time></trkpt><trkpt lat="41.908175" lon="13.607504"><ele>860.1428571428571</ele><time>2026-04-08T11:54:20.097Z</time></trkpt><trkpt lat="41.9081088" lon="13.6074846"><ele>857.0</ele><time>2026-04-08T11:54:29.057Z</time></trkpt><trkpt lat="41.9080524" lon="13.6074466"><ele>857.0</ele><time>2026-04-08T11:54:40.051Z</time></trkpt><trkpt lat="41.907982" lon="13.6074233"><ele>857.0</ele><time>2026-04-08T12:17:38.046Z</time></trkpt><trkpt lat="41.90792" lon="13.6074455"><ele>857.0</ele><time>2026-04-08T12:17:48.044Z</time></trkpt><trkpt lat="41.9078573" lon="13.6074601"><ele>857.0</ele><time>2026-04-08T12:17:56.058Z</time></trkpt><trkpt lat="41.9077918" lon="13.6074834"><ele>857.0</ele><time>2026-04-08T12:18:08.044Z</time></trkpt><trkpt lat="41.9077258" lon="13.6074626"><ele>857.0</ele><time>2026-04-08T12:18:20.043Z</time></trkpt><trkpt lat="41.9076818" lon="13.6073972"><ele>857.0</ele><time>2026-04-08T12:18:33.042Z</time></trkpt><trkpt lat="41.9076182" lon="13.6073684"><ele>855.1428571428571</ele><time>2026-04-08T12:18:44.058Z</time></trkpt><trkpt lat="41.9075705" lon="13.6072971"><ele>853.2857142857142</ele><time>2026-04-08T12:19:05.087Z</time></trkpt><trkpt lat="41.9075225" lon="13.6072268"><ele>851.4285714285714</ele><time>2026-04-08T12:19:11.046Z</time></trkpt><trkpt lat="41.9074638" lon="13.6071876"><ele>849.5714285714286</ele><time>2026-04-08T12:19:24.045Z</time></trkpt><trkpt lat="41.9074022" lon="13.6071689"><ele>847.7142857142858</ele><time>2026-04-08T12:19:32.055Z</time></trkpt><trkpt lat="41.9073369" lon="13.6071402"><ele>845.8571428571429</ele><time>2026-04-08T12:19:41.112Z</time></trkpt><trkpt lat="41.9073081" lon="13.6070577"><ele>844.0</ele><time>2026-04-08T12:19:47.045Z</time></trkpt><trkpt lat="41.9072833" lon="13.6069735"><ele>843.8571428571429</ele><time>2026-04-08T12:19:54.047Z</time></trkpt><trkpt lat="41.9072261" lon="13.6069151"><ele>843.7142857142858</ele><time>2026-04-08T12:20:00.064Z</time></trkpt><trkpt lat="41.9071895" lon="13.6068411"><ele>843.5714285714286</ele><time>2026-04-08T12:20:06.001Z</time></trkpt><trkpt lat="41.9071487" lon="13.6067611"><ele>843.4285714285714</ele><time>2026-04-08T12:20:12.046Z</time></trkpt><trkpt lat="41.9071299" lon="13.6066762"><ele>843.2857142857142</ele><time>2026-04-08T12:20:18.042Z</time></trkpt><trkpt lat="41.9071031" lon="13.6065863"><ele>843.1428571428571</ele><time>2026-04-08T12:20:24.086Z</time></trkpt><trkpt lat="41.9070633" lon="13.6065096"><ele>843.0</ele><time>2026-04-08T12:20:30.046Z</time></trkpt><trkpt lat="41.9070337" lon="13.6064252"><ele>843.0</ele><time>2026-04-08T12:20:44.045Z</time></trkpt><trkpt lat="41.9069909" lon="13.6063541"><ele>843.0</ele><time>2026-04-08T12:20:49.042Z</time></trkpt><trkpt lat="41.9069516" lon="13.6062737"><ele>843.0</ele><time>2026-04-08T12:20:55.006Z</time></trkpt><trkpt lat="41.9069211" lon="13.606188"><ele>843.0</ele><time>2026-04-08T12:21:01.045Z</time></trkpt><trkpt lat="41.9068841" lon="13.6061165"><ele>843.0</ele><time>2026-04-08T12:21:07.047Z</time></trkpt><trkpt lat="41.9068537" lon="13.6060397"><ele>843.0</ele><time>2026-04-08T12:21:12.947Z</time></trkpt><trkpt lat="41.9068204" lon="13.6059591"><ele>843.0</ele><time>2026-04-08T12:21:19.043Z</time></trkpt><trkpt lat="41.9067839" lon="13.6058801"><ele>842.2857142857142</ele><time>2026-04-08T12:21:24.982Z</time></trkpt><trkpt lat="41.9067397" lon="13.6058073"><ele>841.5714285714286</ele><time>2026-04-08T12:21:31.045Z</time></trkpt><trkpt lat="41.9067174" lon="13.605727"><ele>840.8571428571429</ele><time>2026-04-08T12:21:36.084Z</time></trkpt><trkpt lat="41.9066797" lon="13.6056568"><ele>840.1428571428571</ele><time>2026-04-08T12:21:42.064Z</time></trkpt><trkpt lat="41.9066468" lon="13.6055764"><ele>839.4285714285714</ele><time>2026-04-08T12:21:48.046Z</time></trkpt><trkpt lat="41.9066173" lon="13.6054947"><ele>838.7142857142857</ele><time>2026-04-08T12:21:53.983Z</time></trkpt><trkpt lat="41.9065797" lon="13.6054249"><ele>838.0</ele><time>2026-04-08T12:22:00.075Z</time></trkpt><trkpt lat="41.906536" lon="13.6053456"><ele>837.9999999999999</ele><time>2026-04-08T12:22:06.048Z</time></trkpt><trkpt lat="41.9065125" lon="13.6052537"><ele>838.0</ele><time>2026-04-08T12:22:12.05Z</time></trkpt><trkpt lat="41.9064751" lon="13.6051661"><ele>838.0</ele><time>2026-04-08T12:22:18.045Z</time></trkpt><trkpt lat="41.9064502" lon="13.6050819"><ele>838.0</ele><time>2026-04-08T12:22:24.02Z</time></trkpt><trkpt lat="41.9064114" lon="13.6049994"><ele>838.0</ele><time>2026-04-08T12:22:30.062Z</time></trkpt><trkpt lat="41.9063687" lon="13.6049257"><ele>837.9999999999999</ele><time>2026-04-08T12:22:36.045Z</time></trkpt><trkpt lat="41.9063339" lon="13.604849"><ele>838.0</ele><time>2026-04-08T12:22:41.963Z</time></trkpt><trkpt lat="41.9062987" lon="13.6047757"><ele>837.9999999999999</ele><time>2026-04-08T12:22:47.787Z</time></trkpt><trkpt lat="41.9062631" lon="13.6046987"><ele>838.0</ele><time>2026-04-08T12:22:53.061Z</time></trkpt><trkpt lat="41.9062257" lon="13.6046125"><ele>838.0</ele><time>2026-04-08T12:23:00.043Z</time></trkpt><trkpt lat="41.9062458" lon="13.6045202"><ele>838.0</ele><time>2026-04-08T12:23:08.97Z</time></trkpt><trkpt lat="41.9062031" lon="13.6044493"><ele>838.0</ele><time>2026-04-08T12:23:15.044Z</time></trkpt><trkpt lat="41.9061539" lon="13.6043716"><ele>837.9999999999999</ele><time>2026-04-08T12:23:21.08Z</time></trkpt><trkpt lat="41.9060995" lon="13.604308"><ele>838.0</ele><time>2026-04-08T12:23:27.044Z</time></trkpt><trkpt lat="41.9060549" lon="13.6042335"><ele>837.9999999999999</ele><time>2026-04-08T12:23:32.988Z</time></trkpt><trkpt lat="41.906015" lon="13.6041556"><ele>838.0</ele><time>2026-04-08T12:23:39.091Z</time></trkpt><trkpt lat="41.9059818" lon="13.6040696"><ele>838.0</ele><time>2026-04-08T12:23:45.045Z</time></trkpt><trkpt lat="41.9059553" lon="13.6039822"><ele>838.0</ele><time>2026-04-08T12:23:51.065Z</time></trkpt><trkpt lat="41.9059169" lon="13.603908"><ele>838.0</ele><time>2026-04-08T12:23:57.046Z</time></trkpt><trkpt lat="41.9058832" lon="13.6038197"><ele>837.9999999999999</ele><time>2026-04-08T12:24:03.042Z</time></trkpt><trkpt lat="41.9058546" lon="13.6037441"><ele>838.0</ele><time>2026-04-08T12:24:09.022Z</time></trkpt><trkpt lat="41.9058097" lon="13.6036721"><ele>837.5714285714286</ele><time>2026-04-08T12:24:15.04Z</time></trkpt><trkpt lat="41.9057769" lon="13.6035862"><ele>837.1428571428571</ele><time>2026-04-08T12:24:21.051Z</time></trkpt><trkpt lat="41.9057363" lon="13.6035096"><ele>836.7142857142858</ele><time>2026-04-08T12:24:27.024Z</time></trkpt><trkpt lat="41.9056962" lon="13.6034324"><ele>836.2857142857142</ele><time>2026-04-08T12:24:33.046Z</time></trkpt><trkpt lat="41.9056635" lon="13.6033582"><ele>835.8571428571429</ele><time>2026-04-08T12:24:38.057Z</time></trkpt><trkpt lat="41.9056249" lon="13.6032879"><ele>835.4285714285714</ele><time>2026-04-08T12:24:44.102Z</time></trkpt><trkpt lat="41.9055767" lon="13.6032205"><ele>835.0</ele><time>2026-04-08T12:24:50.043Z</time></trkpt><trkpt lat="41.9055429" lon="13.6031341"><ele>835.0000000000001</ele><time>2026-04-08T12:24:56.069Z</time></trkpt><trkpt lat="41.9055143" lon="13.6030507"><ele>835.0</ele><time>2026-04-08T12:25:02.091Z</time></trkpt><trkpt lat="41.9054702" lon="13.6029793"><ele>835.0</ele><time>2026-04-08T12:25:08.044Z</time></trkpt><trkpt lat="41.9054333" lon="13.6029067"><ele>835.0</ele><time>2026-04-08T12:25:13.075Z</time></trkpt><trkpt lat="41.9053865" lon="13.6028193"><ele>835.0</ele><time>2026-04-08T12:25:20.023Z</time></trkpt><trkpt lat="41.9053545" lon="13.6027343"><ele>835.0000000000001</ele><time>2026-04-08T12:25:27.063Z</time></trkpt><trkpt lat="41.9053138" lon="13.6026578"><ele>835.0</ele><time>2026-04-08T12:25:33.044Z</time></trkpt><trkpt lat="41.9052741" lon="13.6025839"><ele>835.0000000000001</ele><time>2026-04-08T12:25:39.041Z</time></trkpt><trkpt lat="41.9052342" lon="13.60251"><ele>835.0</ele><time>2026-04-08T12:25:44.968Z</time></trkpt><trkpt lat="41.9051836" lon="13.6024515"><ele>835.0</ele><time>2026-04-08T12:25:51.042Z</time></trkpt><trkpt lat="41.9051456" lon="13.6023738"><ele>835.0</ele><time>2026-04-08T12:25:57.048Z</time></trkpt><trkpt lat="41.9050998" lon="13.6023111"><ele>835.0</ele><time>2026-04-08T12:26:02.084Z</time></trkpt><trkpt lat="41.9050566" lon="13.6022448"><ele>835.0000000000001</ele><time>2026-04-08T12:26:08.924Z</time></trkpt><trkpt lat="41.9050028" lon="13.6021878"><ele>835.0</ele><time>2026-04-08T12:26:15.109Z</time></trkpt><trkpt lat="41.9050154" lon="13.6021047"><ele>835.0000000000001</ele><time>2026-04-08T12:28:45.042Z</time></trkpt><trkpt lat="41.9049418" lon="13.6020933"><ele>835.0</ele><time>2026-04-08T12:29:43.043Z</time></trkpt><trkpt lat="41.9049275" lon="13.6021767"><ele>835.0</ele><time>2026-04-08T12:29:51.041Z</time></trkpt><trkpt lat="41.9049935" lon="13.6021885"><ele>835.0</ele><time>2026-04-08T12:30:01.042Z</time></trkpt><trkpt lat="41.9050636" lon="13.6021999"><ele>835.0</ele><time>2026-04-08T12:30:10.057Z</time></trkpt><trkpt lat="41.9051133" lon="13.6021282"><ele>835.0000000000001</ele><time>2026-04-08T12:30:16.968Z</time></trkpt><trkpt lat="41.9050925" lon="13.6020458"><ele>835.0</ele><time>2026-04-08T12:30:22.994Z</time></trkpt><trkpt lat="41.9050591" lon="13.6019689"><ele>835.0000000000001</ele><time>2026-04-08T12:30:29.041Z</time></trkpt><trkpt lat="41.904988" lon="13.6019686"><ele>835.0</ele><time>2026-04-08T12:30:35.044Z</time></trkpt><trkpt lat="41.9049321" lon="13.6020153"><ele>835.0</ele><time>2026-04-08T12:30:39.95Z</time></trkpt><trkpt lat="41.9048633" lon="13.6020471"><ele>835.0</ele><time>2026-04-08T12:30:45.968Z</time></trkpt><trkpt lat="41.9048001" lon="13.6020828"><ele>835.0</ele><time>2026-04-08T12:30:52.045Z</time></trkpt><trkpt lat="41.9047433" lon="13.6021312"><ele>835.0000000000001</ele><time>2026-04-08T12:30:58.058Z</time></trkpt><trkpt lat="41.9046826" lon="13.60218"><ele>835.0</ele><time>2026-04-08T12:31:04.071Z</time></trkpt><trkpt lat="41.9046199" lon="13.6022086"><ele>835.0000000000001</ele><time>2026-04-08T12:31:09.988Z</time></trkpt><trkpt lat="41.9045571" lon="13.6022459"><ele>835.0</ele><time>2026-04-08T12:31:16.043Z</time></trkpt><trkpt lat="41.9044927" lon="13.6022778"><ele>835.0</ele><time>2026-04-08T12:31:22.041Z</time></trkpt><trkpt lat="41.9044385" lon="13.6023403"><ele>835.0</ele><time>2026-04-08T12:31:28.047Z</time></trkpt><trkpt lat="41.9043768" lon="13.6023746"><ele>835.0</ele><time>2026-04-08T12:31:34.042Z</time></trkpt><trkpt lat="41.9043126" lon="13.6023807"><ele>835.0000000000001</ele><time>2026-04-08T12:31:40.07Z</time></trkpt><trkpt lat="41.9042446" lon="13.6024025"><ele>835.0</ele><time>2026-04-08T12:31:45.994Z</time></trkpt><trkpt lat="41.9041737" lon="13.6024014"><ele>835.0000000000001</ele><time>2026-04-08T12:31:52.043Z</time></trkpt><trkpt lat="41.9041036" lon="13.602409"><ele>835.0</ele><time>2026-04-08T12:31:58.042Z</time></trkpt><trkpt lat="41.9040376" lon="13.6023737"><ele>835.0</ele><time>2026-04-08T12:32:06.01Z</time></trkpt><trkpt lat="41.903967" lon="13.6024075"><ele>835.0</ele><time>2026-04-08T12:32:12.04Z</time></trkpt><trkpt lat="41.9038998" lon="13.6024482"><ele>835.0</ele><time>2026-04-08T12:32:18.105Z</time></trkpt><trkpt lat="41.9038649" lon="13.6025275"><ele>835.0000000000001</ele><time>2026-04-08T12:32:24.098Z</time></trkpt><trkpt lat="41.9038077" lon="13.6025721"><ele>835.0</ele><time>2026-04-08T12:32:30.043Z</time></trkpt><trkpt lat="41.9037489" lon="13.6026063"><ele>835.0000000000001</ele><time>2026-04-08T12:32:36.073Z</time></trkpt><trkpt lat="41.9036858" lon="13.6026401"><ele>835.0</ele><time>2026-04-08T12:32:42.039Z</time></trkpt><trkpt lat="41.9036523" lon="13.602725"><ele>835.0</ele><time>2026-04-08T12:32:48.013Z</time></trkpt><trkpt lat="41.9036188" lon="13.6028089"><ele>835.0</ele><time>2026-04-08T12:32:54.042Z</time></trkpt><trkpt lat="41.9035979" lon="13.6028977"><ele>835.0</ele><time>2026-04-08T12:33:00.027Z</time></trkpt><trkpt lat="41.9035896" lon="13.60299"><ele>835.0000000000001</ele><time>2026-04-08T12:33:06.06Z</time></trkpt><trkpt lat="41.9035452" lon="13.6030682"><ele>835.0</ele><time>2026-04-08T12:33:12.041Z</time></trkpt><trkpt lat="41.9035166" lon="13.6031525"><ele>835.0000000000001</ele><time>2026-04-08T12:33:18.008Z</time></trkpt><trkpt lat="41.9034872" lon="13.6032378"><ele>835.0</ele><time>2026-04-08T12:33:24.072Z</time></trkpt><trkpt lat="41.9034518" lon="13.6033195"><ele>835.0</ele><time>2026-04-08T12:33:30.042Z</time></trkpt><trkpt lat="41.9034243" lon="13.6034092"><ele>835.0</ele><time>2026-04-08T12:33:36.052Z</time></trkpt><trkpt lat="41.9033878" lon="13.60349"><ele>835.0</ele><time>2026-04-08T12:33:42.084Z</time></trkpt><trkpt lat="41.9033481" lon="13.6035678"><ele>835.0000000000001</ele><time>2026-04-08T12:33:48.043Z</time></trkpt><trkpt lat="41.9033119" lon="13.6036546"><ele>835.0</ele><time>2026-04-08T12:33:54.058Z</time></trkpt><trkpt lat="41.9032724" lon="13.6037298"><ele>834.4285714285714</ele><time>2026-04-08T12:33:59.95Z</time></trkpt><trkpt lat="41.903232" lon="13.6038053"><ele>833.8571428571429</ele><time>2026-04-08T12:34:06.039Z</time></trkpt><trkpt lat="41.9031718" lon="13.6038591"><ele>833.2857142857142</ele><time>2026-04-08T12:34:12.065Z</time></trkpt><trkpt lat="41.9031114" lon="13.6039084"><ele>832.7142857142858</ele><time>2026-04-08T12:34:18.041Z</time></trkpt><trkpt lat="41.9030769" lon="13.603993"><ele>832.1428571428571</ele><time>2026-04-08T12:34:24.044Z</time></trkpt><trkpt lat="41.9030415" lon="13.6040652"><ele>831.5714285714286</ele><time>2026-04-08T12:34:30.089Z</time></trkpt><trkpt lat="41.902998" lon="13.6041272"><ele>831.0</ele><time>2026-04-08T12:34:36.035Z</time></trkpt><trkpt lat="41.9029489" lon="13.604188"><ele>830.9999999999999</ele><time>2026-04-08T12:34:42.056Z</time></trkpt><trkpt lat="41.9029029" lon="13.6042572"><ele>831.0</ele><time>2026-04-08T12:34:48.039Z</time></trkpt><trkpt lat="41.9028722" lon="13.6043421"><ele>831.0</ele><time>2026-04-08T12:34:54.006Z</time></trkpt><trkpt lat="41.9028189" lon="13.6044059"><ele>831.0</ele><time>2026-04-08T12:35:00.069Z</time></trkpt><trkpt lat="41.9027801" lon="13.6044805"><ele>831.0</ele><time>2026-04-08T12:35:06.071Z</time></trkpt><trkpt lat="41.902752" lon="13.6045604"><ele>830.9999999999999</ele><time>2026-04-08T12:35:12.043Z</time></trkpt><trkpt lat="41.9027124" lon="13.6046321"><ele>831.0</ele><time>2026-04-08T12:35:18.08Z</time></trkpt><trkpt lat="41.9026761" lon="13.6047125"><ele>830.9999999999999</ele><time>2026-04-08T12:35:23.973Z</time></trkpt><trkpt lat="41.9026356" lon="13.6047907"><ele>831.0</ele><time>2026-04-08T12:35:30.054Z</time></trkpt><trkpt lat="41.9026059" lon="13.6048723"><ele>831.0</ele><time>2026-04-08T12:35:36.041Z</time></trkpt><trkpt lat="41.9025787" lon="13.6049547"><ele>831.0</ele><time>2026-04-08T12:35:41.974Z</time></trkpt><trkpt lat="41.902534" lon="13.6050145"><ele>831.0</ele><time>2026-04-08T12:35:47.06Z</time></trkpt><trkpt lat="41.9024829" lon="13.6050911"><ele>830.9999999999999</ele><time>2026-04-08T12:35:53.032Z</time></trkpt><trkpt lat="41.902447" lon="13.6051703"><ele>831.0</ele><time>2026-04-08T12:35:58.99Z</time></trkpt><trkpt lat="41.9024497" lon="13.6052682"><ele>831.0</ele><time>2026-04-08T12:36:05.072Z</time></trkpt><trkpt lat="41.9024317" lon="13.6053608"><ele>831.0</ele><time>2026-04-08T12:36:11.096Z</time></trkpt><trkpt lat="41.9024141" lon="13.6054463"><ele>831.0</ele><time>2026-04-08T12:36:17.046Z</time></trkpt><trkpt lat="41.9023647" lon="13.6055224"><ele>831.0</ele><time>2026-04-08T12:36:23.042Z</time></trkpt><trkpt lat="41.9023262" lon="13.6055948"><ele>831.0</ele><time>2026-04-08T12:36:29.041Z</time></trkpt><trkpt lat="41.9022815" lon="13.6056694"><ele>831.0</ele><time>2026-04-08T12:36:36.064Z</time></trkpt><trkpt lat="41.9022295" lon="13.605792"><ele>830.9999999999999</ele><time>2026-04-08T12:37:11.041Z</time></trkpt><trkpt lat="41.9022018" lon="13.605702"><ele>831.0</ele><time>2026-04-08T12:38:47.049Z</time></trkpt><trkpt lat="41.9021324" lon="13.6056895"><ele>831.0</ele><time>2026-04-08T12:38:53.051Z</time></trkpt><trkpt lat="41.9020855" lon="13.6057467"><ele>831.0</ele><time>2026-04-08T12:38:58.044Z</time></trkpt><trkpt lat="41.9020309" lon="13.6057932"><ele>831.0</ele><time>2026-04-08T12:39:04.056Z</time></trkpt><trkpt lat="41.9019702" lon="13.6058334"><ele>830.9999999999999</ele><time>2026-04-08T12:39:10.041Z</time></trkpt><trkpt lat="41.9019038" lon="13.6058588"><ele>831.0</ele><time>2026-04-08T12:39:16.037Z</time></trkpt><trkpt lat="41.9018364" lon="13.6058943"><ele>830.9999999999999</ele><time>2026-04-08T12:39:22.069Z</time></trkpt><trkpt lat="41.901778" lon="13.6059321"><ele>831.0</ele><time>2026-04-08T12:39:28.04Z</time></trkpt><trkpt lat="41.901714" lon="13.6059633"><ele>831.0</ele><time>2026-04-08T12:39:34.043Z</time></trkpt><trkpt lat="41.9016463" lon="13.6059911"><ele>831.0</ele><time>2026-04-08T12:39:40.041Z</time></trkpt><trkpt lat="41.9015809" lon="13.6060225"><ele>831.0</ele><time>2026-04-08T12:39:46.044Z</time></trkpt><trkpt lat="41.9015232" lon="13.6060762"><ele>830.9999999999999</ele><time>2026-04-08T12:39:53.061Z</time></trkpt><trkpt lat="41.9014788" lon="13.6061456"><ele>831.0</ele><time>2026-04-08T12:40:00.043Z</time></trkpt><trkpt lat="41.9015359" lon="13.6061979"><ele>830.9999999999999</ele><time>2026-04-08T12:40:07.049Z</time></trkpt><trkpt lat="41.9014752" lon="13.606133"><ele>831.0</ele><time>2026-04-08T12:41:19.092Z</time></trkpt><trkpt lat="41.9014162" lon="13.6060916"><ele>831.0</ele><time>2026-04-08T12:41:24.972Z</time></trkpt><trkpt lat="41.9013604" lon="13.6060357"><ele>831.0</ele><time>2026-04-08T12:41:31.046Z</time></trkpt><trkpt lat="41.9012925" lon="13.6060035"><ele>831.0</ele><time>2026-04-08T12:41:36.065Z</time></trkpt><trkpt lat="41.9012334" lon="13.6059585"><ele>830.9999999999999</ele><time>2026-04-08T12:41:41.011Z</time></trkpt><trkpt lat="41.9011808" lon="13.6059087"><ele>831.0</ele><time>2026-04-08T12:41:46.042Z</time></trkpt><trkpt lat="41.9011205" lon="13.6058582"><ele>830.9999999999999</ele><time>2026-04-08T12:41:52.043Z</time></trkpt><trkpt lat="41.9010576" lon="13.6058382"><ele>831.0</ele><time>2026-04-08T12:41:57.04Z</time></trkpt><trkpt lat="41.9009947" lon="13.6057869"><ele>831.0</ele><time>2026-04-08T12:42:03.039Z</time></trkpt><trkpt lat="41.9009327" lon="13.6057362"><ele>831.0</ele><time>2026-04-08T12:42:08.989Z</time></trkpt><trkpt lat="41.9008697" lon="13.6056945"><ele>831.0</ele><time>2026-04-08T12:42:15.04Z</time></trkpt><trkpt lat="41.900807" lon="13.6056672"><ele>830.9999999999999</ele><time>2026-04-08T12:42:19.987Z</time></trkpt><trkpt lat="41.9007525" lon="13.6056232"><ele>831.0</ele><time>2026-04-08T12:42:25.075Z</time></trkpt><trkpt lat="41.9006983" lon="13.6055685"><ele>830.9999999999999</ele><time>2026-04-08T12:42:30.969Z</time></trkpt><trkpt lat="41.9006426" lon="13.6055279"><ele>831.0</ele><time>2026-04-08T12:42:36.045Z</time></trkpt><trkpt lat="41.9005904" lon="13.6054765"><ele>831.0</ele><time>2026-04-08T12:42:40.971Z</time></trkpt><trkpt lat="41.900526" lon="13.605425"><ele>831.0</ele><time>2026-04-08T12:42:47.04Z</time></trkpt><trkpt lat="41.9004699" lon="13.6053675"><ele>831.0</ele><time>2026-04-08T12:42:52.946Z</time></trkpt><trkpt lat="41.900406" lon="13.6053225"><ele>830.9999999999999</ele><time>2026-04-08T12:42:59.038Z</time></trkpt><trkpt lat="41.9003404" lon="13.6052793"><ele>831.0</ele><time>2026-04-08T12:43:05.038Z</time></trkpt><trkpt lat="41.9002729" lon="13.6052374"><ele>830.9999999999999</ele><time>2026-04-08T12:43:10.993Z</time></trkpt><trkpt lat="41.9002102" lon="13.6051885"><ele>831.0</ele><time>2026-04-08T12:43:17.038Z</time></trkpt><trkpt lat="41.9001466" lon="13.6051529"><ele>831.0</ele><time>2026-04-08T12:43:23.006Z</time></trkpt><trkpt lat="41.9000834" lon="13.6051039"><ele>831.0</ele><time>2026-04-08T12:43:29.038Z</time></trkpt><trkpt lat="41.900023" lon="13.6050699"><ele>831.0</ele><time>2026-04-08T12:43:34.086Z</time></trkpt><trkpt lat="41.8999653" lon="13.6050201"><ele>830.9999999999999</ele><time>2026-04-08T12:43:40.05Z</time></trkpt><trkpt lat="41.8999168" lon="13.6049565"><ele>831.0</ele><time>2026-04-08T12:43:46.037Z</time></trkpt><trkpt lat="41.8998532" lon="13.6049273"><ele>830.8571428571428</ele><time>2026-04-08T12:43:52.04Z</time></trkpt><trkpt lat="41.8998669" lon="13.6050146"><ele>830.7142857142857</ele><time>2026-04-08T12:44:19.037Z</time></trkpt><trkpt lat="41.8998607" lon="13.6051045"><ele>830.5714285714286</ele><time>2026-04-08T12:44:24.037Z</time></trkpt><trkpt lat="41.8998437" lon="13.6051929"><ele>830.4285714285713</ele><time>2026-04-08T12:44:30.066Z</time></trkpt><trkpt lat="41.8998173" lon="13.6052794"><ele>830.2857142857143</ele><time>2026-04-08T12:44:36.04Z</time></trkpt><trkpt lat="41.8998155" lon="13.6053713"><ele>830.1428571428571</ele><time>2026-04-08T12:44:42.04Z</time></trkpt><trkpt lat="41.8998347" lon="13.6054676"><ele>830.0</ele><time>2026-04-08T12:44:48.039Z</time></trkpt><trkpt lat="41.8998322" lon="13.6055688"><ele>830.0</ele><time>2026-04-08T12:44:54.076Z</time></trkpt><trkpt lat="41.8998276" lon="13.6056576"><ele>830.0</ele><time>2026-04-08T12:44:58.976Z</time></trkpt><trkpt lat="41.8998323" lon="13.6057477"><ele>830.0</ele><time>2026-04-08T12:45:04.97Z</time></trkpt><trkpt lat="41.8998324" lon="13.6058467"><ele>830.0</ele><time>2026-04-08T12:45:11.039Z</time></trkpt><trkpt lat="41.899799" lon="13.6059187"><ele>830.0</ele><time>2026-04-08T12:45:16.056Z</time></trkpt><trkpt lat="41.8997689" lon="13.6060041"><ele>830.0</ele><time>2026-04-08T12:45:22.038Z</time></trkpt><trkpt lat="41.8997419" lon="13.6060903"><ele>830.0</ele><time>2026-04-08T12:45:28.066Z</time></trkpt><trkpt lat="41.8997033" lon="13.6061635"><ele>830.4285714285714</ele><time>2026-04-08T12:45:33.993Z</time></trkpt><trkpt lat="41.8996462" lon="13.6062252"><ele>830.8571428571429</ele><time>2026-04-08T12:45:40.039Z</time></trkpt><trkpt lat="41.8996029" lon="13.6062975"><ele>831.2857142857142</ele><time>2026-04-08T12:45:46.045Z</time></trkpt><trkpt lat="41.8995541" lon="13.6063645"><ele>831.7142857142858</ele><time>2026-04-08T12:45:52.039Z</time></trkpt><trkpt lat="41.8995048" lon="13.6064335"><ele>832.1428571428571</ele><time>2026-04-08T12:45:58.037Z</time></trkpt><trkpt lat="41.8994624" lon="13.606501"><ele>832.5714285714286</ele><time>2026-04-08T12:46:04.033Z</time></trkpt><trkpt lat="41.8994334" lon="13.6065864"><ele>833.0</ele><time>2026-04-08T12:46:10.031Z</time></trkpt><trkpt lat="41.8994051" lon="13.6066673"><ele>833.0</ele><time>2026-04-08T12:46:15.928Z</time></trkpt><trkpt lat="41.8993858" lon="13.6067577"><ele>833.0</ele><time>2026-04-08T12:46:22.038Z</time></trkpt><trkpt lat="41.8993773" lon="13.6068436"><ele>833.0</ele><time>2026-04-08T12:46:27.206Z</time></trkpt><trkpt lat="41.8993787" lon="13.6069375"><ele>833.0</ele><time>2026-04-08T12:46:34.049Z</time></trkpt><trkpt lat="41.8993874" lon="13.6070256"><ele>833.0</ele><time>2026-04-08T12:46:38.995Z</time></trkpt><trkpt lat="41.8993651" lon="13.6071149"><ele>833.0</ele><time>2026-04-08T12:46:45.037Z</time></trkpt><trkpt lat="41.8993129" lon="13.6071753"><ele>833.0</ele><time>2026-04-08T12:46:51.056Z</time></trkpt><trkpt lat="41.8992492" lon="13.6072249"><ele>832.4285714285714</ele><time>2026-04-08T12:46:58.036Z</time></trkpt><trkpt lat="41.8991951" lon="13.6072952"><ele>831.8571428571429</ele><time>2026-04-08T12:47:05.044Z</time></trkpt><trkpt lat="41.8991648" lon="13.6073709"><ele>831.2857142857142</ele><time>2026-04-08T12:47:11.069Z</time></trkpt><trkpt lat="41.8991268" lon="13.6074446"><ele>830.7142857142858</ele><time>2026-04-08T12:47:18.036Z</time></trkpt><trkpt lat="41.8991489" lon="13.6075326"><ele>830.1428571428571</ele><time>2026-04-08T12:47:24.038Z</time></trkpt><trkpt lat="41.8991827" lon="13.6076201"><ele>829.5714285714286</ele><time>2026-04-08T12:47:30.039Z</time></trkpt><trkpt lat="41.8991449" lon="13.6076921"><ele>829.0</ele><time>2026-04-08T12:47:35.986Z</time></trkpt><trkpt lat="41.8990905" lon="13.6077441"><ele>829.0</ele><time>2026-04-08T12:47:42.039Z</time></trkpt><trkpt lat="41.8990232" lon="13.6077794"><ele>829.0</ele><time>2026-04-08T12:47:48.988Z</time></trkpt><trkpt lat="41.8989504" lon="13.6077959"><ele>829.0</ele><time>2026-04-08T12:47:55.027Z</time></trkpt><trkpt lat="41.8988972" lon="13.6078503"><ele>829.0</ele><time>2026-04-08T12:48:00.039Z</time></trkpt><trkpt lat="41.8988644" lon="13.6079237"><ele>829.0</ele><time>2026-04-08T12:48:06.036Z</time></trkpt><trkpt lat="41.8988183" lon="13.6079857"><ele>829.0</ele><time>2026-04-08T12:48:12.038Z</time></trkpt><trkpt lat="41.8987574" lon="13.6080311"><ele>829.0</ele><time>2026-04-08T12:48:18.039Z</time></trkpt><trkpt lat="41.8986834" lon="13.6080283"><ele>829.5714285714286</ele><time>2026-04-08T12:48:24.046Z</time></trkpt><trkpt lat="41.8986391" lon="13.6079668"><ele>830.1428571428571</ele><time>2026-04-08T12:48:43.039Z</time></trkpt><trkpt lat="41.8985756" lon="13.6079763"><ele>830.7142857142858</ele><time>2026-04-08T12:50:19.036Z</time></trkpt><trkpt lat="41.8985231" lon="13.6080347"><ele>831.2857142857142</ele><time>2026-04-08T12:50:29.038Z</time></trkpt><trkpt lat="41.8984628" lon="13.608008"><ele>831.8571428571429</ele><time>2026-04-08T12:50:54.04Z</time></trkpt><trkpt lat="41.8984276" lon="13.6079286"><ele>832.4285714285714</ele><time>2026-04-08T12:51:02.047Z</time></trkpt><trkpt lat="41.8983787" lon="13.6078681"><ele>833.0</ele><time>2026-04-08T12:51:16.093Z</time></trkpt><trkpt lat="41.8983223" lon="13.6078077"><ele>833.0</ele><time>2026-04-08T12:52:34.046Z</time></trkpt><trkpt lat="41.8982559" lon="13.6077751"><ele>833.0</ele><time>2026-04-08T12:52:40.039Z</time></trkpt><trkpt lat="41.8982671" lon="13.6078625"><ele>833.0</ele><time>2026-04-08T12:53:27.967Z</time></trkpt><trkpt lat="41.8983187" lon="13.6079257"><ele>833.0</ele><time>2026-04-08T12:53:46.04Z</time></trkpt><trkpt lat="41.8983499" lon="13.6080084"><ele>833.0</ele><time>2026-04-08T12:53:53.037Z</time></trkpt><trkpt lat="41.8983528" lon="13.6080968"><ele>833.0</ele><time>2026-04-08T12:54:05.037Z</time></trkpt><trkpt lat="41.8982905" lon="13.6081343"><ele>833.0</ele><time>2026-04-08T12:54:13.01Z</time></trkpt><trkpt lat="41.898242" lon="13.6080797"><ele>833.0</ele><time>2026-04-08T12:54:20.037Z</time></trkpt><trkpt lat="41.8981874" lon="13.6080197"><ele>833.0</ele><time>2026-04-08T12:54:50.037Z</time></trkpt><trkpt lat="41.8981352" lon="13.6079516"><ele>833.0</ele><time>2026-04-08T12:54:55.041Z</time></trkpt><trkpt lat="41.89807" lon="13.6079212"><ele>833.0</ele><time>2026-04-08T12:55:00.051Z</time></trkpt><trkpt lat="41.8980058" lon="13.6078785"><ele>833.0</ele><time>2026-04-08T12:55:06.056Z</time></trkpt><trkpt lat="41.8979442" lon="13.6078383"><ele>833.0</ele><time>2026-04-08T12:55:12.038Z</time></trkpt><trkpt lat="41.8978811" lon="13.6078133"><ele>833.0</ele><time>2026-04-08T12:55:17.06Z</time></trkpt><trkpt lat="41.8978062" lon="13.6077935"><ele>833.0</ele><time>2026-04-08T12:55:31.047Z</time></trkpt><trkpt lat="41.8977409" lon="13.6077924"><ele>833.0</ele><time>2026-04-08T12:55:35.073Z</time></trkpt><trkpt lat="41.8976791" lon="13.607772"><ele>833.0</ele><time>2026-04-08T12:55:40.035Z</time></trkpt><trkpt lat="41.8976101" lon="13.6077884"><ele>833.0</ele><time>2026-04-08T12:55:45.988Z</time></trkpt><trkpt lat="41.8975429" lon="13.6078126"><ele>833.0</ele><time>2026-04-08T12:55:52.036Z</time></trkpt><trkpt lat="41.8974761" lon="13.6078235"><ele>833.0</ele><time>2026-04-08T12:55:58.053Z</time></trkpt><trkpt lat="41.8974108" lon="13.6078391"><ele>833.0</ele><time>2026-04-08T12:56:04.055Z</time></trkpt><trkpt lat="41.8973447" lon="13.6078744"><ele>837.4285714285714</ele><time>2026-04-08T12:56:11.037Z</time></trkpt><trkpt lat="41.8972808" lon="13.6078903"><ele>841.8571428571429</ele><time>2026-04-08T12:56:17.011Z</time></trkpt><trkpt lat="41.8972097" lon="13.6078935"><ele>846.2857142857142</ele><time>2026-04-08T12:56:23.074Z</time></trkpt><trkpt lat="41.897142" lon="13.607901"><ele>850.7142857142858</ele><time>2026-04-08T12:56:29.046Z</time></trkpt><trkpt lat="41.897071" lon="13.6078936"><ele>855.1428571428571</ele><time>2026-04-08T12:56:35.049Z</time></trkpt><trkpt lat="41.8969984" lon="13.6078867"><ele>859.5714285714286</ele><time>2026-04-08T12:56:41.038Z</time></trkpt><trkpt lat="41.8969285" lon="13.607882"><ele>864.0</ele><time>2026-04-08T12:56:47.038Z</time></trkpt><trkpt lat="41.8968608" lon="13.6078903"><ele>864.0</ele><time>2026-04-08T12:56:53.027Z</time></trkpt><trkpt lat="41.896794" lon="13.6079018"><ele>864.0</ele><time>2026-04-08T12:57:00.037Z</time></trkpt><trkpt lat="41.896719" lon="13.6078916"><ele>864.0</ele><time>2026-04-08T12:57:22.958Z</time></trkpt><trkpt lat="41.8966545" lon="13.607871"><ele>864.0</ele><time>2026-04-08T12:57:27.968Z</time></trkpt><trkpt lat="41.8965869" lon="13.6078773"><ele>864.0</ele><time>2026-04-08T12:57:34.038Z</time></trkpt><trkpt lat="41.8965157" lon="13.6078914"><ele>864.0</ele><time>2026-04-08T12:57:40.012Z</time></trkpt><trkpt lat="41.8964423" lon="13.6078937"><ele>864.0</ele><time>2026-04-08T12:57:47.04Z</time></trkpt><trkpt lat="41.8963767" lon="13.6079002"><ele>865.1428571428571</ele><time>2026-04-08T12:57:53.022Z</time></trkpt><trkpt lat="41.8963093" lon="13.6079287"><ele>866.2857142857142</ele><time>2026-04-08T12:57:59.035Z</time></trkpt><trkpt lat="41.8962415" lon="13.607952"><ele>867.4285714285714</ele><time>2026-04-08T12:58:05.049Z</time></trkpt><trkpt lat="41.8961726" lon="13.6079504"><ele>868.5714285714286</ele><time>2026-04-08T12:58:11.052Z</time></trkpt><trkpt lat="41.8961019" lon="13.6079434"><ele>869.7142857142858</ele><time>2026-04-08T12:58:17.038Z</time></trkpt><trkpt lat="41.8960349" lon="13.6079634"><ele>870.8571428571429</ele><time>2026-04-08T12:58:36.039Z</time></trkpt><trkpt lat="41.8959674" lon="13.6079672"><ele>872.0</ele><time>2026-04-08T12:58:42.045Z</time></trkpt><trkpt lat="41.8958984" lon="13.6079816"><ele>872.1428571428571</ele><time>2026-04-08T12:58:48.037Z</time></trkpt><trkpt lat="41.8958309" lon="13.6079879"><ele>872.2857142857143</ele><time>2026-04-08T12:58:54.014Z</time></trkpt><trkpt lat="41.8957663" lon="13.6080035"><ele>872.4285714285713</ele><time>2026-04-08T12:59:00.057Z</time></trkpt><trkpt lat="41.8956975" lon="13.6080171"><ele>872.5714285714286</ele><time>2026-04-08T12:59:06.035Z</time></trkpt><trkpt lat="41.8956332" lon="13.6080285"><ele>872.7142857142857</ele><time>2026-04-08T12:59:12.073Z</time></trkpt><trkpt lat="41.8955605" lon="13.6080267"><ele>872.8571428571428</ele><time>2026-04-08T12:59:18.111Z</time></trkpt><trkpt lat="41.8954835" lon="13.6080478"><ele>873.0</ele><time>2026-04-08T12:59:24.989Z</time></trkpt><trkpt lat="41.8954205" lon="13.6080777"><ele>872.9999999999999</ele><time>2026-04-08T12:59:31.052Z</time></trkpt><trkpt lat="41.8953505" lon="13.6080909"><ele>873.0</ele><time>2026-04-08T12:59:37.035Z</time></trkpt><trkpt lat="41.8952801" lon="13.6081138"><ele>873.0</ele><time>2026-04-08T12:59:42.974Z</time></trkpt><trkpt lat="41.8952124" lon="13.6081329"><ele>873.0</ele><time>2026-04-08T12:59:49.065Z</time></trkpt><trkpt lat="41.8951476" lon="13.608152"><ele>873.0</ele><time>2026-04-08T12:59:54.948Z</time></trkpt><trkpt lat="41.8950799" lon="13.6081714"><ele>872.9999999999999</ele><time>2026-04-08T13:00:01.039Z</time></trkpt><trkpt lat="41.8950121" lon="13.6082016"><ele>873.0</ele><time>2026-04-08T13:00:07.037Z</time></trkpt><trkpt lat="41.8949498" lon="13.608228"><ele>873.2857142857142</ele><time>2026-04-08T13:00:13.037Z</time></trkpt><trkpt lat="41.894885" lon="13.6082487"><ele>873.5714285714286</ele><time>2026-04-08T13:00:19.047Z</time></trkpt><trkpt lat="41.8948214" lon="13.608255"><ele>873.8571428571429</ele><time>2026-04-08T13:00:25.037Z</time></trkpt><trkpt lat="41.8947539" lon="13.6082765"><ele>874.1428571428571</ele><time>2026-04-08T13:00:32.038Z</time></trkpt><trkpt lat="41.8946862" lon="13.6082919"><ele>874.4285714285714</ele><time>2026-04-08T13:01:03.037Z</time></trkpt><trkpt lat="41.8946216" lon="13.6083084"><ele>874.7142857142857</ele><time>2026-04-08T13:01:09.035Z</time></trkpt><trkpt lat="41.8945498" lon="13.6083169"><ele>875.0</ele><time>2026-04-08T13:01:15.034Z</time></trkpt><trkpt lat="41.8944873" lon="13.6083519"><ele>875.0</ele><time>2026-04-08T13:01:21.041Z</time></trkpt><trkpt lat="41.8944248" lon="13.6083882"><ele>875.0</ele><time>2026-04-08T13:01:27.037Z</time></trkpt><trkpt lat="41.8943552" lon="13.6084014"><ele>875.0</ele><time>2026-04-08T13:01:33.037Z</time></trkpt><trkpt lat="41.8942944" lon="13.6084332"><ele>875.0</ele><time>2026-04-08T13:01:38.047Z</time></trkpt><trkpt lat="41.8942469" lon="13.6085048"><ele>875.0</ele><time>2026-04-08T13:01:45.036Z</time></trkpt><trkpt lat="41.8942176" lon="13.6085821"><ele>875.0</ele><time>2026-04-08T13:01:51.036Z</time></trkpt><trkpt lat="41.8941627" lon="13.6086317"><ele>875.0</ele><time>2026-04-08T13:01:57.034Z</time></trkpt><trkpt lat="41.8940953" lon="13.6086406"><ele>878.0</ele><time>2026-04-08T13:02:02.973Z</time></trkpt><trkpt lat="41.8940266" lon="13.6086619"><ele>881.0</ele><time>2026-04-08T13:02:09.089Z</time></trkpt><trkpt lat="41.8939634" lon="13.6086788"><ele>884.0</ele><time>2026-04-08T13:02:14.965Z</time></trkpt><trkpt lat="41.8938969" lon="13.6087085"><ele>887.0</ele><time>2026-04-08T13:02:21.054Z</time></trkpt><trkpt lat="41.8938439" lon="13.6087558"><ele>890.0</ele><time>2026-04-08T13:02:27.058Z</time></trkpt><trkpt lat="41.8937818" lon="13.6087712"><ele>893.0</ele><time>2026-04-08T13:03:02.038Z</time></trkpt><trkpt lat="41.8937265" lon="13.6088167"><ele>896.0</ele><time>2026-04-08T13:03:08.036Z</time></trkpt><trkpt lat="41.8936654" lon="13.6088546"><ele>896.0</ele><time>2026-04-08T13:03:14.033Z</time></trkpt><trkpt lat="41.8936031" lon="13.6089001"><ele>896.0</ele><time>2026-04-08T13:03:21.035Z</time></trkpt><trkpt lat="41.893541" lon="13.6089408"><ele>896.0</ele><time>2026-04-08T13:03:27.036Z</time></trkpt><trkpt lat="41.893481" lon="13.6089934"><ele>896.0</ele><time>2026-04-08T13:03:33.072Z</time></trkpt><trkpt lat="41.8934114" lon="13.609026"><ele>896.0</ele><time>2026-04-08T13:03:39.014Z</time></trkpt><trkpt lat="41.893341" lon="13.6090216"><ele>896.0</ele><time>2026-04-08T13:03:45.032Z</time></trkpt><trkpt lat="41.8932678" lon="13.6090399"><ele>896.0</ele><time>2026-04-08T13:03:52.036Z</time></trkpt><trkpt lat="41.8931972" lon="13.6090514"><ele>895.7142857142857</ele><time>2026-04-08T13:03:59.036Z</time></trkpt><trkpt lat="41.893135" lon="13.6090681"><ele>895.4285714285714</ele><time>2026-04-08T13:04:04.972Z</time></trkpt><trkpt lat="41.8930668" lon="13.6090961"><ele>895.1428571428571</ele><time>2026-04-08T13:04:11.035Z</time></trkpt><trkpt lat="41.8930042" lon="13.6091287"><ele>894.8571428571429</ele><time>2026-04-08T13:04:17.035Z</time></trkpt><trkpt lat="41.8929394" lon="13.6091556"><ele>894.5714285714286</ele><time>2026-04-08T13:04:22.949Z</time></trkpt><trkpt lat="41.8928781" lon="13.6091895"><ele>894.2857142857142</ele><time>2026-04-08T13:04:48.007Z</time></trkpt><trkpt lat="41.8928096" lon="13.6091969"><ele>894.0</ele><time>2026-04-08T13:04:53.035Z</time></trkpt><trkpt lat="41.8927362" lon="13.6092174"><ele>893.9999999999999</ele><time>2026-04-08T13:04:58.996Z</time></trkpt><trkpt lat="41.8926714" lon="13.6092497"><ele>894.0</ele><time>2026-04-08T13:05:05.047Z</time></trkpt><trkpt lat="41.8926067" lon="13.6092733"><ele>894.0</ele><time>2026-04-08T13:05:11.035Z</time></trkpt><trkpt lat="41.8925408" lon="13.6092991"><ele>894.0</ele><time>2026-04-08T13:05:16.969Z</time></trkpt><trkpt lat="41.8924715" lon="13.6093284"><ele>894.0</ele><time>2026-04-08T13:05:23.06Z</time></trkpt><trkpt lat="41.8924006" lon="13.6093553"><ele>893.9999999999999</ele><time>2026-04-08T13:05:30.037Z</time></trkpt><trkpt lat="41.8923391" lon="13.6094017"><ele>894.0</ele><time>2026-04-08T13:05:35.97Z</time></trkpt><trkpt lat="41.8922801" lon="13.6094382"><ele>893.7142857142857</ele><time>2026-04-08T13:05:42.036Z</time></trkpt><trkpt lat="41.8922149" lon="13.6094725"><ele>893.4285714285714</ele><time>2026-04-08T13:05:47.953Z</time></trkpt><trkpt lat="41.8921512" lon="13.6095035"><ele>893.1428571428571</ele><time>2026-04-08T13:05:54.056Z</time></trkpt><trkpt lat="41.892085" lon="13.6095335"><ele>892.8571428571429</ele><time>2026-04-08T13:06:01.037Z</time></trkpt><trkpt lat="41.8920164" lon="13.6095683"><ele>892.5714285714286</ele><time>2026-04-08T13:06:08.043Z</time></trkpt><trkpt lat="41.8919519" lon="13.6095925"><ele>892.2857142857142</ele><time>2026-04-08T13:06:15.037Z</time></trkpt><trkpt lat="41.8918902" lon="13.6096414"><ele>892.0</ele><time>2026-04-08T13:06:56.036Z</time></trkpt><trkpt lat="41.8918257" lon="13.6096683"><ele>895.5714285714286</ele><time>2026-04-08T13:07:02.038Z</time></trkpt><trkpt lat="41.8917525" lon="13.6096774"><ele>899.1428571428571</ele><time>2026-04-08T13:07:08.037Z</time></trkpt><trkpt lat="41.8916797" lon="13.6096848"><ele>902.7142857142858</ele><time>2026-04-08T13:07:13.99Z</time></trkpt><trkpt lat="41.8916138" lon="13.6096784"><ele>906.2857142857142</ele><time>2026-04-08T13:07:20.03Z</time></trkpt><trkpt lat="41.8915456" lon="13.6096673"><ele>909.8571428571429</ele><time>2026-04-08T13:07:26.034Z</time></trkpt><trkpt lat="41.8914728" lon="13.6096637"><ele>913.4285714285714</ele><time>2026-04-08T13:07:32.07Z</time></trkpt><trkpt lat="41.8914037" lon="13.609661"><ele>917.0</ele><time>2026-04-08T13:07:38.036Z</time></trkpt><trkpt lat="41.8913333" lon="13.6096445"><ele>917.0</ele><time>2026-04-08T13:07:44.044Z</time></trkpt><trkpt lat="41.8912586" lon="13.609633"><ele>917.0</ele><time>2026-04-08T13:07:50.076Z</time></trkpt><trkpt lat="41.8911855" lon="13.6096372"><ele>917.0</ele><time>2026-04-08T13:07:57.036Z</time></trkpt><trkpt lat="41.891123" lon="13.6096147"><ele>917.0</ele><time>2026-04-08T13:08:03.064Z</time></trkpt><trkpt lat="41.8910605" lon="13.6095857"><ele>917.0</ele><time>2026-04-08T13:08:09.048Z</time></trkpt><trkpt lat="41.8910111" lon="13.6095154"><ele>917.0</ele><time>2026-04-08T13:08:16.046Z</time></trkpt><trkpt lat="41.8909568" lon="13.6094698"><ele>917.0</ele><time>2026-04-08T13:08:22.093Z</time></trkpt><trkpt lat="41.8908943" lon="13.6094209"><ele>917.4285714285714</ele><time>2026-04-08T13:08:30.088Z</time></trkpt><trkpt lat="41.8908508" lon="13.6093515"><ele>917.8571428571429</ele><time>2026-04-08T13:08:36.973Z</time></trkpt><trkpt lat="41.8908101" lon="13.6092848"><ele>918.2857142857142</ele><time>2026-04-08T13:08:44.032Z</time></trkpt><trkpt lat="41.8907445" lon="13.6092427"><ele>918.7142857142857</ele><time>2026-04-08T13:08:51.065Z</time></trkpt><trkpt lat="41.8906768" lon="13.6092618"><ele>919.1428571428571</ele><time>2026-04-08T13:09:30.037Z</time></trkpt><trkpt lat="41.8906075" lon="13.609271"><ele>919.5714285714284</ele><time>2026-04-08T13:09:36.039Z</time></trkpt><trkpt lat="41.8905362" lon="13.6092796"><ele>919.9999999999999</ele><time>2026-04-08T13:09:42.035Z</time></trkpt><trkpt lat="41.8904727" lon="13.6092759"><ele>919.9999999999999</ele><time>2026-04-08T13:09:48.034Z</time></trkpt><trkpt lat="41.8904107" lon="13.6092587"><ele>920.0</ele><time>2026-04-08T13:09:55.067Z</time></trkpt><trkpt lat="41.8903374" lon="13.6092487"><ele>919.9999999999999</ele><time>2026-04-08T13:10:02.078Z</time></trkpt><trkpt lat="41.8902691" lon="13.609268"><ele>919.9999999999999</ele><time>2026-04-08T13:10:08.988Z</time></trkpt><trkpt lat="41.8902021" lon="13.6092708"><ele>920.0</ele><time>2026-04-08T13:10:16.035Z</time></trkpt><trkpt lat="41.8901388" lon="13.6092654"><ele>919.9999999999999</ele><time>2026-04-08T13:11:04.033Z</time></trkpt><trkpt lat="41.8900694" lon="13.6092709"><ele>919.9999999999999</ele><time>2026-04-08T13:11:10.037Z</time></trkpt><trkpt lat="41.8900061" lon="13.6092541"><ele>921.5714285714284</ele><time>2026-04-08T13:11:17.038Z</time></trkpt><trkpt lat="41.8899325" lon="13.609259"><ele>923.1428571428571</ele><time>2026-04-08T13:11:24.035Z</time></trkpt><trkpt lat="41.8898724" lon="13.6092902"><ele>924.7142857142857</ele><time>2026-04-08T13:11:29.031Z</time></trkpt><trkpt lat="41.8898057" lon="13.609311"><ele>926.2857142857142</ele><time>2026-04-08T13:11:35.034Z</time></trkpt><trkpt lat="41.8897419" lon="13.609319"><ele>927.8571428571429</ele><time>2026-04-08T13:11:40.035Z</time></trkpt><trkpt lat="41.8896711" lon="13.6093238"><ele>929.4285714285714</ele><time>2026-04-08T13:11:46.062Z</time></trkpt><trkpt lat="41.8896073" lon="13.6093335"><ele>931.0</ele><time>2026-04-08T13:11:52.016Z</time></trkpt><trkpt lat="41.8895444" lon="13.6093111"><ele>931.0</ele><time>2026-04-08T13:11:58.039Z</time></trkpt><trkpt lat="41.8894741" lon="13.6093295"><ele>931.0</ele><time>2026-04-08T13:12:36.033Z</time></trkpt><trkpt lat="41.8894135" lon="13.6093532"><ele>931.0</ele><time>2026-04-08T13:12:42.033Z</time></trkpt><trkpt lat="41.8893579" lon="13.6093937"><ele>931.0</ele><time>2026-04-08T13:12:48.033Z</time></trkpt><trkpt lat="41.8892984" lon="13.6094465"><ele>931.0</ele><time>2026-04-08T13:12:54.032Z</time></trkpt><trkpt lat="41.8892366" lon="13.60949"><ele>931.0</ele><time>2026-04-08T13:13:00.075Z</time></trkpt><trkpt lat="41.8891738" lon="13.609515"><ele>931.0</ele><time>2026-04-08T13:13:05.06Z</time></trkpt><trkpt lat="41.8891104" lon="13.6095383"><ele>930.2857142857142</ele><time>2026-04-08T13:13:10.992Z</time></trkpt><trkpt lat="41.8890481" lon="13.6095244"><ele>929.5714285714286</ele><time>2026-04-08T13:13:15.993Z</time></trkpt><trkpt lat="41.8889754" lon="13.609522"><ele>928.8571428571429</ele><time>2026-04-08T13:13:22.066Z</time></trkpt><trkpt lat="41.8889122" lon="13.6095139"><ele>928.1428571428571</ele><time>2026-04-08T13:13:27.948Z</time></trkpt><trkpt lat="41.8888459" lon="13.6095032"><ele>927.4285714285713</ele><time>2026-04-08T13:13:34.026Z</time></trkpt><trkpt lat="41.8887755" lon="13.6094883"><ele>926.7142857142857</ele><time>2026-04-08T13:13:40.079Z</time></trkpt><trkpt lat="41.8887151" lon="13.60946"><ele>926.0</ele><time>2026-04-08T13:13:45.99Z</time></trkpt><trkpt lat="41.8886659" lon="13.6093969"><ele>927.5714285714286</ele><time>2026-04-08T13:13:52.054Z</time></trkpt><trkpt lat="41.888625" lon="13.6093293"><ele>929.1428571428571</ele><time>2026-04-08T13:13:58.035Z</time></trkpt><trkpt lat="41.8885539" lon="13.6093635"><ele>930.7142857142857</ele><time>2026-04-08T13:14:08.054Z</time></trkpt><trkpt lat="41.888503" lon="13.6093114"><ele>932.2857142857142</ele><time>2026-04-08T13:14:18.033Z</time></trkpt><trkpt lat="41.8885018" lon="13.609211"><ele>933.8571428571429</ele><time>2026-04-08T13:14:23.929Z</time></trkpt><trkpt lat="41.8884951" lon="13.6091186"><ele>935.4285714285713</ele><time>2026-04-08T13:14:30.033Z</time></trkpt><trkpt lat="41.888498" lon="13.6090241"><ele>937.0</ele><time>2026-04-08T13:14:36.045Z</time></trkpt><trkpt lat="41.8884941" lon="13.6089357"><ele>937.0</ele><time>2026-04-08T13:14:42.069Z</time></trkpt><trkpt lat="41.8885103" lon="13.6088537"><ele>937.0</ele><time>2026-04-08T13:14:48.035Z</time></trkpt><trkpt lat="41.8885311" lon="13.6087645"><ele>937.0</ele><time>2026-04-08T13:14:54.069Z</time></trkpt><trkpt lat="41.8885515" lon="13.6086838"><ele>937.0</ele><time>2026-04-08T13:15:00.033Z</time></trkpt><trkpt lat="41.888582" lon="13.6086087"><ele>937.0</ele><time>2026-04-08T13:15:06.014Z</time></trkpt><trkpt lat="41.8885853" lon="13.6085107"><ele>937.0</ele><time>2026-04-08T13:15:13.062Z</time></trkpt><trkpt lat="41.8885911" lon="13.6084203"><ele>937.0</ele><time>2026-04-08T13:15:19.015Z</time></trkpt><trkpt lat="41.8886047" lon="13.6083352"><ele>937.0</ele><time>2026-04-08T13:15:25.037Z</time></trkpt><trkpt lat="41.8886118" lon="13.6082385"><ele>937.0</ele><time>2026-04-08T13:15:31.988Z</time></trkpt><trkpt lat="41.88861" lon="13.6081486"><ele>937.0</ele><time>2026-04-08T13:15:39.033Z</time></trkpt><trkpt lat="41.8886226" lon="13.6080626"><ele>937.0</ele><time>2026-04-08T13:15:45.064Z</time></trkpt><trkpt lat="41.888638" lon="13.6079747"><ele>937.0</ele><time>2026-04-08T13:15:50.986Z</time></trkpt><trkpt lat="41.8886596" lon="13.6078891"><ele>937.0</ele><time>2026-04-08T13:15:57.076Z</time></trkpt><trkpt lat="41.8886924" lon="13.6078068"><ele>937.0</ele><time>2026-04-08T13:16:03.077Z</time></trkpt><trkpt lat="41.8887118" lon="13.6077223"><ele>937.0</ele><time>2026-04-08T13:16:09.035Z</time></trkpt><trkpt lat="41.8887316" lon="13.607635"><ele>937.0</ele><time>2026-04-08T13:16:15.051Z</time></trkpt><trkpt lat="41.8887269" lon="13.60755"><ele>937.0</ele><time>2026-04-08T13:16:42.037Z</time></trkpt><trkpt lat="41.8887418" lon="13.6074635"><ele>937.0</ele><time>2026-04-08T13:16:49.035Z</time></trkpt><trkpt lat="41.8887513" lon="13.6073795"><ele>937.0</ele><time>2026-04-08T13:16:56.034Z</time></trkpt><trkpt lat="41.8887618" lon="13.6072876"><ele>937.0</ele><time>2026-04-08T13:17:02.089Z</time></trkpt><trkpt lat="41.8887738" lon="13.6071912"><ele>937.0</ele><time>2026-04-08T13:17:09.032Z</time></trkpt><trkpt lat="41.8888216" lon="13.6071342"><ele>937.0</ele><time>2026-04-08T13:17:18.046Z</time></trkpt><trkpt lat="41.8888326" lon="13.6070458"><ele>937.0</ele><time>2026-04-08T13:17:26.032Z</time></trkpt><trkpt lat="41.8888243" lon="13.6069525"><ele>937.0</ele><time>2026-04-08T13:17:32.995Z</time></trkpt><trkpt lat="41.8888339" lon="13.6068679"><ele>937.0</ele><time>2026-04-08T13:17:39.078Z</time></trkpt><trkpt lat="41.8888376" lon="13.6067735"><ele>937.0</ele><time>2026-04-08T13:17:46.037Z</time></trkpt><trkpt lat="41.888851" lon="13.6066863"><ele>937.0</ele><time>2026-04-08T13:17:52.059Z</time></trkpt><trkpt lat="41.8888609" lon="13.6065909"><ele>937.0</ele><time>2026-04-08T13:17:59.008Z</time></trkpt><trkpt lat="41.8888734" lon="13.6065053"><ele>935.7142857142857</ele><time>2026-04-08T13:18:05.04Z</time></trkpt><trkpt lat="41.888883" lon="13.6064196"><ele>934.4285714285716</ele><time>2026-04-08T13:18:10.992Z</time></trkpt><trkpt lat="41.8888823" lon="13.6063249"><ele>933.1428571428572</ele><time>2026-04-08T13:18:18.031Z</time></trkpt><trkpt lat="41.8888888" lon="13.6062272"><ele>931.8571428571429</ele><time>2026-04-08T13:18:25.066Z</time></trkpt><trkpt lat="41.8888935" lon="13.6061365"><ele>930.5714285714287</ele><time>2026-04-08T13:18:32.034Z</time></trkpt><trkpt lat="41.8888926" lon="13.6060495"><ele>929.2857142857144</ele><time>2026-04-08T13:18:38.048Z</time></trkpt><trkpt lat="41.8888896" lon="13.6059593"><ele>928.0000000000001</ele><time>2026-04-08T13:18:43.991Z</time></trkpt><trkpt lat="41.8888854" lon="13.605867"><ele>927.0000000000001</ele><time>2026-04-08T13:18:51.032Z</time></trkpt><trkpt lat="41.8888995" lon="13.6057716"><ele>926.0</ele><time>2026-04-08T13:18:58.007Z</time></trkpt><trkpt lat="41.8888809" lon="13.6056771"><ele>925.0000000000001</ele><time>2026-04-08T13:19:05.033Z</time></trkpt><trkpt lat="41.8888575" lon="13.6055948"><ele>924.0000000000001</ele><time>2026-04-08T13:19:11.054Z</time></trkpt><trkpt lat="41.8888438" lon="13.6055019"><ele>923.0</ele><time>2026-04-08T13:19:18.033Z</time></trkpt><trkpt lat="41.8888687" lon="13.6054203"><ele>922.0000000000001</ele><time>2026-04-08T13:19:24.01Z</time></trkpt><trkpt lat="41.8888905" lon="13.6053308"><ele>921.0000000000001</ele><time>2026-04-08T13:19:31.08Z</time></trkpt><trkpt lat="41.8888799" lon="13.6052386"><ele>914.0</ele><time>2026-04-08T13:19:38.035Z</time></trkpt><trkpt lat="41.888851" lon="13.6051611"><ele>914.0</ele><time>2026-04-08T13:19:45.067Z</time></trkpt></trkseg></trk></gpx>